[[{"header":{"parameterUnit":"m.s-1","parameterCategory":1,"la1":30.6,"la2":29.2853,"lo1":-89.7004,"lo2":-87.6739,"dy":0.0162,"dx":0.0183,"nx":112,"ny":82,"refTime":"2023-05-01T00:00:00:Z","depth":0,"parameterNumber":2,"parameterNumberName":"U-component_of_WINDS"},"data":[0.0,0.0,0.0,0.0,0.0,0.0,0.0,0.0,0.0,0.0,0.0,0.0,0.0,0.0,0.0,0.0,0.0,0.0,0.0,0.0,0.0,0.0,0.0,0.0,0.0,0.0,0.0,0.0,0.0,0.0,0.0,0.0,0.0,0.0,0.0,0.0,0.0,0.0,0.0,0.0,0.0,0.0,0.0,0.0,0.0,0.0,0.0,0.0,0.0,0.0,0.0,0.0,0.0,0.0,0.0,0.0,0.0,0.0,0.0,0.0,0.0,0.0,0.0,0.0,0.0,0.0,0.0,0.0,0.0,0.0,0.0,0.0,0.0,0.0,0.0,0.0,0.0,0.0,0.0,0.0,0.0,0.0,0.0,0.0,0.0,0.0,0.0,0.0,0.0,0.0,-2.099,-2.5209,-2.6535,-2.7096,-2.7096,-2.7096,-2.5812,-2.2835,0.0,0.0,0.0,0.0,0.0,0.0,0.0,0.0,0.0,0.0,0.0,0.0,0.0,0.0,0.0,0.0,0.0,0.0,0.0,0.0,0.0,0.0,0.0,0.0,0.0,0.0,0.0,0.0,0.0,0.0,0.0,0.0,0.0,0.0,0.0,0.0,0.0,0.0,0.0,0.0,0.0,0.0,0.0,0.0,0.0,0.0,0.0,0.0,0.0,0.0,0.0,0.0,0.0,0.0,0.0,0.0,0.0,0.0,0.0,0.0,0.0,0.0,0.0,0.0,0.0,0.0,0.0,0.0,0.0,0.0,0.0,0.0,0.0,0.0,0.0,0.0,0.0,0.0,0.0,0.0,0.0,0.0,0.0,0.0,0.0,0.0,0.0,0.0,0.0,0.0,0.0,0.0,0.0,0.0,0.0,0.0,0.0,0.0,0.0,0.0,0.0,0.0,0.0,0.0,-2.4283,-2.7764,-2.8302,-2.8418,-2.8418,-2.8418,-2.6963,-2.3555,0.0,0.0,0.0,0.0,0.0,0.0,0.0,0.0,0.0,0.0,0.0,0.0,0.0,0.0,0.0,0.0,0.0,0.0,0.0,0.0,0.0,0.0,0.0,0.0,0.0,0.0,0.0,0.0,0.0,0.0,0.0,0.0,0.0,0.0,0.0,0.0,0.0,0.0,0.0,0.0,0.0,0.0,0.0,0.0,0.0,0.0,0.0,0.0,0.0,0.0,0.0,0.0,0.0,0.0,0.0,0.0,0.0,0.0,0.0,0.0,0.0,0.0,0.0,0.0,0.0,0.0,0.0,0.0,0.0,0.0,0.0,0.0,0.0,0.0,0.0,0.0,0.0,0.0,0.0,0.0,0.0,0.0,0.0,0.0,0.0,0.0,0.0,0.0,0.0,0.0,0.0,0.0,0.0,0.0,0.0,0.0,0.0,0.0,0.0,0.0,0.0,0.0,0.0,-2.3999,-2.7082,-2.8549,-2.8709,-2.8709,-2.8709,-2.8709,-2.7211,-2.3718,-2.3183,0.0,0.0,0.0,0.0,0.0,0.0,0.0,0.0,0.0,0.0,0.0,0.0,0.0,0.0,0.0,0.0,0.0,0.0,0.0,0.0,0.0,0.0,0.0,0.0,0.0,0.0,0.0,0.0,0.0,0.0,0.0,0.0,0.0,0.0,0.0,0.0,0.0,0.0,0.0,0.0,0.0,0.0,0.0,0.0,0.0,0.0,0.0,0.0,0.0,0.0,0.0,0.0,0.0,0.0,0.0,0.0,0.0,0.0,0.0,0.0,0.0,0.0,0.0,0.0,0.0,0.0,0.0,0.0,0.0,0.0,0.0,0.0,0.0,0.0,0.0,0.0,0.0,0.0,0.0,0.0,0.0,0.0,0.0,0.0,0.0,0.0,0.0,0.0,0.0,0.0,0.0,0.0,0.0,0.0,0.0,0.0,0.0,0.0,0.0,0.0,0.0,0.0,-2.6049,-2.8575,-2.9087,-2.9159,-2.9159,-2.9159,-2.9159,-2.7606,-2.3933,-2.3555,0.0,0.0,0.0,0.0,0.0,0.0,0.0,0.0,0.0,0.0,0.0,0.0,0.0,0.0,0.0,0.0,0.0,0.0,0.0,0.0,0.0,0.0,0.0,0.0,0.0,0.0,0.0,0.0,0.0,0.0,0.0,0.0,0.0,0.0,0.0,0.0,0.0,0.0,0.0,0.0,0.0,0.0,0.0,0.0,0.0,0.0,0.0,0.0,0.0,0.0,0.0,0.0,0.0,0.0,0.0,0.0,0.0,0.0,0.0,0.0,0.0,0.0,0.0,0.0,0.0,0.0,0.0,0.0,0.0,0.0,0.0,0.0,0.0,0.0,0.0,0.0,0.0,0.0,0.0,0.0,0.0,0.0,0.0,0.0,0.0,0.0,0.0,0.0,0.0,0.0,0.0,0.0,0.0,0.0,0.0,0.0,0.0,0.0,0.0,0.0,0.0,0.0,-2.5412,-2.7699,-3.022,-3.0467,-3.0467,-3.0467,-3.0467,-2.869,-2.4501,-2.3659,0.0,0.0,0.0,0.0,0.0,0.0,0.0,0.0,0.0,0.0,0.0,0.0,0.0,0.0,0.0,0.0,0.0,0.0,0.0,0.0,0.0,0.0,0.0,0.0,0.0,0.0,0.0,0.0,0.0,0.0,0.0,0.0,0.0,0.0,0.0,0.0,0.0,0.0,0.0,0.0,0.0,0.0,0.0,0.0,0.0,0.0,0.0,0.0,0.0,0.0,0.0,0.0,0.0,0.0,0.0,0.0,0.0,0.0,0.0,0.0,0.0,0.0,0.0,0.0,0.0,0.0,0.0,0.0,0.0,0.0,0.0,0.0,0.0,0.0,0.0,0.0,0.0,0.0,0.0,0.0,0.0,0.0,0.0,0.0,0.0,0.0,0.0,0.0,0.0,0.0,0.0,0.0,0.0,0.0,0.0,0.0,0.0,0.0,0.0,0.0,0.0,0.0,-2.6821,-2.9465,0.0,-3.0598,-3.0598,-3.0598,-3.0598,-2.8792,-2.4574,0.0,0.0,0.0,0.0,0.0,0.0,0.0,0.0,0.0,0.0,0.0,0.0,0.0,0.0,0.0,0.0,0.0,0.0,0.0,0.0,0.0,0.0,0.0,0.0,0.0,0.0,0.0,0.0,0.0,0.0,0.0,0.0,0.0,0.0,0.0,0.0,0.0,0.0,0.0,0.0,0.0,0.0,0.0,0.0,0.0,0.0,0.0,0.0,0.0,0.0,0.0,0.0,0.0,0.0,0.0,0.0,0.0,0.0,0.0,0.0,0.0,0.0,0.0,0.0,0.0,0.0,0.0,0.0,0.0,0.0,0.0,0.0,0.0,0.0,0.0,0.0,0.0,0.0,0.0,0.0,0.0,0.0,0.0,0.0,0.0,0.0,0.0,0.0,0.0,0.0,0.0,0.0,0.0,0.0,0.0,0.0,0.0,0.0,0.0,0.0,0.0,0.0,-2.343,-2.7597,-3.0598,0.0,-3.0598,-3.0598,-3.0598,-3.0538,-2.8593,-2.4156,0.0,0.0,0.0,0.0,0.0,0.0,0.0,0.0,0.0,0.0,0.0,0.0,0.0,0.0,0.0,0.0,0.0,0.0,0.0,0.0,0.0,0.0,0.0,0.0,0.0,0.0,0.0,0.0,0.0,0.0,0.0,0.0,0.0,0.0,0.0,0.0,0.0,0.0,0.0,0.0,0.0,0.0,0.0,0.0,0.0,0.0,0.0,0.0,0.0,0.0,0.0,0.0,0.0,0.0,0.0,0.0,0.0,0.0,0.0,0.0,0.0,0.0,0.0,0.0,0.0,0.0,0.0,0.0,0.0,0.0,0.0,0.0,0.0,0.0,0.0,0.0,0.0,0.0,0.0,0.0,0.0,0.0,0.0,0.0,0.0,0.0,0.0,0.0,0.0,0.0,0.0,0.0,0.0,0.0,0.0,0.0,0.0,0.0,0.0,0.0,0.0,0.0,-2.2864,-2.7323,-3.0598,-3.0598,-3.0598,-3.0598,-3.0598,-3.0417,-2.818,0.0,0.0,0.0,0.0,0.0,0.0,0.0,0.0,0.0,0.0,0.0,0.0,0.0,0.0,0.0,0.0,0.0,0.0,0.0,0.0,0.0,0.0,0.0,0.0,0.0,0.0,0.0,0.0,0.0,0.0,0.0,0.0,0.0,0.0,0.0,0.0,0.0,0.0,0.0,0.0,0.0,0.0,0.0,0.0,0.0,0.0,0.0,0.0,0.0,0.0,0.0,0.0,0.0,0.0,0.0,0.0,0.0,0.0,0.0,0.0,0.0,0.0,0.0,0.0,0.0,0.0,0.0,0.0,0.0,0.0,0.0,0.0,0.0,0.0,0.0,0.0,0.0,0.0,0.0,0.0,0.0,0.0,0.0,0.0,0.0,0.0,0.0,0.0,0.0,0.0,0.0,0.0,0.0,0.0,0.0,0.0,0.0,0.0,0.0,0.0,0.0,0.0,0.0,-2.2807,-2.7323,-3.0598,-3.0598,-3.0598,-3.0598,-3.0598,-3.0417,-2.8166,-2.32,0.0,0.0,0.0,0.0,0.0,0.0,0.0,0.0,0.0,0.0,0.0,0.0,0.0,0.0,0.0,0.0,0.0,0.0,0.0,0.0,0.0,0.0,0.0,0.0,0.0,0.0,0.0,0.0,0.0,0.0,0.0,0.0,0.0,0.0,0.0,0.0,0.0,0.0,0.0,0.0,0.0,0.0,0.0,0.0,0.0,0.0,0.0,0.0,0.0,0.0,0.0,0.0,0.0,0.0,0.0,0.0,0.0,0.0,0.0,0.0,0.0,0.0,0.0,0.0,0.0,0.0,0.0,0.0,0.0,0.0,0.0,0.0,0.0,0.0,0.0,0.0,0.0,0.0,0.0,0.0,0.0,0.0,0.0,0.0,0.0,0.0,0.0,0.0,0.0,0.0,0.0,0.0,0.0,0.0,0.0,0.0,0.0,0.0,0.0,0.0,0.0,0.0,-2.2793,-2.7323,-3.0598,-3.0598,-3.0538,-3.0507,-3.0598,-3.0371,-2.8555,-2.4602,0.0,0.0,0.0,0.0,0.0,0.0,0.0,0.0,0.0,0.0,0.0,0.0,0.0,0.0,0.0,0.0,0.0,0.0,0.0,0.0,0.0,0.0,0.0,0.0,0.0,0.0,0.0,0.0,0.0,0.0,0.0,0.0,0.0,0.0,0.0,0.0,0.0,0.0,0.0,0.0,0.0,0.0,0.0,0.0,0.0,0.0,0.0,0.0,0.0,0.0,0.0,0.0,0.0,0.0,0.0,0.0,0.0,0.0,0.0,0.0,0.0,0.0,0.0,0.0,0.0,0.0,0.0,0.0,0.0,0.0,0.0,0.0,0.0,0.0,0.0,0.0,0.0,0.0,0.0,0.0,0.0,0.0,0.0,0.0,0.0,0.0,0.0,0.0,0.0,0.0,0.0,0.0,0.0,0.0,0.0,0.0,0.0,0.0,0.0,0.0,0.0,0.0,-2.2841,-2.7339,-3.0552,-3.0552,-3.0387,-3.0357,-3.0568,-3.028,-2.9114,-2.6763,0.0,0.0,0.0,0.0,0.0,0.0,0.0,0.0,0.0,0.0,0.0,0.0,0.0,0.0,0.0,0.0,0.0,0.0,0.0,0.0,0.0,0.0,0.0,0.0,0.0,0.0,0.0,0.0,0.0,0.0,0.0,0.0,0.0,0.0,0.0,0.0,0.0,0.0,0.0,0.0,0.0,0.0,0.0,0.0,0.0,0.0,0.0,0.0,0.0,0.0,0.0,0.0,0.0,0.0,0.0,0.0,0.0,0.0,0.0,0.0,-2.233,-2.0822,0.0,0.0,0.0,0.0,0.0,0.0,0.0,0.0,0.0,0.0,0.0,0.0,0.0,0.0,0.0,0.0,0.0,0.0,0.0,0.0,0.0,0.0,0.0,0.0,0.0,0.0,0.0,0.0,0.0,0.0,0.0,0.0,0.0,0.0,0.0,0.0,0.0,0.0,0.0,0.0,-2.3283,-2.7325,-3.0203,-3.0203,-3.0172,-3.0189,-3.0357,-3.0189,-2.9114,-2.6763,-2.5983,0.0,0.0,0.0,0.0,0.0,0.0,0.0,0.0,0.0,0.0,0.0,0.0,0.0,0.0,0.0,0.0,0.0,0.0,0.0,0.0,0.0,0.0,0.0,0.0,0.0,0.0,0.0,0.0,0.0,0.0,0.0,0.0,0.0,0.0,0.0,0.0,0.0,0.0,0.0,0.0,0.0,0.0,0.0,0.0,0.0,0.0,0.0,0.0,0.0,0.0,0.0,0.0,0.0,0.0,0.0,0.0,0.0,0.0,0.0,-2.2782,-2.199,0.0,0.0,0.0,0.0,0.0,0.0,0.0,0.0,0.0,0.0,0.0,0.0,0.0,0.0,0.0,0.0,0.0,0.0,0.0,0.0,0.0,0.0,0.0,0.0,0.0,0.0,0.0,0.0,0.0,0.0,0.0,0.0,0.0,0.0,0.0,0.0,0.0,0.0,0.0,0.0,-2.3396,-2.7327,-3.008,-3.008,-3.0005,-3.0021,-3.0189,-3.0142,-2.96,-2.8454,-2.7201,0.0,0.0,0.0,0.0,0.0,0.0,0.0,0.0,0.0,0.0,0.0,0.0,0.0,0.0,0.0,0.0,0.0,0.0,0.0,0.0,0.0,0.0,0.0,0.0,0.0,0.0,0.0,0.0,0.0,0.0,0.0,0.0,0.0,0.0,0.0,0.0,0.0,0.0,0.0,0.0,0.0,0.0,0.0,0.0,0.0,0.0,0.0,0.0,0.0,0.0,0.0,0.0,0.0,-2.2742,-2.2919,-2.2905,-2.3087,-2.333,-2.3588,-2.3562,-2.3784,-2.4123,-2.4131,0.0,0.0,0.0,0.0,0.0,0.0,0.0,0.0,0.0,0.0,0.0,0.0,0.0,0.0,0.0,0.0,0.0,0.0,0.0,0.0,0.0,0.0,0.0,0.0,-2.4243,-2.3758,-2.4826,0.0,0.0,0.0,0.0,0.0,0.0,0.0,0.0,0.0,0.0,0.0,-2.3528,-2.7314,-3.0019,-3.0019,-2.9867,-2.9822,-3.0036,-3.0036,-3.0127,-3.0282,-2.8367,-2.7134,0.0,0.0,0.0,0.0,0.0,0.0,0.0,0.0,0.0,0.0,0.0,0.0,0.0,0.0,0.0,0.0,0.0,0.0,0.0,0.0,0.0,0.0,0.0,0.0,0.0,0.0,0.0,0.0,0.0,0.0,0.0,0.0,-1.8181,-1.993,0.0,0.0,0.0,0.0,0.0,0.0,0.0,0.0,0.0,0.0,0.0,0.0,0.0,-2.1582,-2.1629,-2.3082,-2.3931,-2.4184,-2.553,-2.6445,-2.6933,-2.6734,-2.6961,-2.7449,-2.57,0.0,-2.6684,-2.7479,0.0,0.0,0.0,0.0,0.0,0.0,0.0,0.0,0.0,0.0,0.0,0.0,0.0,0.0,0.0,0.0,0.0,0.0,0.0,0.0,0.0,0.0,-2.8133,-2.8588,-2.6985,-2.5981,0.0,-2.4467,-2.1114,-2.3216,-2.1925,0.0,0.0,0.0,0.0,0.0,0.0,0.0,-2.4105,-2.7356,-2.9665,-2.9665,-2.9634,-2.9682,-2.9822,-2.9853,-2.9976,-3.0282,-2.9995,-2.8857,-2.6717,-2.867,0.0,0.0,0.0,0.0,0.0,0.0,0.0,0.0,0.0,0.0,0.0,0.0,0.0,0.0,0.0,0.0,0.0,0.0,0.0,0.0,0.0,0.0,0.0,0.0,0.0,0.0,0.0,0.0,0.0,-1.8378,-1.9114,-1.9858,-2.0188,-2.0091,0.0,0.0,0.0,0.0,0.0,0.0,0.0,0.0,0.0,-2.2304,-2.3095,-2.3583,-2.3799,-2.519,-2.5932,-2.5959,-2.6787,-2.7294,-2.7473,-2.7708,-2.8369,-2.9272,-2.8628,-2.9015,-2.993,-2.8109,-2.7294,-2.707,0.0,0.0,0.0,0.0,-2.4014,-2.5103,-2.3693,-2.4743,-2.6656,-2.6275,0.0,0.0,0.0,0.0,0.0,0.0,0.0,-2.5165,0.0,0.0,-2.8371,-2.9288,-2.8696,-2.8206,-2.9347,-2.6399,-2.3836,0.0,-2.3709,-2.2071,-2.0639,0.0,0.0,0.0,0.0,-2.5639,-2.5666,-2.7974,-2.9602,-2.9602,-2.9602,-2.9634,-2.9682,-2.9761,-2.987,-3.0007,-3.0113,-2.9733,-2.8728,-2.9646,-2.8641,0.0,0.0,0.0,0.0,0.0,0.0,0.0,0.0,0.0,0.0,0.0,0.0,0.0,0.0,0.0,0.0,0.0,0.0,0.0,0.0,0.0,0.0,0.0,0.0,0.0,0.0,0.0,0.0,-1.9809,-2.0246,-2.0381,-2.1046,-2.1286,0.0,0.0,0.0,0.0,0.0,0.0,-2.2655,-2.2856,-2.3227,-2.3759,-2.487,-2.5564,-2.5824,-2.69,-2.7467,-2.7434,-2.7813,-2.8108,-2.8303,-2.8727,-2.962,-3.0816,-3.1107,-3.1671,-3.217,-2.9234,-2.7784,-2.7458,-2.7786,-2.7334,-2.6421,-2.5796,-2.6315,-2.7108,-2.5786,-2.6834,-2.8707,-2.8217,-2.7876,-2.7697,-2.7947,0.0,0.0,0.0,0.0,-2.6675,-2.6777,-2.7371,-2.8239,-2.9341,-2.9602,-2.9602,-2.9602,-2.7902,-2.6469,0.0,-2.5625,-2.4022,-2.2325,0.0,0.0,0.0,0.0,-2.6807,-2.6835,-2.845,-2.9602,-2.9602,-2.9602,-2.9602,-2.9602,-2.9682,-2.9747,-2.9808,-2.9929,-3.0097,-3.0235,-3.0158,-2.9454,-2.8026,0.0,0.0,0.0,0.0,0.0,0.0,0.0,0.0,0.0,0.0,0.0,0.0,0.0,0.0,0.0,0.0,0.0,0.0,0.0,0.0,0.0,0.0,0.0,0.0,0.0,0.0,0.0,0.0,0.0,-2.2378,-2.4352,0.0,0.0,0.0,0.0,-2.2217,-2.2119,-2.2957,-2.4923,-2.4682,-2.5355,-2.7207,-2.7201,-2.7183,-2.7195,-2.7693,-2.8102,-2.8332,-2.8993,-2.9893,-3.0997,-3.0896,-3.1548,-3.2726,-3.2434,-3.2351,-3.2382,-3.2185,-3.1999,-3.1692,-2.977,-2.9102,-2.8867,-2.6212,-2.6942,-2.9076,-2.7704,-2.899,-3.1228,-3.1178,-3.002,-2.8179,-2.5827,-2.5537,0.0,0.0,-2.6305,-2.7969,-2.705,-2.8154,-2.9521,-2.9588,-2.9602,-2.9602,-2.9602,-2.8591,-2.8029,0.0,-2.7467,-2.595,-2.6413,0.0,-2.6033,-2.4295,-2.5624,-2.6835,-2.6975,-2.851,-2.9602,-2.9602,-2.9602,-2.9602,-2.9602,-2.9602,-2.9651,-2.9777,-2.9808,-2.9884,-3.0111,-3.0111,-3.0068,-2.9952,-2.7639,0.0,0.0,0.0,0.0,0.0,0.0,0.0,0.0,0.0,0.0,0.0,0.0,0.0,0.0,0.0,0.0,0.0,0.0,0.0,0.0,0.0,0.0,0.0,0.0,0.0,0.0,0.0,0.0,-2.2815,-2.3833,0.0,-2.3634,-2.3965,-2.3974,-2.3393,-2.4464,-2.5464,-2.6198,-2.6267,-2.6794,-2.7922,-2.7917,-2.8141,-2.8652,-2.8827,-2.8893,-2.8862,-2.9538,-3.0101,-3.063,-3.0915,-3.1366,-3.1866,-3.1711,-3.1524,-3.1368,-3.1368,-3.1747,-3.2281,-3.1736,-3.1606,-3.1534,-3.0616,-3.0855,-3.1607,-3.1187,-3.1481,-3.2071,-3.2292,-3.2034,-3.1492,-3.059,-3.0488,-3.0541,-2.9807,-3.0236,-3.077,-3.0007,-2.9988,-3.0176,-3.0176,-2.9884,-2.9602,-2.9602,-2.9265,-2.9083,-2.9532,-2.8254,-2.7045,-2.6849,-2.7818,-2.7987,-2.6146,-2.7411,-2.8605,-2.8665,-2.9226,-2.9602,-2.9602,-2.9602,-2.9602,-2.9602,-3.0023,-3.0146,-2.9713,-3.0131,-3.0238,-2.9915,-2.982,-2.9896,-3.008,-2.8898,-2.6877,0.0,0.0,0.0,0.0,0.0,0.0,0.0,0.0,0.0,0.0,0.0,0.0,0.0,0.0,0.0,0.0,0.0,0.0,0.0,0.0,0.0,0.0,0.0,0.0,0.0,0.0,-2.2694,-2.3365,-2.3989,-2.4467,-2.4648,-2.4875,-2.5087,-2.5259,-2.6341,-2.7122,-2.7495,-2.7522,-2.7889,-2.8636,-2.8615,-2.881,-2.9289,-2.9289,-2.9226,-2.9099,-2.9792,-3.0152,-3.0294,-3.1093,-3.1021,-3.0282,-3.141,-3.1281,-3.0275,-3.1021,-3.1732,-3.2357,-3.2404,-3.2377,-3.245,-3.2815,-3.2935,-3.2924,-3.3112,-3.2973,-3.2742,-3.2962,-3.315,-3.3309,-3.3309,-3.3309,-3.3214,-3.2823,-3.2563,-3.2244,-3.1652,-3.1175,-3.0792,-3.0539,-3.0358,-3.016,-2.996,-2.9401,-2.9056,-2.9507,-2.8942,-2.8057,-2.6989,-2.7832,-2.8029,-2.6188,-2.6975,-2.7734,-2.7777,-2.8282,-2.8661,-2.8661,-2.9237,-2.9696,-2.9898,-2.9574,-2.9651,-3.0254,-2.9988,-3.0002,-3.051,-2.9723,-2.942,-2.9697,-2.8355,-2.6483,-2.4019,0.0,0.0,0.0,0.0,0.0,0.0,0.0,0.0,0.0,0.0,0.0,0.0,0.0,0.0,0.0,0.0,0.0,0.0,0.0,0.0,0.0,0.0,0.0,-1.9957,-2.2293,-2.4106,-2.4123,-2.5191,-2.616,-2.6722,-2.6792,-2.7116,-2.7762,-2.7497,-2.7778,-2.8857,-2.8379,-2.8538,-2.9473,-2.9275,-2.9118,-2.9016,-2.9071,-2.9099,-2.9099,-2.9792,-3.0145,-3.0269,-3.1604,-3.0737,-2.8379,-3.1776,-3.1656,-2.9304,-3.1406,-3.226,-3.2209,-3.161,-3.1397,-3.1501,-3.228,-3.268,-3.2888,-3.3077,-3.3214,-3.3277,-3.3293,-3.3309,-3.3309,-3.3324,-3.3324,-3.334,-3.3356,-3.2939,-3.2376,-3.1769,-3.1612,-3.1424,-3.0791,-3.1117,-3.1395,-3.0732,-2.9102,-2.818,-2.9461,-2.9721,-2.9099,-2.7214,-2.6891,-2.6342,-2.4657,-2.4363,0.0,-2.4414,-2.5903,-2.6947,-2.6976,-2.8538,-2.9842,-3.0509,-2.8297,-2.8253,-3.1501,-2.9463,-2.9282,-3.1799,-2.9902,-2.8873,-2.8991,-2.6116,-2.5467,-2.7188,0.0,0.0,0.0,0.0,0.0,0.0,0.0,0.0,0.0,0.0,0.0,0.0,0.0,0.0,0.0,0.0,0.0,0.0,0.0,0.0,0.0,0.0,-2.2235,-2.1805,-2.3024,-2.4158,-2.4682,-2.5828,-2.654,-2.6509,-2.7127,-2.7572,-2.7717,-2.7972,-2.8296,-2.8809,-2.6944,-2.6301,-2.7259,-2.6552,-2.648,-2.714,-2.8436,-2.9099,-2.9099,-3.0222,-3.0822,-3.0935,-3.1712,-3.1434,-3.0417,-3.1365,-3.1065,-2.9975,-3.1049,-3.1507,-3.1482,-3.1332,-3.124,-3.1271,-3.1495,-3.1624,-3.1524,-3.0525,-3.1221,-3.2655,-3.3135,-3.3309,-3.3388,-3.3878,-3.402,-3.413,-3.4668,-3.4699,-3.4544,-3.4376,-3.4019,-3.3628,-3.3437,-3.3185,-3.2901,-3.272,-3.2258,-3.1976,-3.2373,-3.2446,-3.167,-2.9252,-2.9193,-2.9333,-2.8843,-2.9169,0.0,-2.9478,-2.9907,-3.038,-3.0881,-2.956,-2.9544,-3.1753,-2.9976,-2.9607,-3.1587,-3.1567,-3.1615,-3.1888,-3.1316,-3.1083,-3.1219,-2.8654,-2.7235,0.0,0.0,0.0,0.0,0.0,0.0,0.0,0.0,0.0,0.0,0.0,0.0,0.0,0.0,0.0,0.0,0.0,0.0,0.0,0.0,0.0,0.0,-2.218,-2.3617,-2.3874,-2.46,-2.527,-2.563,-2.6522,-2.711,-2.7156,-2.7635,-2.8077,-2.8255,-2.8547,-2.8775,-2.8926,-2.7502,-2.6587,-2.6321,-2.656,-2.6574,-2.6321,-2.8405,-2.9467,-2.9498,-3.0763,-3.1314,-3.117,-3.2059,-3.1539,-2.999,-3.146,-3.1191,-2.9832,-3.1128,-3.165,-3.165,0.0,0.0,0.0,0.0,-3.2092,-3.1956,-3.1094,-3.164,-3.2845,-3.3498,-3.3719,-3.3846,-3.4541,-3.4157,-3.3556,-3.3983,-3.3451,-3.2909,-3.3517,-3.3626,-3.3721,-3.433,-3.4414,-3.4236,-3.3969,-3.327,-3.2819,-3.3382,-3.2856,0.0,-3.1523,-3.1073,-3.0575,-2.9973,-2.983,-2.9784,-2.9811,-3.0138,-3.0483,-3.0859,-3.0148,-3.0413,-3.2304,-3.043,0.0,0.0,0.0,-3.157,-3.1493,-3.1467,0.0,0.0,0.0,-2.7708,-2.7711,-2.6472,0.0,0.0,-2.403,-2.2907,0.0,0.0,0.0,0.0,0.0,0.0,0.0,0.0,0.0,0.0,0.0,0.0,0.0,0.0,0.0,0.0,-2.2873,-2.4714,-2.5927,-2.6604,-2.6918,-2.6704,-2.7218,-2.7728,-2.8146,-2.8257,-2.8519,-2.9058,-2.9099,-2.9099,-2.9067,0.0,0.0,0.0,0.0,-2.7861,-2.6233,-2.8739,-3.0011,-3.0042,-3.1333,-3.1698,-3.1301,-3.2558,-3.1445,-2.8742,-3.1918,-3.1855,-2.9604,-3.1611,-3.2402,-3.2402,-3.2244,-3.2181,-3.2228,-3.2582,-3.2866,-3.3056,-3.2977,0.0,0.0,-3.4178,-3.4415,-3.4557,-3.5284,-3.4236,-3.2782,-3.2861,-3.1507,-3.0335,-3.1657,-3.2435,-3.3219,-3.4519,-3.5258,-3.5502,-3.4953,-3.3466,-3.2554,-3.3743,-3.2622,-3.2124,-3.4157,-3.2908,-3.1186,-2.9911,-2.8975,-2.8412,-2.8412,-2.906,-2.9492,-2.9466,-3.0664,0.0,-3.2545,-3.0315,-3.0248,-3.3463,-3.1632,-3.068,-3.1214,-3.126,-3.0219,-2.8024,-2.7736,-2.8137,-2.9163,-2.8905,-2.9107,-2.9627,-2.5375,-2.411,0.0,0.0,0.0,0.0,0.0,0.0,0.0,0.0,0.0,0.0,0.0,0.0,0.0,0.0,0.0,-2.3502,-2.4682,-2.5931,-2.7045,-2.772,-2.7905,-2.7386,-2.7739,-2.8094,-2.8188,-2.8643,-2.8975,-2.9085,-2.9099,-2.9035,-2.8876,-2.7042,-2.6097,-2.619,-2.5923,-2.5968,-2.6365,-2.8785,-3.0072,-3.0269,0.0,0.0,-3.217,-3.2938,-3.2603,-3.1564,-3.2771,-3.2677,-3.177,-3.2708,-3.3103,-3.2993,-3.1855,-3.1413,-3.1214,-2.9619,-3.0108,-3.1514,-3.0928,-3.1852,-3.3514,-3.4778,-3.5189,-3.5315,-3.6011,-3.5919,0.0,-3.634,-3.6213,-3.5947,-3.6227,-3.6395,-3.6579,-3.6857,-3.701,-3.7069,-3.6936,-3.6764,-3.666,-3.6723,-3.6822,-3.7034,-3.7463,-3.5666,-3.4194,-3.4157,-3.4388,-3.4497,-3.4229,-3.4319,-3.4331,-3.4132,-3.2394,-3.1982,-3.3779,-3.1463,-3.095,-3.3386,-3.3285,-3.3196,-3.3312,-3.3411,-3.3266,-3.2773,-3.27,-3.2434,-3.1932,-3.1755,-3.1286,-3.0522,-2.8975,-2.8072,0.0,0.0,0.0,0.0,0.0,0.0,0.0,0.0,0.0,0.0,0.0,-2.2127,0.0,0.0,-2.2696,-2.3457,-2.4313,-2.5465,-2.7111,-2.7919,-2.8155,-2.7757,-2.8161,-2.8469,-2.8406,-2.8666,-2.8844,-2.8844,-2.8908,-2.8908,-2.8812,-2.7878,-2.7014,-2.6217,-2.7208,-2.7454,-2.6849,-2.9725,-3.1261,-3.1348,-3.2382,-3.285,-3.285,-3.316,-3.3119,-3.2803,-3.3151,-3.3103,-3.2845,-3.3166,-3.3309,-3.323,-3.2534,-3.2266,-3.2114,-3.1047,-3.1536,-3.2708,-3.2335,-3.3156,-3.4525,-3.5568,-3.5916,-3.6042,-3.6738,-3.62,-3.5442,-3.5774,-3.5142,-3.4589,-3.5616,-3.5913,-3.6181,-3.7257,-3.751,-3.751,-3.751,-3.7714,-3.7857,-3.7743,-3.8078,-3.8448,-3.8572,-3.7632,-3.695,-3.7313,-3.7172,-3.6934,-3.6604,-3.6119,-3.5708,-3.5435,-3.3814,-3.3166,-3.4209,-3.2802,-3.2314,-3.3439,-3.3745,-3.3899,-3.3899,-3.4025,-3.4101,-3.4101,-3.4101,-3.3822,-3.3308,-3.3182,-3.2561,-3.1552,-3.1054,-3.0156,0.0,0.0,0.0,0.0,0.0,0.0,0.0,0.0,-2.3534,-2.2969,-2.3055,-2.3027,-2.2385,-2.2386,-2.2794,-2.3649,-2.4326,-2.5384,-2.7243,-2.798,-2.8257,-2.807,-2.8461,-2.8716,-2.8619,-2.8587,-2.8619,-2.8651,-2.8748,-2.8812,-2.8844,-2.9162,-2.856,-2.6884,-2.8999,-2.9446,-2.7937,-3.0726,-3.2216,-3.2425,-3.3011,-3.3309,-3.3309,-3.3309,-3.3309,-3.3309,-3.3309,-3.3309,-3.3309,-3.3309,-3.3309,-3.3309,-3.3309,-3.3388,-3.3498,-3.3498,-3.383,-3.4336,-3.4604,-3.5094,-3.571,-3.6377,-3.6598,-3.6708,-3.7306,-3.6308,-3.4905,-3.4905,-3.3719,-3.2819,-3.4478,-3.4905,-3.5375,-3.7099,-3.751,-3.751,-3.751,-3.7772,-3.7988,-3.7915,-3.8262,-3.8616,-3.8777,-3.886,-3.8985,-3.9272,-3.8599,-3.7964,-3.7622,-3.6846,-3.6142,-3.574,-3.4991,-3.4399,-3.4115,-3.3715,-3.345,-3.345,-3.3684,-3.3822,-3.3848,-3.4,-3.4075,-3.4101,-3.4101,-3.4025,-3.3848,-3.3745,-3.3252,-3.2445,-3.2216,-3.1221,-2.2871,-2.1148,-2.0408,-2.1215,-2.2532,-2.3399,0.0,0.0,-2.5052,-2.3409,-2.3959,-2.4747,-2.4635,-2.5375,-2.6242,-2.6867,-2.7403,-2.7933,-2.8561,-2.8684,-2.8684,-2.8524,-2.8578,-2.8619,-2.8587,-2.8587,-2.8651,-2.878,-2.878,-2.8876,-2.9067,-2.9099,-2.9111,-2.9045,-2.902,-2.9369,-3.0131,-3.0749,-3.1534,-3.2425,-3.3011,-3.3309,-3.3309,-3.3309,-3.3309,-3.3309,-3.3309,-3.3309,-3.3309,-3.3309,-3.3309,-3.3309,-3.3309,-3.3656,-3.4178,-3.4178,-3.4225,-3.4478,-3.5714,-3.6219,-3.6393,-3.7133,-3.7399,-3.7399,-3.7478,-3.7336,-3.7146,-3.7146,-3.6972,-3.6861,-3.7083,-3.7146,-3.7209,-3.7447,-3.751,-3.751,-3.751,-3.7934,-3.8262,-3.7943,-3.8611,-3.9094,-3.8832,-3.904,-3.9272,-3.9299,-3.9206,-3.9005,-3.869,-3.8337,-3.7782,-3.683,-3.5848,-3.4762,-3.3514,-3.334,-3.3335,-3.3335,-3.345,-3.3607,-3.372,-3.3848,-3.3975,-3.4101,-3.4101,-3.3975,-3.372,-3.371,-3.3455,-3.2997,-3.2384,-3.1616,-2.3441,-2.293,-2.2958,0.0,-2.4634,-2.553,-2.4876,-2.55,-2.5939,-2.4938,-2.5425,-2.6018,-2.5947,-2.5643,-2.595,0.0,-2.7048,-2.7028,-2.8498,-2.8748,-2.8748,-2.8619,-2.7976,-2.742,-2.7054,-2.7976,-2.8216,-2.7366,-2.8349,-2.9067,-2.9257,-2.9686,-3.0091,-3.0503,-3.1145,-3.1845,-3.2646,-3.2793,-3.3089,-3.3494,-3.3376,-3.3309,-3.3309,-3.3309,-3.3514,-3.3878,-3.3878,-3.4115,-3.451,-3.451,-3.451,-3.451,-3.451,-3.4683,-3.4873,-3.4446,-3.4826,-3.5616,-3.6187,-3.669,-3.7085,-3.7415,-3.751,-3.751,-3.751,-3.751,-3.751,-3.751,-3.751,-3.751,-3.751,-3.751,-3.751,-3.751,-3.751,-3.7524,-3.7714,-3.8091,-3.842,-3.8427,-3.8887,-3.9272,-3.9121,-3.9218,-3.9299,-3.9299,-3.9299,-3.9191,-3.8832,-3.8572,-3.7802,-3.6202,-3.5653,-3.4826,-3.3419,-3.3309,-3.3309,-3.3309,-3.3424,-3.3555,-3.3694,-3.3745,-3.3873,-3.4101,-3.4025,-3.3975,-3.3924,-3.3787,-3.3607,-3.345,-3.3008,-3.2615,-2.3563,-2.3792,-2.4244,-2.5073,-2.5894,-2.6521,-2.6465,-2.6377,-2.6301,-2.6132,-2.64,-2.6762,-2.7038,-2.6228,-2.607,-2.7855,-2.7045,-2.6783,-2.8375,-2.8683,-2.8607,-2.8139,-2.7339,-2.6291,-2.5032,-2.685,-2.7767,-2.6982,-2.8381,-2.9412,-2.9634,-3.0495,-3.1176,-3.1635,-3.2743,-3.3683,-3.4281,-3.4278,-3.438,-3.4589,-3.3909,-3.3577,-3.3577,-3.3577,-3.3941,-3.4589,-3.4589,-3.4905,-3.5394,-3.5394,-3.5394,-3.5394,-3.5394,-3.5505,-3.5616,-3.5078,-3.5537,-3.6424,-3.6614,-3.7054,-3.751,-3.751,-3.751,-3.751,-3.751,-3.751,-3.751,-3.751,-3.751,-3.751,-3.7539,-3.7569,-3.7569,-3.7569,-3.7583,-3.7671,-3.7857,-3.8189,-3.8516,-3.875,-3.9067,-3.9299,-3.9299,-3.9299,-3.9299,-3.9299,-3.9299,-3.9202,-3.8969,-3.8628,-3.7617,-3.5621,-3.5394,-3.4826,-3.3419,-3.3309,-3.3309,-3.3309,-3.3398,-3.3503,-3.3658,-3.3642,-3.3771,-3.405,-3.3949,-3.3924,-3.4,-3.3822,-3.372,-3.3658,-3.345,-3.3335,-2.2856,-2.2277,-2.2039,-2.457,-2.5048,-2.5112,-2.6091,-2.6096,-2.6034,-2.6497,-2.6479,-2.681,-2.8107,-2.8057,-2.8001,-2.8675,-2.8615,-2.8505,-2.8587,-2.8587,-2.8166,-2.6982,-2.682,-2.5627,0.0,-2.5127,-2.7356,-2.8616,-2.9383,-2.9904,-3.0262,-3.149,-3.2254,-3.246,-3.3009,-3.3683,-3.4488,-3.4295,-3.4572,-3.5347,-3.4604,-3.4257,-3.4257,-3.4257,-3.4668,-3.5363,-3.5363,-3.5363,-3.5394,-3.5394,-3.5394,-3.5394,-3.5394,-3.5805,-3.6361,-3.6345,-3.6361,-3.6503,-3.7212,-3.7494,-3.751,-3.751,-3.751,-3.751,-3.751,-3.751,-3.751,-3.751,-3.751,-3.7539,-3.7642,-3.77,-3.77,-3.77,-3.7788,-3.7889,-3.7886,-3.8258,-3.8639,-3.8777,-3.9067,-3.9299,-3.9299,-3.9299,-3.9299,-3.9299,-3.9299,-3.9299,-3.9299,-3.8755,-3.7617,-3.5621,-3.5394,-3.4826,-3.3419,-3.3309,-3.3309,-3.3309,-3.3293,-3.3388,-3.3503,-3.3503,-3.3617,-3.3899,-3.3899,-3.3848,-3.3694,-3.3822,-3.3745,-3.3503,-3.3503,-3.3424,-2.1833,-2.271,-2.383,-2.4713,-2.5537,-2.6176,-2.6397,-2.664,-2.6846,-2.6849,-2.6821,-2.6876,-2.7165,-2.6452,-2.6212,-2.7403,-2.6136,-2.5844,-2.8261,-2.6538,-2.5807,-2.7884,-2.6269,0.0,0.0,0.0,0.0,-2.6707,-2.919,-3.104,-3.1725,-3.254,-3.3454,-3.4454,-3.5033,-3.5722,-3.6489,-3.5931,-3.5799,-3.6074,-3.5363,-3.5015,-3.5015,-3.5015,-3.541,-3.6045,-3.6045,-3.6342,-3.6769,-3.6769,-3.6769,-3.6769,-3.6769,-3.6927,-3.7117,-3.7117,-3.7117,-3.7164,-3.7401,-3.751,-3.751,-3.751,-3.751,-3.751,-3.751,-3.751,-3.748,-3.7329,-3.7464,-3.7612,-3.7522,-3.7492,-3.7492,-3.7492,-3.7551,-3.7639,-3.7857,-3.8189,-3.8544,-3.875,-3.8887,-3.8969,-3.8969,-3.9023,-3.9148,-3.9272,-3.9299,-3.9164,-3.8755,-3.8532,-3.7617,-3.5621,-3.5394,-3.4826,-3.3419,-3.3309,-3.3309,-3.3309,-3.3309,-3.3346,-3.3503,-3.3398,-3.3503,-3.3745,-3.3771,-3.3771,-3.3822,-3.3873,-3.3797,-3.3617,-3.3555,-3.3424,-2.2353,-2.3632,-2.4975,-2.5415,-2.6063,-2.665,-2.6759,-2.6914,-2.7173,-2.7541,-2.7554,-2.7411,-2.7041,-2.6106,-2.5772,-2.7039,-2.5502,-2.5237,-2.8325,-2.6666,-2.5875,-2.795,-2.6401,-2.5954,0.0,0.0,0.0,-2.6326,-2.9044,-3.1062,-3.1743,-3.2779,-3.4116,-3.5768,-3.646,-3.7013,-3.751,-3.7022,-3.6645,-3.6393,-3.5963,-3.5758,-3.5758,-3.5758,-3.5572,-3.5322,-3.6345,-3.6472,-3.6045,-3.7069,-3.751,-3.751,-3.751,-3.751,-3.751,-3.751,-3.751,-3.751,-3.751,-3.751,-3.751,-3.751,-3.7435,-3.7405,-3.7405,-3.7345,-3.7301,-3.715,-3.7359,-3.7596,-3.7522,-3.761,-3.7669,-3.7551,-3.7639,-3.777,-3.7886,-3.8205,-3.8532,-3.875,-3.8805,-3.8805,-3.8805,-3.8914,-3.905,-3.9175,-3.9245,-3.911,-3.86,-3.8316,-3.7522,-3.5879,-3.5445,-3.4786,-3.3546,-3.345,-3.3398,-3.3309,-3.3309,-3.3319,-3.3424,-3.3361,-3.3398,-3.3617,-3.3633,-3.3694,-3.3822,-3.3771,-3.3745,-3.3771,-3.3529,-3.3424,-2.4074,-2.4869,-2.5364,-2.65,-2.658,-2.6538,-2.7181,-2.7004,-2.7084,-2.8366,-2.843,-2.8088,0.0,0.0,-2.6383,-2.7379,-2.6457,-2.6399,-2.8622,-2.8593,-2.803,0.0,0.0,0.0,0.0,0.0,0.0,-2.7591,0.0,-3.0395,-3.0773,-3.2477,-3.437,-3.6399,-3.715,-3.751,-3.751,-3.751,-3.7148,-3.6456,-3.6456,-3.6456,-3.6456,-3.6456,-3.5354,-3.3581,-3.6298,-3.5951,-3.3644,-3.6361,-3.751,-3.751,-3.751,-3.751,-3.751,-3.751,-3.751,-3.751,-3.751,-3.751,-3.751,-3.748,-3.7359,-3.7224,-3.7178,-3.7119,-3.703,-3.7015,-3.721,-3.7476,-3.7655,-3.7934,-3.8078,-3.7759,-3.802,-3.8262,-3.7943,-3.8246,-3.8616,-3.875,-3.8777,-3.8777,-3.8805,-3.8887,-3.8969,-3.8996,-3.9115,-3.9098,-3.8783,-3.8133,-3.7306,-3.6248,-3.5505,-3.4723,-3.3784,-3.3684,-3.3581,-3.3335,-3.3309,-3.3309,-3.3309,-3.3309,-3.3346,-3.3477,-3.3503,-3.3555,-3.3684,-3.3581,-3.3658,-3.3873,-3.3477,-3.3424,-2.2802,-2.4495,-2.641,-2.6733,-2.7074,-2.7384,-2.7557,-2.8054,-2.8337,-2.7883,-2.6901,-2.5786,0.0,0.0,0.0,-2.4938,-2.3408,0.0,-2.6249,-2.5611,0.0,-2.6446,0.0,-2.7337,-2.925,-3.0676,0.0,0.0,-3.1856,-3.3698,-3.4819,-3.534,-3.609,-3.7194,-3.7405,-3.751,-3.751,-3.751,-3.7415,-3.7212,-3.7212,-3.7212,-3.7212,-3.7212,-3.6927,-3.6424,-3.7164,-3.7069,-3.6469,-3.718,-3.751,-3.751,-3.751,-3.751,-3.751,-3.751,-3.751,-3.751,-3.751,-3.751,-3.748,-3.7329,-3.7329,-3.7375,-3.7135,-3.7255,-3.7464,-3.721,-3.7567,-3.7976,-3.7873,-3.7727,-3.7581,-3.7492,-3.7565,-3.7623,-3.7565,-3.8017,-3.8448,-3.8504,-3.8504,-3.8516,-3.8628,-3.8672,-3.8738,-3.8832,-3.8487,-3.8142,-3.7986,-3.7822,-3.7084,-3.5558,-3.5031,-3.4514,-3.3758,-3.3529,-3.3372,-3.3293,-3.3309,-3.3309,-3.3309,-3.3309,-3.3335,-3.3346,-3.345,-3.3529,-3.3555,-3.3633,-3.3617,-3.3607,-3.3398,-3.3335,-2.4161,-2.5415,-2.6806,-2.6806,-2.7258,-2.7623,-2.7389,-2.7877,-2.8082,-2.6915,-2.6232,0.0,-2.3836,0.0,0.0,0.0,0.0,0.0,-2.5694,-2.5229,-2.5011,0.0,-2.6408,0.0,-3.0638,-3.1775,-3.2416,0.0,-3.3397,-3.4238,-3.5076,-3.5344,-3.6089,-3.7449,-3.751,-3.751,-3.751,-3.751,-3.751,-3.751,-3.751,-3.7553,-3.7685,-3.7553,-3.6859,-3.5836,-3.7001,-3.6785,-3.5701,-3.6975,-3.751,-3.751,-3.751,-3.751,-3.751,-3.751,-3.7539,-3.7599,-3.7599,-3.7628,-3.7612,-3.7314,-3.718,-3.7135,-3.703,-3.7181,-3.7375,-3.7224,-3.761,-3.8033,-3.7915,-3.7857,-3.7815,-3.7653,-3.7711,-3.7815,-3.7653,-3.8017,-3.8391,-3.8391,-3.8391,-3.842,-3.8504,-3.856,-3.8502,-3.827,-3.7975,-3.7554,-3.6872,-3.6826,-3.6514,-3.5584,-3.4971,-3.441,-3.3905,-3.3633,-3.3424,-3.3309,-3.3309,-3.3309,-3.3309,-3.3309,-3.3309,-3.3309,-3.3372,-3.3398,-3.3398,-3.3388,-3.3372,-3.3398,-3.3134,-3.3107,-2.6195,-2.6591,-2.6835,-2.6895,-2.7389,-2.771,-2.7273,-2.7339,-2.7144,-2.5877,0.0,-2.5494,-2.3803,-2.2879,-2.3107,-2.5479,0.0,-2.3795,-2.5273,-2.5764,-2.6009,-2.6048,-2.6284,-2.7806,-3.1293,-3.2,-3.3149,-3.5377,-3.4485,-3.3929,-3.403,-3.4466,-3.5596,-3.7447,-3.751,-3.751,-3.751,-3.751,-3.751,-3.751,-3.751,-3.7612,-3.7828,-3.7612,-3.628,-3.425,-3.6521,-3.6105,-3.3959,-3.6456,-3.751,-3.751,-3.751,-3.751,-3.751,-3.751,-3.7583,-3.77,-3.77,-3.7788,-3.7817,-3.7403,-3.7074,-3.6877,-3.7014,-3.709,-3.7181,-3.7254,-3.7623,-3.7943,-3.7915,-3.8103,-3.8234,-3.7915,-3.8075,-3.8234,-3.7972,-3.816,-3.8391,-3.8391,-3.8391,-3.8391,-3.8391,-3.8439,-3.8202,-3.7563,-3.7443,-3.7009,-3.5733,-3.572,-3.5811,-3.5835,-3.5021,-3.4399,-3.4126,-3.3848,-3.3581,-3.3335,-3.3309,-3.3309,-3.3309,-3.3309,-3.3309,-3.3309,-3.3309,-3.3309,-3.3309,-3.3085,-3.3085,-3.3335,-3.2866,-3.2893,-2.4713,-2.5535,-2.691,-2.7405,-2.8042,-2.8623,-2.9,-2.8293,0.0,0.0,-2.4471,-2.329,-2.3051,-2.2755,-2.2776,-2.3445,0.0,0.0,0.0,0.0,-2.5784,0.0,0.0,0.0,0.0,0.0,0.0,0.0,-3.6565,-3.678,-3.681,-3.6898,-3.713,-3.7494,-3.751,-3.751,-3.751,-3.751,-3.751,-3.751,-3.751,-3.7539,-3.7553,-3.7642,-3.7358,-3.6872,-3.7406,0.0,-3.6801,-3.7275,-3.751,-3.751,-3.751,-3.751,-3.751,-3.751,-3.7583,-3.77,-3.77,-3.77,-3.773,-3.7642,-3.7642,-3.7655,-3.7403,-3.7655,-3.7963,-3.7815,-3.8046,-3.8234,-3.7972,-3.7943,-3.7886,-3.7565,-3.774,-3.7972,-3.7915,-3.816,-3.8391,-3.8391,-3.8391,-3.8391,-3.8391,-3.7906,-3.7496,-3.735,-3.6356,-3.5591,-3.5449,-3.5645,-3.5564,-3.5003,-3.4676,-3.4399,-3.4126,-3.3848,-3.3581,-3.3335,-3.3309,-3.3309,-3.3309,-3.3309,-3.3309,-3.3309,-3.3309,-3.3309,-3.3309,-3.3256,-3.3293,-3.345,-3.3043,-3.3069,-2.4341,-2.5274,-2.6924,-2.755,-2.8202,-2.852,-2.7795,0.0,0.0,0.0,-2.327,-2.2719,-2.249,0.0,0.0,0.0,0.0,0.0,0.0,0.0,0.0,0.0,0.0,0.0,0.0,0.0,0.0,-3.4571,-3.5433,-3.6324,-3.7447,-3.751,-3.751,-3.751,-3.751,-3.751,-3.751,-3.751,-3.751,-3.751,-3.751,-3.7583,-3.7714,-3.7642,-3.7671,-3.7786,-3.7671,-3.698,-3.6073,-3.7081,-3.6846,-3.596,-3.7067,-3.751,-3.751,-3.751,-3.7524,-3.7522,-3.7522,-3.7655,-3.7786,-3.7786,-3.7727,-3.7639,-3.7551,-3.7786,-3.8062,-3.8062,-3.8205,-3.8363,-3.8205,-3.8177,-3.8103,-3.796,-3.8046,-3.8177,-3.8177,-3.8307,-3.8391,-3.8391,-3.8391,-3.8278,-3.7906,-3.7522,-3.7036,-3.6319,-3.5623,-3.5065,-3.4769,-3.4896,-3.4915,-3.4643,-3.4349,-3.4126,-3.4,-3.3684,-3.345,-3.3309,-3.3309,-3.3309,-3.3309,-3.3309,-3.3309,-3.3309,-3.3309,-3.3309,-3.3309,-3.3229,-3.3229,-3.3282,-3.3096,-3.3069,-2.4757,-2.5593,-2.6968,-2.7737,-2.8303,-2.8302,-2.6777,-2.6515,0.0,0.0,-2.2562,-2.2649,-2.2439,0.0,0.0,0.0,0.0,0.0,0.0,0.0,0.0,0.0,0.0,0.0,0.0,0.0,0.0,-3.4065,-3.4689,-3.5739,-3.7415,-3.751,-3.751,-3.751,-3.751,-3.751,-3.7539,-3.751,-3.751,-3.7539,-3.751,-3.7612,-3.7815,-3.7671,-3.7743,-3.8059,-3.7788,-3.6508,-3.4808,-3.6727,-3.6273,-3.4494,-3.6672,-3.751,-3.7539,-3.7464,-3.7478,-3.7565,-3.7476,-3.7682,-3.8017,-3.8017,-3.7828,-3.7623,-3.7801,-3.7918,-3.8046,-3.8193,-3.8323,-3.8363,-3.8307,-3.8335,-3.8391,-3.8391,-3.8391,-3.8391,-3.8391,-3.8391,-3.8391,-3.8391,-3.8278,-3.7987,-3.7392,-3.7036,-3.6481,-3.5373,-3.5082,-3.4748,-3.4165,-3.4201,-3.43,-3.4349,-3.4151,-3.3949,-3.3899,-3.3565,-3.3346,-3.3293,-3.3309,-3.3309,-3.3309,-3.3309,-3.3309,-3.3309,-3.3309,-3.3309,-3.3309,-3.3203,-3.315,-3.3176,-3.3123,-3.3058,-2.6083,-2.6649,-2.7096,-2.8317,-2.8665,-2.8665,-2.8476,0.0,0.0,-2.4007,-2.2846,-2.241,-2.3514,-2.4519,-2.4995,0.0,0.0,0.0,0.0,0.0,0.0,0.0,0.0,0.0,0.0,0.0,0.0,-3.6839,-3.718,-3.7304,-3.7494,-3.751,-3.751,-3.751,-3.751,-3.7569,-3.7671,-3.7569,-3.7569,-3.7671,-3.7569,-3.751,-3.7524,-3.7759,-3.7889,-3.7915,-3.8062,-3.6874,0.0,-3.6899,-3.6359,-3.4494,-3.6672,-3.7553,-3.7642,-3.7344,-3.7626,-3.8078,-3.7788,-3.7963,-3.8335,-3.8335,-3.8335,-3.8307,-3.8335,-3.8335,-3.8363,-3.8363,-3.8391,-3.8335,-3.8001,-3.8177,-3.8391,-3.8391,-3.8391,-3.8391,-3.8391,-3.8391,-3.8391,-3.8391,-3.7873,-3.7376,-3.7295,-3.6238,-3.5357,-3.5228,-3.4619,-3.4182,-3.4117,-3.4126,-3.4075,-3.3975,-3.4151,-3.4176,-3.3924,-3.3745,-3.3555,-3.3335,-3.3309,-3.3309,-3.3309,-3.3309,-3.3309,-3.3309,-3.3309,-3.3309,-3.3309,-3.3282,-3.3346,-3.345,-3.3203,-3.315,-2.3412,-2.4974,-2.7111,-2.8389,-2.8709,-2.8505,-2.7735,0.0,-2.5893,-2.4147,-2.3113,-2.279,-2.3629,-2.4104,-2.435,0.0,0.0,0.0,0.0,0.0,0.0,0.0,0.0,0.0,0.0,0.0,-3.3072,-3.5394,-3.6008,-3.6624,-3.7462,-3.751,-3.751,-3.751,-3.751,-3.7553,-3.77,-3.7569,-3.7628,-3.7817,-3.7599,-3.7583,-3.773,-3.7759,-3.7934,-3.8205,-3.816,-3.6469,0.0,-3.6798,-3.613,-3.3618,-3.6596,-3.7759,-3.7817,-3.7685,-3.7759,-3.7876,-3.7746,-3.786,-3.8103,-3.8103,-3.8234,-3.8391,-3.8391,-3.8391,-3.8391,-3.8391,-3.8391,-3.8363,-3.8234,-3.8307,-3.8391,-3.8391,-3.8391,-3.8391,-3.8391,-3.8391,-3.8278,-3.7825,-3.7489,-3.702,-3.6173,-3.5558,-3.5049,-3.4586,-3.4279,-3.4101,-3.4101,-3.4101,-3.4075,-3.4025,-3.3975,-3.3848,-3.3684,-3.3529,-3.3398,-3.3309,-3.3309,-3.3309,-3.3309,-3.3309,-3.3309,-3.3309,-3.3309,-3.3309,-3.3309,-3.3309,-3.3335,-3.3372,-3.3346,-3.3335,-2.2387,-2.4501,-2.7331,-2.8433,-2.8502,-2.8031,0.0,0.0,-2.5624,-2.3999,-2.326,-2.3098,-2.3752,-2.3831,-2.396,0.0,0.0,-2.6191,0.0,0.0,0.0,0.0,0.0,0.0,0.0,-3.3381,-3.4382,-3.5185,-3.571,-3.6466,-3.7462,-3.751,-3.751,-3.751,-3.751,-3.7583,-3.7759,-3.7628,-3.77,-3.7992,-3.773,-3.7494,-3.7297,-3.7684,-3.7809,-3.7776,-3.8068,-3.6497,0.0,-3.6927,-3.6242,-3.3624,-3.6718,-3.7934,-3.7992,-3.7876,-3.7876,-3.7873,-3.7735,-3.7765,-3.7915,-3.7855,-3.7998,-3.8193,-3.8193,-3.8285,-3.8391,-3.8391,-3.8391,-3.8391,-3.8391,-3.8391,-3.8391,-3.8391,-3.8391,-3.8343,-3.8116,-3.8068,-3.7873,-3.7161,-3.6837,-3.6367,-3.5373,-3.5033,-3.4683,-3.4182,-3.4101,-3.4101,-3.4101,-3.4101,-3.4075,-3.405,-3.3873,-3.3694,-3.3581,-3.3398,-3.3309,-3.3309,-3.3309,-3.3309,-3.3309,-3.3309,-3.3309,-3.3309,-3.3309,-3.3309,-3.3309,-3.3309,-3.3309,-3.3309,-3.3398,-3.3388,-2.4422,-2.6257,-2.784,-2.8549,-2.7991,-2.7218,0.0,0.0,-2.4268,-2.3708,-2.3231,-2.3201,-2.4114,-2.4281,-2.4426,-2.4839,-2.5579,0.0,0.0,0.0,0.0,0.0,0.0,0.0,0.0,-3.6535,-3.761,-3.7478,-3.7478,0.0,-3.751,-3.751,-3.751,-3.751,-3.751,-3.7628,-3.7905,-3.7759,-3.7892,-3.8209,-3.7992,-3.7169,-3.5886,-3.7464,-3.7459,-3.6287,-3.776,-3.7204,0.0,-3.7406,-3.6853,-3.4985,-3.7086,-3.802,-3.8151,-3.7817,-3.7992,-3.8322,-3.7807,-3.7781,-3.7963,-3.7767,-3.7701,-3.7701,-3.7701,-3.8037,-3.8391,-3.8391,-3.8391,-3.8391,-3.8391,-3.8391,-3.8391,-3.8391,-3.8391,-3.8197,-3.7457,-3.7295,-3.7101,-3.6448,-3.572,-3.5228,-3.5211,-3.4586,-3.4117,-3.4101,-3.4101,-3.4101,-3.4101,-3.4101,-3.405,-3.3924,-3.3899,-3.3848,-3.371,-3.345,-3.3309,-3.3309,-3.3309,-3.3309,-3.3309,-3.3309,-3.3309,-3.3309,-3.3309,-3.3309,-3.3309,-3.3309,-3.3309,-3.3309,-3.3309,-3.3229,-2.239,-2.3775,-2.5347,-2.5997,-2.5942,-2.5626,-2.5242,0.0,-2.4726,-2.4254,-2.4,-2.4057,-2.4715,-2.4759,-2.4759,-2.4883,-2.6198,0.0,0.0,0.0,0.0,0.0,0.0,0.0,0.0,0.0,-3.6511,-3.7431,-3.6695,-3.6626,-3.7594,-3.773,-3.7671,-3.751,-3.7599,-3.773,-3.7905,-3.7876,-3.7992,-3.8335,-3.8049,-3.7283,-3.6201,-3.7564,-3.7559,-3.6478,-3.7915,-3.7633,-3.6244,-3.7822,-3.7436,-3.5991,-3.7621,-3.8278,-3.8307,-3.8221,-3.8163,-3.8093,-3.7926,-3.7825,-3.7776,-3.7728,-3.7708,-3.7708,-3.7708,-3.7785,-3.8019,-3.8537,-3.8401,-3.8206,-3.8567,-3.8547,-3.8346,-3.8177,-3.828,-3.8197,-3.7441,-3.7295,-3.6967,-3.5768,-3.5373,-3.5049,-3.4538,-3.4246,-3.4101,-3.4101,-3.4101,-3.4101,-3.4101,-3.4101,-3.4075,-3.405,-3.3949,-3.3873,-3.3848,-3.3607,-3.3477,-3.3581,-3.3398,-3.3309,-3.3309,-3.3309,-3.3309,-3.3309,-3.3309,-3.3309,-3.3309,-3.3309,-3.3309,-3.3309,-3.3398,-3.3346,0.0,-2.2957,-2.4478,-2.4898,-2.4738,0.0,0.0,0.0,-2.4307,-2.4552,-2.4637,-2.4803,-2.5213,-2.5091,-2.4863,-2.4783,-2.6639,0.0,0.0,0.0,0.0,0.0,0.0,0.0,0.0,-3.5979,-3.6476,-3.7562,-3.6918,-3.6864,-3.774,-3.7847,-3.7817,-3.7658,-3.773,-3.7847,-3.802,-3.802,-3.8135,-3.8391,-3.8193,-3.7468,-3.6351,-3.7676,-3.7603,-3.6484,-3.7915,-3.8028,0.0,-3.8123,-3.7898,-3.7108,-3.7867,-3.8177,-3.815,-3.8157,-3.8044,-3.787,-3.7785,-3.7648,-3.7523,-3.7456,-3.7437,-3.7437,-3.7437,-3.7744,-3.8205,-3.8668,-3.8782,-3.8773,-3.8797,-3.8757,-3.857,-3.8017,-3.8132,-3.8107,-3.7014,-3.6858,-3.6513,-3.5056,-3.4764,-3.4635,-3.4182,-3.4101,-3.4101,-3.4101,-3.4101,-3.4101,-3.4101,-3.4101,-3.4101,-3.4101,-3.4025,-3.4,-3.405,-3.3694,-3.3503,-3.3555,-3.3398,-3.3309,-3.3309,-3.3309,-3.3309,-3.3309,-3.3309,-3.3309,-3.3309,-3.3309,-3.3309,-3.3309,-3.3372,-3.3372,0.0,0.0,0.0,0.0,0.0,0.0,0.0,0.0,0.0,-2.4618,-2.5123,-2.5368,-2.5577,-2.5323,-2.4983,-2.4638,0.0,0.0,0.0,0.0,0.0,0.0,0.0,0.0,-3.5621,-3.6591,-3.7307,-3.7857,-3.7905,-3.7934,-3.7934,-3.7934,-3.7934,-3.7934,-3.7934,-3.802,-3.8209,-3.8209,-3.8246,-3.8246,-3.8359,-3.7614,-3.6206,-3.7711,-3.763,0.0,-3.7792,-3.842,-3.8455,-3.8329,-3.8258,-3.8228,-3.7961,-3.7848,-3.7773,-3.7722,-3.7699,-3.7642,-3.7408,-3.7292,-3.7245,-3.7061,-3.7007,-3.7007,-3.706,-3.7845,-3.8773,-3.8824,-3.9376,-3.9799,-3.9044,-3.8992,-3.8916,-3.7924,-3.8027,-3.7916,-3.6347,-3.6133,-3.587,-3.4441,-3.4133,-3.4101,-3.4101,-3.4101,-3.4101,-3.4101,-3.4101,-3.4101,-3.4101,-3.4101,-3.4101,-3.4101,-3.4101,-3.4151,-3.425,-3.3797,-3.3477,-3.3361,-3.3335,-3.3309,-3.3309,-3.3309,-3.3309,-3.3309,-3.3309,-3.3309,-3.3309,-3.3309,-3.3309,-3.3309,-3.3309,-3.3309,-2.1422,0.0,-2.2311,-2.2871,-2.2413,0.0,0.0,0.0,0.0,0.0,0.0,0.0,0.0,0.0,0.0,0.0,0.0,0.0,0.0,0.0,0.0,0.0,0.0,-3.4327,-3.4398,-3.5931,-3.7194,-3.7841,-3.8049,-3.8135,-3.8135,-3.8221,-3.8278,-3.8278,-3.8278,-3.8266,-3.8209,-3.8294,-3.7829,-3.6821,-3.789,-3.708,-3.47,-3.7242,-3.763,-3.6384,-3.7792,-3.8628,-3.9017,-3.8997,-3.8888,-3.8804,-3.8625,-3.8234,-3.7773,-3.7722,-3.7555,-3.7391,-3.733,-3.7199,-3.7058,-3.702,-3.7007,-3.7112,-3.7672,-3.8035,-3.839,-3.9016,-3.9461,-3.9674,-3.9294,-3.9035,-3.8706,-3.7887,-3.7784,-3.7702,-3.711,-3.6453,-3.5785,-3.5094,-3.4489,-3.4101,-3.4101,-3.4101,-3.4101,-3.4101,-3.4101,-3.4101,-3.4101,-3.4101,-3.4101,-3.4101,-3.4101,-3.4075,-3.4,-3.3771,-3.3684,-3.3745,-3.3477,-3.3309,-3.3309,-3.3309,-3.3309,-3.3309,-3.3309,-3.3309,-3.3309,-3.3309,-3.3309,-3.3309,-3.3309,-3.3309,-2.1294,-2.1278,-2.1552,-2.2653,-2.2345,-2.2118,0.0,0.0,0.0,0.0,0.0,0.0,0.0,0.0,0.0,0.0,0.0,0.0,0.0,0.0,0.0,0.0,0.0,-3.2482,0.0,-3.5363,-3.7026,-3.8055,-3.8221,-3.8278,-3.8278,-3.8379,-3.8391,-3.8391,-3.8391,-3.8379,-3.8278,-3.8363,-3.7695,-3.6319,-3.7728,-3.7242,-3.5185,-3.7388,-3.7987,-3.7258,-3.7188,-3.7951,-3.9116,-3.8245,-3.8282,-3.8877,-3.8693,-3.8178,-3.7564,-3.7473,-3.7318,-3.7162,-3.7162,-3.7103,-3.7007,-3.7007,-3.7235,-3.7584,-3.7988,-3.862,-3.9287,-3.9726,-4.0202,-4.0379,-3.9518,-3.9247,-3.8897,-3.7659,-3.7552,-3.758,-3.7085,-3.6679,-3.6182,-3.5363,-3.4887,-3.4489,-3.4165,-3.4317,-3.4423,-3.4151,-3.4569,-3.4816,-3.4545,-3.4521,-3.4617,-3.4887,-3.4673,-3.4617,-3.4816,-3.4585,-3.4333,-3.4101,-3.4034,-3.3993,-3.3993,-3.3993,-3.3882,-3.3668,-3.3424,-3.3309,-3.3309,-3.3309,-3.3309,-3.3309,-3.3309,-3.3309,-2.1131,-2.1197,-2.1681,-2.3253,-2.2945,-2.2653,0.0,0.0,0.0,0.0,0.0,0.0,0.0,0.0,0.0,0.0,0.0,0.0,0.0,0.0,0.0,0.0,-2.8925,0.0,-3.2845,-3.5037,-3.6886,-3.8294,-3.8391,-3.8391,-3.8391,-3.8391,-3.8391,-3.8391,-3.8391,-3.8391,-3.8391,-3.8391,-3.7695,-3.6319,-3.7728,-3.7718,-3.6468,-3.7882,-3.8572,-3.8569,-3.703,-3.7517,-3.9332,-3.7661,-3.7758,-3.8915,-3.8654,-3.8037,-3.7278,-3.7147,-3.7068,-3.7007,-3.7007,-3.7007,-3.7025,-3.713,-3.7584,-3.8164,-3.8392,-3.941,-4.0502,-4.0502,-4.1025,-4.1253,-3.9687,-3.946,-3.9188,-3.7475,-3.7314,-3.7424,-3.6884,-3.6829,-3.6605,-3.5635,-3.5337,-3.5076,-3.448,-3.4816,-3.4965,-3.4464,-3.526,-3.5715,-3.5203,-3.5134,-3.5317,-3.5864,-3.5431,-3.534,-3.5864,-3.5637,-3.5209,-3.461,-3.4714,-3.4793,-3.4793,-3.4738,-3.4537,-3.4209,-3.3607,-3.3319,-3.3424,-3.3319,-3.3309,-3.3309,-3.3309,-3.3309,-2.0312,-2.0747,-2.1779,-2.3852,-2.2896,-2.2167,0.0,0.0,0.0,0.0,0.0,0.0,0.0,0.0,0.0,0.0,0.0,0.0,0.0,0.0,0.0,-2.9696,0.0,-3.3453,-3.3865,-3.5354,-3.6886,-3.8294,-3.8391,-3.8391,-3.8391,-3.8391,-3.8391,-3.8391,-3.8391,-3.8391,-3.8391,-3.8391,-3.7695,-3.6319,-3.7728,-3.7905,-3.7017,-3.8428,-3.9322,-3.9732,-3.9455,-3.9806,-4.0535,-4.0238,-3.9874,-3.9458,-3.937,-3.8492,-3.7278,-3.7147,-3.7068,-3.7007,-3.7007,-3.7007,-3.7112,-3.7725,-3.8023,-3.8357,-3.9729,-4.0309,-4.0502,-4.0502,-4.1025,-4.1253,-3.9687,-3.9329,-3.9006,-3.7586,-3.7175,-3.7189,-3.7458,-3.6928,-3.6437,-3.6529,-3.6038,-3.5611,-3.5621,-3.5693,-3.5715,-3.5627,-3.5781,-3.5864,-3.5759,-3.5759,-3.5803,-3.5885,-3.5803,-3.5803,-3.589,-3.6105,-3.6105,-3.5842,-3.5191,-3.4793,-3.4793,-3.4415,-3.4366,-3.469,-3.3781,-3.3529,-3.3975,-3.3529,-3.3309,-3.3309,-3.3309,-3.3309,-2.0055,-2.0393,-2.1407,-2.4369,-2.3479,-2.275,0.0,0.0,0.0,0.0,0.0,0.0,0.0,0.0,0.0,0.0,0.0,-3.1906,-3.1121,-3.1591,-3.16,0.0,0.0,-3.3088,-3.3411,-3.5192,-3.6886,-3.8294,-3.8391,-3.8391,-3.8391,-3.8391,-3.8391,-3.8391,-3.8391,-3.8391,-3.8391,-3.8391,-3.7695,-3.6319,-3.7728,-3.7932,-3.7144,-3.8543,-3.9506,-3.9935,-3.8959,-3.9414,-4.0722,-3.9745,-3.9452,-3.9595,-3.9572,-3.864,-3.7336,-3.7166,-3.7068,-3.706,-3.7444,-3.7584,-3.7725,-3.8497,-3.876,-3.8901,-3.9638,-3.9849,-3.9849,-3.9849,-4.0411,-4.0639,-3.9059,-3.8634,-3.84,-3.739,-3.7076,-3.7088,-3.7398,-3.7134,-3.6822,-3.6707,-3.648,-3.6191,-3.5849,-3.6088,-3.6236,-3.5933,-3.6419,-3.6701,-3.6361,-3.6319,-3.646,-3.6781,-3.6522,-3.6464,-3.6781,-3.6876,-3.6753,-3.6444,-3.5902,-3.5599,-3.5599,-3.5161,-3.488,-3.4793,-3.4109,-3.3694,-3.3684,-3.3424,-3.3309,-3.3309,-3.3309,-3.3309,-1.978,-2.0183,-2.1213,-2.4319,0.0,0.0,0.0,0.0,0.0,0.0,0.0,0.0,0.0,0.0,0.0,0.0,-3.1461,-3.3356,-3.2611,-3.2498,-3.2263,-3.165,-3.2279,-3.3008,-3.3629,-3.5425,-3.7064,-3.8311,-3.8391,-3.8391,-3.8391,-3.8391,-3.8391,-3.8391,-3.8391,-3.8391,-3.8391,-3.8391,-3.7857,-3.6805,-3.789,-3.8177,-3.7828,-3.8902,-3.9749,-4.0314,-3.8917,-3.9316,-4.0891,-3.9489,-3.9268,-3.982,-3.982,-3.8925,-3.7583,-3.7448,-3.7332,-3.7376,-3.8128,-3.8392,-3.8497,-3.9091,-3.9284,-3.9284,-3.9284,-3.9284,-3.9249,-3.9056,-3.9463,-3.9659,-3.8427,-3.8111,-3.7918,-3.7183,-3.7007,-3.7048,-3.7199,-3.7236,-3.7133,-3.6771,-3.6833,-3.6749,-3.6191,-3.6545,-3.6783,-3.6357,-3.7034,-3.743,-3.696,-3.6902,-3.7094,-3.7558,-3.7188,-3.7094,-3.7558,-3.741,-3.7161,-3.6786,-3.6464,-3.6301,-3.6301,-3.5727,-3.5276,-3.4981,-3.4267,-3.3771,-3.3477,-3.3346,-3.3309,-3.3309,-3.3309,-3.3309,-1.9124,-2.0119,-2.1617,-2.3253,-2.3026,0.0,-2.7737,-2.5975,0.0,-2.8001,0.0,0.0,0.0,0.0,0.0,0.0,-3.1963,-3.2579,-3.3777,0.0,-3.3939,-3.3874,-3.4505,-3.525,-3.5969,-3.6761,-3.7538,-3.8343,-3.8391,-3.8391,-3.8391,-3.8391,-3.8391,-3.8391,-3.8391,-3.8391,-3.8391,-3.8391,-3.8359,-3.8246,-3.8359,-3.8903,-3.98,-3.9902,-4.0497,-4.1475,-4.1345,-4.1402,-4.1542,-4.1389,-4.102,-4.0528,-4.0528,-3.9594,-3.8219,-3.8236,-3.8121,-3.8146,-3.8933,-3.9196,-3.9213,-3.9266,-3.9284,-3.9284,-3.9284,-3.9284,-3.9126,-3.8409,-3.8234,-3.8251,-3.8128,-3.8111,-3.7918,-3.7183,-3.7007,-3.6987,-3.702,-3.7018,-3.7038,-3.7062,-3.7177,-3.7273,-3.7279,-3.7411,-3.7522,-3.7467,-3.754,-3.7577,-3.754,-3.754,-3.7558,-3.7613,-3.7558,-3.7558,-3.7613,-3.741,-3.7201,-3.6987,-3.655,-3.6301,-3.6301,-3.5374,-3.5052,-3.5526,-3.4102,-3.3565,-3.405,-3.3555,-3.3309,-3.3309,-3.3309,-3.3309,-1.8874,-1.9431,-2.0651,-2.3979,0.0,0.0,0.0,-2.6037,-2.5149,-2.8746,-2.6947,0.0,0.0,0.0,0.0,-3.1066,-3.2449,-3.3485,-3.4036,-3.4101,-3.4101,-3.4101,-3.4758,-3.5503,-3.6238,-3.6918,-3.7614,-3.8343,-3.8391,-3.8391,-3.8391,-3.8391,-3.8391,-3.8391,-3.8391,-3.8391,-3.8391,-3.8391,-3.8572,-3.8898,-3.8898,-3.9454,-4.0497,-4.0497,-4.0896,-4.1604,-4.1604,-4.1604,-4.1604,-4.1604,-4.1213,-4.051,-3.9582,-3.8598,-3.7662,-3.7586,-3.7827,-3.8332,-3.9041,-3.9638,-4.0112,-4.0586,-4.0095,-3.9284,-3.9284,-3.8638,-3.7795,-3.7496,-3.7409,-3.7409,-3.7409,-3.7409,-3.7358,-3.7077,-3.7007,-3.7007,-3.7007,-3.7007,-3.7007,-3.7029,-3.7182,-3.7297,-3.7334,-3.7466,-3.7595,-3.7595,-3.7595,-3.7595,-3.7595,-3.7595,-3.7595,-3.7595,-3.7595,-3.7595,-3.7595,-3.741,-3.722,-3.7009,-3.6728,-3.6464,-3.6301,-3.5924,-3.5683,-3.5594,-3.4697,-3.4193,-3.4101,-3.3555,-3.3309,-3.3309,-3.3309,-3.3309,-1.881,-1.9192,-2.0202,0.0,0.0,0.0,-2.6713,-2.6037,-2.5343,-2.8276,-2.7271,0.0,0.0,0.0,0.0,0.0,-3.2498,-3.3599,-3.4036,-3.4101,-3.4101,-3.4101,-3.4943,-3.5736,-3.6254,-3.7128,-3.7873,-3.8359,-3.8391,-3.8391,-3.8391,-3.8391,-3.8391,-3.8391,-3.8391,-3.8391,-3.8391,-3.8391,-3.875,-3.9454,-3.9454,-3.9927,-4.0802,-4.0802,-4.11,-4.1604,-4.1604,-4.1464,-4.1271,-4.1455,-4.1244,-4.0656,-3.9461,-3.8516,-3.7866,-3.7809,-3.8141,-3.8719,-3.9431,-4.0182,-4.0906,-4.1148,-4.0533,-3.9585,-3.9094,-3.8181,-3.7306,-3.7077,-3.7007,-3.7007,-3.7007,-3.7007,-3.7007,-3.7007,-3.7007,-3.7007,-3.7007,-3.7007,-3.7007,-3.7007,-3.7143,-3.7259,-3.7297,-3.7447,-3.754,-3.7595,-3.7595,-3.7595,-3.7595,-3.7595,-3.7595,-3.7595,-3.7595,-3.7595,-3.7595,-3.7466,-3.7316,-3.7105,-3.6965,-3.6708,-3.6322,-3.6156,-3.5941,-3.5611,-3.4927,-3.4415,-3.4101,-3.3555,-3.3309,-3.3309,-3.3309,-3.3309,-1.8869,-1.9607,-2.0536,0.0,0.0,0.0,0.0,-2.6005,-2.4938,-2.6409,0.0,-3.0645,-2.9994,0.0,0.0,-3.1882,-3.2012,-3.2514,-3.3906,-3.4101,-3.4101,-3.4101,-3.5396,-3.6303,-3.6303,-3.7582,-3.8391,-3.8391,-3.8391,-3.8391,-3.8391,-3.8391,-3.8391,-3.8391,-3.8391,-3.8391,-3.8408,-3.8408,-3.8952,-3.9986,-3.9986,-4.0277,-4.0802,-4.0802,-4.11,-4.1587,-4.1587,-4.1148,-4.0533,-4.1156,-4.13,-4.1122,-4.0468,-3.9743,-3.9118,-3.9242,-3.9301,-3.9406,-4.0217,-4.0972,-4.1481,-4.0766,-4.0502,-4.0204,-3.8602,-3.8128,-3.797,-3.7235,-3.7025,-3.7025,-3.7025,-3.7025,-3.7025,-3.7007,-3.7007,-3.7007,-3.7007,-3.7007,-3.7007,-3.7007,-3.7068,-3.7164,-3.7278,-3.7354,-3.7448,-3.7577,-3.7595,-3.7595,-3.7595,-3.7595,-3.7595,-3.7595,-3.7595,-3.7595,-3.7595,-3.7595,-3.7503,-3.7316,-3.7297,-3.7009,-3.6343,-3.5854,-3.5611,-3.5594,-3.461,-3.4101,-3.4101,-3.3555,-3.3309,-3.3309,-3.3309,-3.3309,-2.0891,-2.0346,0.0,0.0,0.0,0.0,0.0,0.0,0.0,0.0,0.0,-2.7971,-2.8288,0.0,0.0,-3.1963,-3.2838,-3.3615,-3.4036,-3.4101,-3.4101,-3.4101,-3.4926,-3.572,-3.6254,-3.7112,-3.7841,-3.8359,-3.8391,-3.8391,-3.8391,-3.8391,-3.8391,-3.8391,-3.8391,-3.8572,-3.8952,-3.8952,-3.9256,-3.9774,-3.9774,-4.0348,-4.1346,-4.0827,-4.0688,-4.0801,-4.0235,-3.9866,-3.9705,-4.0368,-4.055,-4.0403,-4.0222,-3.9709,-3.9076,-3.9033,-3.9407,-3.9962,-4.0263,-4.0841,-4.1436,-4.1319,-4.101,-4.063,-4.0153,-3.9744,-3.9384,-3.9173,-3.8967,-3.883,-3.883,-3.8707,-3.8339,-3.7271,-3.7007,-3.7148,-3.7654,-3.7777,-3.7777,-3.7777,-3.7875,-3.7798,-3.7366,-3.7354,-3.7448,-3.7577,-3.7595,-3.7595,-3.7595,-3.7595,-3.7595,-3.7595,-3.7595,-3.7595,-3.7595,-3.7595,-3.7503,-3.7316,-3.7297,-3.7085,-3.6602,-3.644,-3.6131,-3.5616,-3.4951,-3.444,-3.4101,-3.3555,-3.3309,-3.3309,-3.3309,-3.3309,-2.1472,0.0,0.0,0.0,0.0,0.0,0.0,0.0,0.0,0.0,0.0,-2.8537,-2.9254,-3.1073,0.0,-3.2789,-3.355,-3.4101,-3.4101,-3.4101,-3.4101,-3.4101,-3.4758,-3.5364,-3.5817,-3.6497,-3.7209,-3.7922,-3.797,-3.81,-3.8375,-3.8391,-3.8391,-3.8391,-3.8391,-3.8509,-3.8732,-3.8715,-3.9068,-3.9698,-3.9698,-4.0191,-4.113,-4.0358,-4.0007,-3.9989,-3.9515,-3.9417,-3.9664,-4.0049,-4.0304,-4.0423,-4.0423,-4.0006,-3.9417,-3.9333,-3.9704,-4.0302,-4.032,-4.0911,-4.1644,-4.1732,-4.1545,-4.1209,-4.089,-4.0608,-4.034,-4.0,-3.9834,-3.9757,-3.9757,-3.9676,-3.9302,-3.8169,-3.79,-3.8041,-3.8497,-3.8585,-3.8585,-3.8585,-3.8643,-3.8516,-3.7877,-3.7757,-3.7709,-3.7612,-3.7595,-3.7595,-3.7595,-3.7595,-3.7595,-3.7595,-3.7595,-3.7595,-3.7595,-3.7595,-3.7558,-3.7428,-3.7428,-3.7278,-3.6946,-3.6766,-3.644,-3.5898,-3.5168,-3.4666,-3.4382,-3.3642,-3.3309,-3.3309,-3.3309,-3.3309,-2.1391,0.0,0.0,0.0,0.0,0.0,0.0,0.0,0.0,0.0,0.0,-3.0791,-3.1713,-3.2498,-3.321,-3.389,-3.4052,-3.4101,-3.4101,-3.4101,-3.4101,-3.4101,-3.4683,-3.513,-3.5195,-3.5801,-3.6481,-3.715,-3.7198,-3.7517,-3.8165,-3.8213,-3.8213,-3.8213,-3.8213,-3.8133,-3.798,-3.7963,-3.8546,-3.9663,-3.9663,-3.9907,-4.0379,-3.9638,-3.9249,-3.9178,-3.9178,-3.952,-4.0085,-4.0085,-4.0406,-4.0912,-4.0918,-4.0556,-4.0002,-4.0042,-4.0249,-4.0498,-4.052,-4.1159,-4.1984,-4.2005,-4.2005,-4.1885,-4.1162,-4.1014,-4.1011,-4.0281,-4.0144,-4.0222,-4.0222,-4.0222,-4.0105,-3.9661,-3.9452,-3.9343,-3.941,-3.9406,-3.9406,-3.9406,-3.9406,-3.9226,-3.86,-3.8364,-3.8141,-3.7646,-3.7558,-3.7558,-3.7558,-3.7594,-3.7577,-3.7558,-3.7594,-3.7577,-3.7577,-3.7594,-3.7594,-3.7595,-3.7577,-3.7503,-3.7297,-3.6946,-3.6606,-3.6284,-3.5374,-3.4864,-3.4769,-3.3832,-3.3361,-3.3309,-3.3309,-3.3309,0.0,-2.2975,0.0,0.0,0.0,0.0,0.0,0.0,0.0,0.0,-2.8623,-2.8257,-3.0694,-3.1753,-3.2465,-3.3194,-3.3761,-3.4101,-3.4101,-3.4101,-3.4101,-3.4101,-3.423,-3.4554,-3.5146,-3.5341,-3.5736,-3.6465,-3.6529,-3.6594,-3.6756,-3.6756,-3.6756,-3.6756,-3.6756,-3.7105,-3.7831,-3.7855,-3.8355,-3.9402,-3.9402,-3.9445,-3.955,-3.9392,-3.8926,-3.8283,-3.8283,-3.8924,-3.9938,-3.9938,-4.032,-4.0935,-4.1088,-4.1036,-4.0943,-4.1163,-4.1275,-4.1363,-4.145,-4.1639,-4.1862,-4.1984,-4.2115,-4.2207,-4.2029,-4.2119,-4.2243,-4.2179,-4.2027,-4.191,-4.2009,-4.1928,-4.1787,-4.1685,-4.0562,-3.9673,-4.0158,-4.0239,-4.0239,-4.0239,-4.0239,-3.9838,-3.8554,-3.8325,-3.8082,-3.7458,-3.7353,-3.7353,-3.7353,-3.7411,-3.7429,-3.7372,-3.7411,-3.743,-3.743,-3.7392,-3.7428,-3.7577,-3.7503,-3.7392,-3.7297,-3.7219,-3.6873,-3.6218,-3.5851,-3.5272,-3.4496,-3.4118,-3.3694,-3.3309,-3.3309,-3.3309,0.0,0.0,0.0,0.0,0.0,0.0,0.0,0.0,0.0,0.0,-2.8984,-2.8752,-3.0564,-3.1487,-3.2238,-3.2967,-3.3647,-3.4101,-3.4101,-3.4101,-3.4101,-3.4101,-3.4101,-3.4246,-3.4635,-3.4651,-3.4975,-3.572,-3.5768,-3.593,-3.6287,-3.6303,-3.6393,-3.6623,-3.6623,-3.6945,-3.7547,-3.757,-3.7947,-3.8743,-3.8743,-3.8743,-3.8743,-3.8743,-3.847,-3.8014,-3.8363,-3.9038,-3.9933,-4.0331,-4.0712,-4.1065,-4.1163,-4.1277,-4.1408,-4.156,-4.167,-4.1762,-4.1827,-4.1931,-4.2037,-4.2118,-4.2222,-4.2308,-4.2308,-4.2427,-4.2586,-4.2645,-4.2588,-4.2512,-4.2589,-4.253,-4.243,-4.2351,-4.1604,-4.0981,-4.1304,-4.1266,-4.118,-4.118,-4.1094,-4.0682,-3.9591,-3.8821,-3.8084,-3.7326,-3.7259,-3.7297,-3.7297,-3.7334,-3.7353,-3.7297,-3.7334,-3.7354,-3.7354,-3.7316,-3.7334,-3.7447,-3.7391,-3.7334,-3.7297,-3.7297,-3.7069,-3.66,-3.6215,-3.5791,-3.5267,-3.4891,-3.4399,-3.3825,-3.3825,-3.3652,0.0,0.0,0.0,0.0,0.0,0.0,0.0,0.0,0.0,-2.9815,-2.9896,-3.0075,-3.0635,-3.1406,-3.2206,-3.2805,-3.3582,-3.4101,-3.4101,-3.4101,-3.4101,-3.4101,-3.4101,-3.4101,-3.4101,-3.4101,-3.4343,-3.4968,-3.5017,-3.5266,-3.5898,-3.593,-3.6134,-3.6605,-3.663,-3.6779,-3.7115,-3.7115,-3.7459,-3.8111,-3.8251,-3.8234,-3.8111,-3.8091,-3.8114,-3.8199,-3.8915,-3.9551,-4.0135,-4.0816,-4.1152,-4.1209,-4.13,-4.1475,-4.167,-4.1714,-4.1845,-4.1977,-4.1977,-4.2103,-4.2308,-4.2308,-4.2308,-4.2308,-4.2308,-4.2366,-4.2483,-4.2483,-4.2546,-4.2607,-4.2609,-4.2609,-4.257,-4.2452,-4.2412,-4.2369,-4.2308,-4.2124,-4.1977,-4.1977,-4.17,-4.1213,-4.0503,-3.9244,-3.8066,-3.7212,-3.7164,-3.7239,-3.7239,-3.7259,-3.7259,-3.7239,-3.7259,-3.7278,-3.7278,-3.7259,-3.7259,-3.7297,-3.7278,-3.7278,-3.7297,-3.7297,-3.722,-3.7066,-3.658,-3.6302,-3.6222,-3.574,-3.5136,-3.4431,-3.4406,-3.402,0.0,0.0,0.0,0.0,0.0,0.0,0.0,0.0,0.0,0.0,-2.9896,-2.9913,-3.001,-3.1105,-3.2044,-3.2141,-3.3259,-3.4101,-3.4101,-3.4101,-3.4101,-3.4101,-3.4101,-3.4101,-3.4101,-3.4101,-3.4133,-3.423,-3.4246,-3.4279,-3.4392,-3.4392,-3.4602,-3.5066,-3.509,-3.5534,-3.6418,-3.6439,-3.6977,-3.8111,-3.8813,-3.8757,-3.8091,-3.8047,-3.829,-3.8803,-3.9497,-4.0147,-4.078,-4.1059,-4.1186,-4.1255,-4.1657,-4.1831,-4.1892,-4.2103,-4.2225,-4.2246,-4.2246,-4.2267,-4.2308,-4.2308,-4.2308,-4.2308,-4.2308,-4.2308,-4.2346,-4.2463,-4.2503,-4.2526,-4.257,-4.2609,-4.2609,-4.2589,-4.2667,-4.2667,-4.2369,-4.2267,-4.2246,-4.2246,-4.1529,-4.0591,-3.9645,-3.8728,-3.7888,-3.7132,-3.7027,-3.7046,-3.7046,-3.7087,-3.7089,-3.7046,-3.7089,-3.7127,-3.7127,-3.7068,-3.7124,-3.7278,-3.7203,-3.7184,-3.7314,-3.7297,-3.7295,-3.7259,-3.7029,-3.6719,-3.6381,-3.6126,-3.552,-3.4576,-3.4455,-3.4086,0.0,0.0,0.0,0.0,0.0,0.0,0.0,0.0,0.0,-2.9829,-3.0361,-3.0254,-2.9961,-3.0995,-3.1917,-3.1988,-3.3104,-3.4,-3.4101,-3.4101,-3.4101,-3.4101,-3.4101,-3.4101,-3.4101,-3.4101,-3.4101,-3.4101,-3.4101,-3.4209,-3.4488,-3.4488,-3.4857,-3.5616,-3.5638,-3.5989,-3.669,-3.6673,-3.6948,-3.7479,-3.783,-3.783,-3.7496,-3.7752,-3.8032,-3.8299,-3.8664,-3.9437,-4.0464,-4.0672,-4.1095,-4.1613,-4.1809,-4.1998,-4.2145,-4.2267,-4.2308,-4.2308,-4.2308,-4.2308,-4.2308,-4.2308,-4.2308,-4.2308,-4.2308,-4.2308,-4.2308,-4.2366,-4.2405,-4.2387,-4.243,-4.243,-4.245,-4.2546,-4.2607,-4.2686,-4.2607,-4.251,-4.2371,-4.2124,-4.1732,-4.0965,-3.9536,-3.9024,-3.8374,-3.7183,-3.7007,-3.7007,-3.7007,-3.7029,-3.7029,-3.6989,-3.7029,-3.7048,-3.7048,-3.7009,-3.7046,-3.7124,-3.7068,-3.7068,-3.7124,-3.7124,-3.7124,-3.7124,-3.7163,-3.7106,-3.6958,-3.6878,-3.6256,-3.5209,-3.5163,-3.4544,0.0,0.0,0.0,0.0,0.0,0.0,0.0,0.0,-2.672,0.0,-3.0473,-3.0879,-3.0416,-3.1313,-3.2176,-3.2342,-3.3315,-3.4101,-3.4201,-3.4201,-3.4201,-3.4201,-3.4226,-3.4226,-3.4151,-3.4176,-3.4176,-3.4101,-3.4101,-3.4259,-3.4593,-3.4738,-3.5214,-3.6092,-3.6237,-3.653,-3.7007,-3.7007,-3.7007,-3.7007,-3.7007,-3.7009,-3.7027,-3.7423,-3.7603,-3.7641,-3.806,-3.8841,-3.9892,-4.0126,-4.0775,-4.1633,-4.1676,-4.1946,-4.2308,-4.2308,-4.2308,-4.2308,-4.2308,-4.2308,-4.2308,-4.2308,-4.2308,-4.2308,-4.2308,-4.2308,-4.2308,-4.2308,-4.2308,-4.2308,-4.2308,-4.2308,-4.2346,-4.2425,-4.2528,-4.2649,-4.2785,-4.2746,-4.2552,-4.2103,-4.1998,-4.1418,-3.961,-3.9284,-3.8778,-3.7235,-3.7007,-3.7007,-3.7007,-3.7007,-3.7007,-3.7007,-3.7007,-3.7007,-3.7007,-3.7007,-3.7007,-3.7007,-3.7007,-3.7007,-3.7007,-3.7007,-3.7007,-3.7007,-3.7143,-3.7259,-3.7318,-3.7318,-3.6821,-3.5873,-3.572,-3.4971,0.0,0.0,0.0,0.0,0.0,0.0,0.0,0.0,0.0,-2.704,-2.9852,-3.1853,-3.1558,-3.2289,-3.3016,-3.3279,-3.3965,-3.4472,-3.4472,-3.4472,-3.4472,-3.4472,-3.4594,-3.457,-3.4325,-3.4399,-3.4374,-3.4126,-3.4101,-3.4126,-3.4151,-3.4545,-3.5068,-3.5616,-3.6071,-3.653,-3.7007,-3.7007,-3.7007,-3.7007,-3.7007,-3.7029,-3.7089,-3.7062,-3.7081,-3.721,-3.836,-3.9002,-3.9284,-3.9529,-4.0108,-4.0875,-4.1062,-4.1627,-4.2308,-4.2308,-4.2308,-4.2308,-4.2308,-4.2308,-4.2308,-4.2308,-4.2308,-4.2308,-4.2308,-4.2308,-4.2308,-4.2308,-4.2308,-4.2308,-4.2308,-4.2308,-4.2308,-4.2308,-4.247,-4.265,-4.2844,-4.2882,-4.2749,-4.2369,-4.2287,-4.1644,-3.9631,-3.9284,-3.8778,-3.7235,-3.7007,-3.7007,-3.7007,-3.7007,-3.7007,-3.7007,-3.7007,-3.7007,-3.7007,-3.7007,-3.7007,-3.7007,-3.7007,-3.7007,-3.7007,-3.7007,-3.7007,-3.7007,-3.7007,-3.7048,-3.7127,-3.7127,-3.6876,-3.6354,-3.5786,-3.5163,0.0,0.0,0.0,0.0,0.0,0.0,0.0,-2.4666,-2.4579,-2.5179,-2.9215,-3.2109,-3.0301,-3.1536,-3.2807,-3.283,-3.3322,-3.3756,-3.3861,-3.3861,-3.4046,-3.4555,-3.4667,-3.4875,-3.5278,-3.5374,-3.5168,-3.4601,-3.3955,-3.396,-3.4828,-3.4426,-3.4878,-3.6437,-3.6652,-3.6831,-3.7007,-3.7048,-3.705,-3.7068,-3.7145,-3.7201,-3.7222,-3.7126,-3.7147,-3.7316,-3.7688,-3.8214,-3.8773,-3.8988,-3.9548,-4.0224,-4.0303,-4.0521,-4.0824,-4.1341,-4.152,-4.1591,-4.2109,-4.2308,-4.2308,-4.2308,-4.2308,-4.2308,-4.2308,-4.2308,-4.2308,-4.2308,-4.2308,-4.2308,-4.2308,-4.2308,-4.2308,-4.2405,-4.2486,-4.2462,-4.2135,-4.2386,-4.2631,-4.2348,-4.2145,-4.146,-3.961,-3.9284,-3.8778,-3.7235,-3.7007,-3.7007,-3.7007,-3.7007,-3.7007,-3.7007,-3.7007,-3.7007,-3.7007,-3.7007,-3.7007,-3.7007,-3.7007,-3.7009,-3.705,-3.7029,-3.7009,-3.705,-3.7029,-3.7029,-3.7108,-3.7108,-3.6876,-3.6395,-3.6169,-3.5543,0.0,0.0,0.0,0.0,0.0,0.0,0.0,0.0,-2.5117,-2.4695,-2.9254,-3.277,-3.0937,-3.2077,-3.3245,-3.3156,-3.3334,-3.354,-3.3618,-3.3861,-3.424,-3.477,-3.5086,-3.545,-3.5921,-3.5994,-3.5781,-3.5203,-3.4558,-3.4554,-3.5453,-3.4951,-3.5333,-3.6893,-3.693,-3.695,-3.7007,-3.7048,-3.7069,-3.7069,-3.7239,-3.7297,-3.7297,-3.7279,-3.7337,-3.7466,-3.7428,-3.7711,-3.821,-3.8341,-3.8861,-3.952,-3.952,-3.9681,-3.9948,-4.0503,-4.0699,-4.0806,-4.1609,-4.1895,-4.193,-4.2218,-4.2308,-4.2308,-4.2308,-4.2308,-4.2308,-4.2308,-4.2308,-4.2308,-4.2308,-4.2308,-4.2328,-4.2463,-4.2503,-4.24,-4.202,-4.2327,-4.2537,-4.2089,-4.1838,-4.1245,-3.9682,-3.918,-3.8564,-3.7298,-3.7105,-3.7105,-3.7105,-3.7163,-3.7182,-3.7105,-3.7105,-3.7105,-3.7105,-3.7046,-3.7007,-3.7007,-3.7007,-3.7029,-3.7108,-3.7068,-3.7087,-3.7184,-3.7126,-3.7126,-3.7184,-3.7089,-3.6913,-3.6615,-3.6433,-3.5759,0.0,0.0,0.0,0.0,0.0,0.0,-1.9452,0.0,-2.6385,-2.5492,-2.9928,-3.3851,-3.3574,-3.4019,-3.4433,-3.4433,-3.4127,-3.3894,-3.3894,-3.4568,-3.5067,-3.5101,-3.5846,-3.6295,-3.6139,-3.6169,-3.6147,-3.5933,-3.5878,-3.5899,-3.5912,-3.6178,-3.6468,-3.6791,-3.6811,-3.6888,-3.7007,-3.7007,-3.7007,-3.7007,-3.722,-3.7297,-3.7316,-3.7503,-3.7595,-3.7595,-3.7595,-3.7595,-3.7595,-3.7595,-3.8058,-3.8772,-3.8772,-3.9199,-3.9841,-3.9859,-3.9859,-3.9966,-4.0788,-4.1056,-4.1199,-4.1986,-4.2254,-4.2251,-4.2251,-4.229,-4.2308,-4.2308,-4.2308,-4.2308,-4.2308,-4.2308,-4.2328,-4.2463,-4.2483,-4.2506,-4.2552,-4.2652,-4.2474,-4.1566,-4.1367,-4.0983,-3.9769,-3.8927,-3.8146,-3.7421,-3.7297,-3.7297,-3.7297,-3.7484,-3.7503,-3.7316,-3.7297,-3.7297,-3.7278,-3.7105,-3.7007,-3.7007,-3.7007,-3.7029,-3.7108,-3.7108,-3.7166,-3.7297,-3.7297,-3.7297,-3.7297,-3.7105,-3.7007,-3.7007,-3.6509,-3.5771,-2.3499,0.0,0.0,0.0,0.0,0.0,0.0,0.0,-2.4842,-2.3624,-2.8459,-3.2621,-3.1598,-3.3576,-3.5335,-3.5335,-3.4515,-3.3894,-3.3894,-3.4083,-3.4447,-3.5032,-3.5315,-3.5786,-3.6609,-3.6701,-3.6586,0.0,-3.5654,-3.5549,-3.6226,-3.6756,-3.7085,-3.7163,-3.7163,-3.7182,-3.722,-3.722,-3.722,-3.722,-3.7428,-3.7521,-3.7503,-3.7631,-3.7667,-3.7667,-3.7613,-3.7595,-3.7595,-3.7595,-3.7738,-3.7916,-3.7916,-3.8077,-3.8308,-3.8897,-3.9092,-3.9199,-3.9985,-4.0216,-4.0271,-4.0503,-4.0967,-4.1431,-4.1431,-4.1841,-4.2308,-4.2308,-4.2308,-4.2308,-4.2308,-4.2308,-4.2308,-4.2346,-4.2366,-4.2226,-4.1771,-4.1704,-4.1634,-4.1325,-4.0763,-4.0023,-3.9106,-3.8766,-3.8375,-3.7628,-3.7521,-3.7521,-3.7521,-3.7576,-3.7503,-3.7316,-3.7297,-3.7239,-3.7105,-3.7027,-3.7007,-3.7007,-3.7007,-3.7068,-3.7239,-3.7147,-3.7185,-3.7373,-3.7316,-3.7297,-3.7297,-3.7239,-3.722,-3.7201,-3.6291,-3.5715,0.0,0.0,0.0,0.0,0.0,0.0,-2.1867,-2.4272,-2.6244,-2.4848,-2.9576,-3.3322,-3.1203,-3.2561,-3.4006,-3.4006,-3.3375,-3.3248,-3.429,-3.4732,-3.5117,-3.5589,-3.5941,-3.6406,-3.7114,-3.7206,-3.7131,-3.698,-3.643,-3.6287,-3.6746,-3.7126,-3.7278,-3.7222,-3.7203,-3.7241,-3.7297,-3.7297,-3.7297,-3.7297,-3.7522,-3.7631,-3.7613,-3.7775,-3.7774,-3.7703,-3.7667,-3.7631,-3.7595,-3.7595,-3.7595,-3.7595,-3.7595,-3.7595,-3.7666,-3.813,-3.829,-3.8415,-3.9163,-3.9431,-3.9484,-3.9788,-4.0235,-4.061,-4.061,-4.0931,-4.1306,-4.1306,-4.1538,-4.1877,-4.2218,-4.2308,-4.2218,-4.1877,-4.1787,-4.1594,-4.0865,-4.0495,-4.041,-4.0789,-4.0196,-3.9441,-3.8956,-3.8598,-3.8222,-3.7793,-3.7721,-3.7721,-3.7721,-3.7721,-3.7649,-3.7447,-3.7353,-3.7259,-3.7143,-3.7046,-3.7007,-3.7007,-3.7007,-3.7085,-3.7278,-3.7222,-3.7279,-3.7485,-3.7447,-3.7428,-3.7428,-3.7334,-3.7297,-3.7278,-3.6457,-3.5938,0.0,0.0,0.0,0.0,0.0,0.0,-2.2106,-2.559,-2.8797,-2.7653,-3.1602,-3.4429,-3.1681,-3.1498,-3.1734,-3.1734,-3.154,-3.2191,-3.4481,-3.5723,-3.6256,-3.5901,-3.6808,-3.7485,-3.7522,-3.7522,-3.754,-3.7613,-3.7595,-3.7503,-3.7334,-3.7334,-3.7279,-3.7166,-3.7166,-3.7204,-3.7334,-3.7316,-3.7316,-3.7316,-3.7577,-3.7667,-3.7613,-3.788,-3.788,-3.7703,-3.7703,-3.7649,-3.7595,-3.7595,-3.7595,-3.7595,-3.7595,-3.7595,-3.7595,-3.7595,-3.7595,-3.7702,-3.8415,-3.8702,-3.8847,-3.9432,-3.9737,-3.9847,-3.9789,-3.9841,-3.9895,-3.9895,-4.0431,-4.1127,-4.1841,-4.2019,-4.1841,-4.1145,-4.0967,-4.077,-4.0037,-3.9364,-3.9155,-4.0058,-3.959,-3.9049,-3.9013,-3.842,-3.7934,-3.7934,-3.7934,-3.7934,-3.7934,-3.7934,-3.7864,-3.7667,-3.7447,-3.7334,-3.7334,-3.7124,-3.7007,-3.7027,-3.7007,-3.7085,-3.7278,-3.7297,-3.7391,-3.7613,-3.7595,-3.7595,-3.7595,-3.7428,-3.7334,-3.7316,-3.6838,-3.6295,0.0,0.0,0.0,0.0,0.0,0.0,-2.5016,-2.5839,-2.6951,-2.7896,-2.9469,-3.0894,-3.1546,-3.2202,-3.2654,-3.2654,-3.1545,-3.1068,-3.2158,-3.4569,-3.5312,-3.2774,-3.4842,-3.6623,-3.6997,-3.7034,-3.7206,-3.7577,-3.7595,-3.7577,-3.754,-3.7539,-3.7522,-3.7503,-3.7503,-3.7503,-3.7539,-3.7429,-3.7373,-3.7392,-3.754,-3.7613,-3.7613,-3.781,-3.7846,-3.7703,-3.7703,-3.7649,-3.7595,-3.7595,-3.7595,-3.7595,-3.7595,-3.7595,-3.7595,-3.7595,-3.7595,-3.7631,-3.7791,-3.8061,-3.8286,-3.8097,-3.8708,-3.9444,-3.9117,-3.9431,-3.9895,-3.9895,-4.0002,-4.0182,-4.0342,-4.0378,-4.0342,-4.0182,-4.0126,-4.0091,-3.993,-3.9325,-3.8882,-3.9137,-3.8671,-3.8271,-3.8358,-3.825,-3.8141,-3.8141,-3.8141,-3.8141,-3.8141,-3.8141,-3.8055,-3.7864,-3.7667,-3.7539,-3.7539,-3.7203,-3.7066,-3.722,-3.7085,-3.7085,-3.7278,-3.7297,-3.7391,-3.7613,-3.7595,-3.7595,-3.7595,-3.7558,-3.7539,-3.7539,-3.6958,-3.6381,0.0,0.0,0.0,-2.5892,0.0,0.0,0.0,-2.6588,-2.79,-2.8281,-2.9922,-3.1037,-3.0202,-3.0352,-3.0609,-3.0609,-2.9201,-2.839,-2.9183,-3.2302,-3.4526,-3.4526,-3.595,-3.6978,-3.7225,-3.7243,-3.7355,-3.7577,-3.7595,-3.7595,-3.7595,-3.7595,-3.7595,-3.7595,-3.7595,-3.7595,-3.7595,-3.754,-3.7503,-3.7503,-3.7613,-3.7649,-3.7667,-3.781,-3.7864,-3.781,-3.7739,-3.7667,-3.7649,-3.7613,-3.7595,-3.7595,-3.7595,-3.7595,-3.7613,-3.7827,-3.7896,-3.7896,-3.7896,-3.8032,-3.8114,-3.7739,-3.8026,-3.8456,-3.8257,-3.8451,-3.8843,-3.9254,-3.9342,-3.9431,-3.9788,-3.9895,-3.9805,-3.9431,-3.9342,-3.9235,-3.8843,-3.8599,-3.8474,-3.8544,-3.8374,-3.8188,-3.8122,-3.8157,-3.8209,-3.8209,-3.8209,-3.8209,-3.8209,-3.8106,-3.8003,-3.7899,-3.7721,-3.7595,-3.7595,-3.7411,-3.7336,-3.7447,-3.7259,-3.7239,-3.7447,-3.7353,-3.7391,-3.7613,-3.7595,-3.7595,-3.7595,-3.7595,-3.7595,-3.7595,-3.73,-3.6843,0.0,0.0,0.0,0.0,0.0,-2.627,0.0,0.0,0.0,-2.8497,0.0,0.0,0.0,0.0,0.0,-2.8282,0.0,0.0,0.0,-2.9971,0.0,-3.5026,-3.5579,-3.5811,-3.5989,-3.6417,-3.6934,-3.7559,-3.7595,-3.7595,-3.7595,-3.7595,-3.7595,-3.7595,-3.7595,-3.7595,-3.7595,-3.7595,-3.7595,-3.7595,-3.7649,-3.7667,-3.7685,-3.781,-3.7864,-3.7846,-3.7739,-3.7685,-3.7667,-3.7613,-3.7595,-3.7595,-3.7595,-3.7649,-3.7739,-3.8082,-3.8245,-3.8291,-3.8229,-3.8245,-3.8229,-3.7757,-3.7631,-3.7721,-3.7774,-3.7792,-3.7936,-3.8582,-3.8761,-3.8905,-3.9497,-3.9602,-3.9403,-3.8887,-3.8725,-3.8509,-3.7918,-3.8,-3.8183,-3.8183,-3.83,-3.8334,-3.8136,-3.8156,-3.8209,-3.8209,-3.8209,-3.8209,-3.8209,-3.8073,-3.7969,-3.7969,-3.7793,-3.7685,-3.7721,-3.7631,-3.7631,-3.7667,-3.7428,-3.7372,-3.7558,-3.741,-3.741,-3.7558,-3.7594,-3.7595,-3.7595,-3.7595,-3.7595,-3.7595,-3.7595,-3.7281,0.0,0.0,0.0,0.0,-2.7996,0.0,0.0,0.0,-2.8407,-2.8254,0.0,0.0,0.0,0.0,0.0,0.0,0.0,0.0,-2.9711,-2.8635,-2.7437,-2.708,-2.8266,-2.9396,-3.0166,-3.2125,-3.4528,-3.7398,-3.7595,-3.7595,-3.7595,-3.7595,-3.7595,-3.7595,-3.7595,-3.7595,-3.7595,-3.7595,-3.7595,-3.7595,-3.7613,-3.7613,-3.7613,-3.7703,-3.7703,-3.7649,-3.7667,-3.7685,-3.7613,-3.7595,-3.7595,-3.7595,-3.7595,-3.7809,-3.8148,-3.818,-3.8418,-3.8678,-3.8307,-3.8434,-3.8603,-3.7844,-3.7792,-3.8101,-3.841,-3.8486,-3.8523,-3.8598,-3.8617,-3.8635,-3.8727,-3.8538,-3.8354,-3.8572,-3.8394,-3.8227,-3.8426,-3.8517,-3.8473,-3.8168,-3.8269,-3.8415,-3.8446,-3.8305,-3.8209,-3.8209,-3.8209,-3.8209,-3.8209,-3.8175,-3.8175,-3.8175,-3.7986,-3.7934,-3.8106,-3.781,-3.7685,-3.7846,-3.7503,-3.7334,-3.7429,-3.7411,-3.7411,-3.7429,-3.754,-3.7595,-3.7595,-3.7595,-3.7595,-3.7595,-3.7595,-3.7281,0.0,0.0,0.0,0.0,0.0,0.0,-2.9658,0.0,-2.8273,0.0,0.0,0.0,0.0,0.0,0.0,0.0,-2.6256,0.0,0.0,0.0,-2.5064,-2.8858,0.0,0.0,-3.1907,-3.1319,-3.1943,-3.4617,-3.5276,-3.5364,-3.4848,-3.6595,-3.7595,-3.7595,-3.7595,-3.7595,-3.7595,-3.7595,-3.7595,-3.7595,-3.7595,-3.7595,-3.7595,-3.7631,-3.7649,-3.7667,-3.7649,-3.7649,-3.7667,-3.7613,-3.7703,-3.7897,-3.7897,-3.8,-3.8216,-3.8666,-3.8915,-3.9017,-3.8828,-3.8886,-3.8947,-3.836,-3.8281,-3.8426,-3.8548,-3.8594,-3.8594,-3.8594,-3.8594,-3.8594,-3.8594,-3.8504,-3.8426,-3.8563,-3.8486,-3.8442,-3.8563,-3.8763,-3.8851,-3.8759,-3.8707,-3.871,-3.8785,-3.8449,-3.8209,-3.8209,-3.8209,-3.8209,-3.8209,-3.8209,-3.8209,-3.8209,-3.8106,-3.8124,-3.8192,-3.8038,-3.7986,-3.8055,-3.7828,-3.7613,-3.7411,-3.7594,-3.7595,-3.7393,-3.7559,-3.7649,-3.7595,-3.7595,-3.7595,-3.7595,-3.7595,-3.7467,-3.0689,0.0,0.0,0.0,0.0,0.0,0.0,0.0,0.0,0.0,0.0,0.0,0.0,0.0,0.0,0.0,0.0,-2.5374,0.0,-2.352,0.0,0.0,0.0,0.0,0.0,-3.0394,-3.0115,-3.178,-3.3244,-3.3691,-3.2839,-3.5846,-3.7595,-3.7595,-3.7595,-3.7595,-3.7595,-3.7595,-3.7595,-3.7595,-3.7595,-3.7595,-3.7595,-3.7595,-3.7631,-3.7667,-3.7613,-3.7685,-3.781,-3.7757,-3.7966,-3.8296,-3.8389,-3.8434,-3.8527,-3.9095,-3.9344,-3.937,-3.9318,-3.9221,-3.9077,-3.8882,-3.8781,-3.8785,-3.8872,-3.889,-3.888,-3.888,-3.888,-3.888,-3.888,-3.8807,-3.8763,-3.8851,-3.8807,-3.8763,-3.8851,-3.9069,-3.9224,-3.9178,-3.9087,-3.8989,-3.8956,-3.8544,-3.8224,-3.8289,-3.8241,-3.8242,-3.8289,-3.8241,-3.8209,-3.8209,-3.8209,-3.8209,-3.8209,-3.8209,-3.8175,-3.8106,-3.802,-3.7828,-3.7466,-3.7667,-3.7649,-3.7393,-3.7541,-3.7595,-3.754,-3.7577,-3.7595,-3.7595,-3.7595,-3.7595,0.0,-3.2829,0.0,-3.0886,0.0,0.0,0.0,0.0,-2.8196,0.0,0.0,0.0,0.0,0.0,0.0,0.0,0.0,0.0,0.0,0.0,0.0,0.0,0.0,0.0,0.0,-2.8254,-2.9532,-2.9589,-3.2333,-3.3658,-3.2839,-3.5846,-3.7595,-3.7595,-3.7595,-3.7595,-3.7595,-3.7595,-3.7595,-3.7595,-3.7595,-3.7595,-3.7595,-3.7595,-3.7595,-3.7595,-3.7595,-3.7792,-3.8085,-3.8085,-3.836,-3.881,-3.9133,-3.9302,-3.9339,-3.9314,-3.9543,-3.9837,-3.9578,-3.9245,-3.8951,-3.927,-3.9295,-3.9231,-3.958,-3.9625,-3.9564,-3.9564,-3.9564,-3.9564,-3.9564,-3.9322,-3.917,-3.9483,-3.9322,-3.917,-3.9514,-3.9577,-3.9483,-3.917,-3.9192,-3.9173,-3.8861,-3.8462,-3.829,-3.8556,-3.837,-3.8289,-3.8538,-3.837,-3.8209,-3.8209,-3.8209,-3.8209,-3.8209,-3.8209,-3.8124,-3.7916,-3.7899,-3.7811,-3.7595,-3.7485,-3.7411,-3.7411,-3.7411,-3.7411,-3.7411,-3.754,-3.7595,-3.7595,-3.7595,-3.7595,-3.4133,-3.4418,-3.4294,-3.3742,-3.2848,-3.1954,-3.1421,0.0,0.0,0.0,0.0,0.0,0.0,0.0,0.0,0.0,0.0,0.0,0.0,0.0,0.0,0.0,0.0,0.0,0.0,0.0,-2.4611,-2.6071,-2.7152,-2.7364,-2.6561,-3.1542,-3.4404,-3.4404,-3.6488,-3.7595,-3.7595,-3.7595,-3.7595,-3.7595,-3.7595,-3.7595,-3.7595,-3.7595,-3.7721,-3.7932,-3.7703,-3.7914,-3.8407,-3.8183,-3.8483,-3.9072,-3.9192,-3.9439,-3.9732,-3.9755,-3.9818,-3.9889,-3.9796,-3.9686,-3.9578,-3.9698,-3.9698,-3.9675,-3.9804,-3.9747,-3.9672,-3.9672,-3.9644,-3.9589,-3.9589,-3.9527,-3.9458,-3.9564,-3.9496,-3.9458,-3.9577,-3.9589,-3.9577,-3.9496,-3.9382,-3.9285,-3.9213,-3.8933,-3.87,-3.8615,-3.8525,-3.8433,-3.8354,-3.8257,-3.8209,-3.8209,-3.8209,-3.8209,-3.8209,-3.8209,-3.8175,-3.8089,-3.8107,-3.8003,-3.7811,-3.7881,-3.7757,-3.7411,-3.7522,-3.7522,-3.7334,-3.7429,-3.7466,-3.7466,-3.7558,-3.7595,-3.5774,-3.606,-3.5917,-3.5329,-3.4454,-3.3578,-3.3025,-3.1332,-2.9869,0.0,0.0,0.0,0.0,0.0,0.0,0.0,0.0,0.0,0.0,-2.4094,0.0,0.0,0.0,0.0,0.0,-2.3954,-2.2894,-2.2919,-2.3886,-2.4109,-2.3342,-2.9343,-3.2786,-3.2786,-3.5918,-3.7595,-3.7595,-3.7595,-3.7595,-3.7595,-3.7595,-3.7595,-3.7595,-3.7703,-3.7897,-3.8101,-3.805,-3.8326,-3.8795,-3.8633,-3.8948,-3.9519,-3.9519,-3.9732,-4.0036,-4.0046,-4.0046,-4.0036,-4.0036,-4.0036,-4.0036,-4.0036,-4.0015,-3.9965,-3.9965,-3.9889,-3.9838,-4.0152,-3.9981,-3.9767,-4.0032,-3.9869,-3.9631,-3.9602,-3.9589,-3.9589,-3.9589,-3.9589,-3.9602,-3.9657,-3.9546,-3.9464,-3.9508,-3.9377,-3.9203,-3.8966,-3.8818,-3.8688,-3.8525,-3.8401,-3.8323,-3.8209,-3.8209,-3.8209,-3.8209,-3.8209,-3.8209,-3.8209,-3.8209,-3.8141,-3.8003,-3.8055,-3.7916,-3.7485,-3.7541,-3.7467,-3.7222,-3.7317,-3.7373,-3.7411,-3.7448,-3.7521]},{"header":{"parameterUnit":"m.s-1","parameterCategory":1,"la1":30.6,"la2":29.2853,"lo1":-89.7004,"lo2":-87.6739,"dy":0.0162,"dx":0.0183,"nx":112,"ny":82,"refTime":"2023-05-01T00:00:00:Z","depth":0,"parameterNumber":3,"parameterNumberName":"V-component_of_WINDS"},"data":[0.0,0.0,0.0,0.0,0.0,0.0,0.0,0.0,0.0,0.0,0.0,0.0,0.0,0.0,0.0,0.0,0.0,0.0,0.0,0.0,0.0,0.0,0.0,0.0,0.0,0.0,0.0,0.0,0.0,0.0,0.0,0.0,0.0,0.0,0.0,0.0,0.0,0.0,0.0,0.0,0.0,0.0,0.0,0.0,0.0,0.0,0.0,0.0,0.0,0.0,0.0,0.0,0.0,0.0,0.0,0.0,0.0,0.0,0.0,0.0,0.0,0.0,0.0,0.0,0.0,0.0,0.0,0.0,0.0,0.0,0.0,0.0,0.0,0.0,0.0,0.0,0.0,0.0,0.0,0.0,0.0,0.0,0.0,0.0,0.0,0.0,0.0,0.0,0.0,0.0,-1.9446,-2.2352,-2.3683,-2.4344,-2.4344,-2.4344,-2.2937,-1.9546,0.0,0.0,0.0,0.0,0.0,0.0,0.0,0.0,0.0,0.0,0.0,0.0,0.0,0.0,0.0,0.0,0.0,0.0,0.0,0.0,0.0,0.0,0.0,0.0,0.0,0.0,0.0,0.0,0.0,0.0,0.0,0.0,0.0,0.0,0.0,0.0,0.0,0.0,0.0,0.0,0.0,0.0,0.0,0.0,0.0,0.0,0.0,0.0,0.0,0.0,0.0,0.0,0.0,0.0,0.0,0.0,0.0,0.0,0.0,0.0,0.0,0.0,0.0,0.0,0.0,0.0,0.0,0.0,0.0,0.0,0.0,0.0,0.0,0.0,0.0,0.0,0.0,0.0,0.0,0.0,0.0,0.0,0.0,0.0,0.0,0.0,0.0,0.0,0.0,0.0,0.0,0.0,0.0,0.0,0.0,0.0,0.0,0.0,0.0,0.0,0.0,0.0,0.0,0.0,-2.2154,-2.4944,-2.5427,-2.5532,-2.5532,-2.5532,-2.3907,-2.0118,0.0,0.0,0.0,0.0,0.0,0.0,0.0,0.0,0.0,0.0,0.0,0.0,0.0,0.0,0.0,0.0,0.0,0.0,0.0,0.0,0.0,0.0,0.0,0.0,0.0,0.0,0.0,0.0,0.0,0.0,0.0,0.0,0.0,0.0,0.0,0.0,0.0,0.0,0.0,0.0,0.0,0.0,0.0,0.0,0.0,0.0,0.0,0.0,0.0,0.0,0.0,0.0,0.0,0.0,0.0,0.0,0.0,0.0,0.0,0.0,0.0,0.0,0.0,0.0,0.0,0.0,0.0,0.0,0.0,0.0,0.0,0.0,0.0,0.0,0.0,0.0,0.0,0.0,0.0,0.0,0.0,0.0,0.0,0.0,0.0,0.0,0.0,0.0,0.0,0.0,0.0,0.0,0.0,0.0,0.0,0.0,0.0,0.0,0.0,0.0,0.0,0.0,0.0,-2.1799,-2.4331,-2.5649,-2.5793,-2.5793,-2.5793,-2.5793,-2.4127,-2.0257,-1.9801,0.0,0.0,0.0,0.0,0.0,0.0,0.0,0.0,0.0,0.0,0.0,0.0,0.0,0.0,0.0,0.0,0.0,0.0,0.0,0.0,0.0,0.0,0.0,0.0,0.0,0.0,0.0,0.0,0.0,0.0,0.0,0.0,0.0,0.0,0.0,0.0,0.0,0.0,0.0,0.0,0.0,0.0,0.0,0.0,0.0,0.0,0.0,0.0,0.0,0.0,0.0,0.0,0.0,0.0,0.0,0.0,0.0,0.0,0.0,0.0,0.0,0.0,0.0,0.0,0.0,0.0,0.0,0.0,0.0,0.0,0.0,0.0,0.0,0.0,0.0,0.0,0.0,0.0,0.0,0.0,0.0,0.0,0.0,0.0,0.0,0.0,0.0,0.0,0.0,0.0,0.0,0.0,0.0,0.0,0.0,0.0,0.0,0.0,0.0,0.0,0.0,0.0,-2.3609,-2.5504,-2.6132,-2.6198,-2.6198,-2.6198,-2.6198,-2.4477,-2.0486,-2.0118,0.0,0.0,0.0,0.0,0.0,0.0,0.0,0.0,0.0,0.0,0.0,0.0,0.0,0.0,0.0,0.0,0.0,0.0,0.0,0.0,0.0,0.0,0.0,0.0,0.0,0.0,0.0,0.0,0.0,0.0,0.0,0.0,0.0,0.0,0.0,0.0,0.0,0.0,0.0,0.0,0.0,0.0,0.0,0.0,0.0,0.0,0.0,0.0,0.0,0.0,0.0,0.0,0.0,0.0,0.0,0.0,0.0,0.0,0.0,0.0,0.0,0.0,0.0,0.0,0.0,0.0,0.0,0.0,0.0,0.0,0.0,0.0,0.0,0.0,0.0,0.0,0.0,0.0,0.0,0.0,0.0,0.0,0.0,0.0,0.0,0.0,0.0,0.0,0.0,0.0,0.0,0.0,0.0,0.0,0.0,0.0,0.0,0.0,0.0,0.0,0.0,0.0,-2.3235,-2.5105,-2.715,-2.7372,-2.7372,-2.7372,-2.7372,-2.555,-2.1204,-2.0476,0.0,0.0,0.0,0.0,0.0,0.0,0.0,0.0,0.0,0.0,0.0,0.0,0.0,0.0,0.0,0.0,0.0,0.0,0.0,0.0,0.0,0.0,0.0,0.0,0.0,0.0,0.0,0.0,0.0,0.0,0.0,0.0,0.0,0.0,0.0,0.0,0.0,0.0,0.0,0.0,0.0,0.0,0.0,0.0,0.0,0.0,0.0,0.0,0.0,0.0,0.0,0.0,0.0,0.0,0.0,0.0,0.0,0.0,0.0,0.0,0.0,0.0,0.0,0.0,0.0,0.0,0.0,0.0,0.0,0.0,0.0,0.0,0.0,0.0,0.0,0.0,0.0,0.0,0.0,0.0,0.0,0.0,0.0,0.0,0.0,0.0,0.0,0.0,0.0,0.0,0.0,0.0,0.0,0.0,0.0,0.0,0.0,0.0,0.0,0.0,0.0,0.0,-2.4416,-2.6588,0.0,-2.749,-2.749,-2.749,-2.749,-2.5641,-2.1268,0.0,0.0,0.0,0.0,0.0,0.0,0.0,0.0,0.0,0.0,0.0,0.0,0.0,0.0,0.0,0.0,0.0,0.0,0.0,0.0,0.0,0.0,0.0,0.0,0.0,0.0,0.0,0.0,0.0,0.0,0.0,0.0,0.0,0.0,0.0,0.0,0.0,0.0,0.0,0.0,0.0,0.0,0.0,0.0,0.0,0.0,0.0,0.0,0.0,0.0,0.0,0.0,0.0,0.0,0.0,0.0,0.0,0.0,0.0,0.0,0.0,0.0,0.0,0.0,0.0,0.0,0.0,0.0,0.0,0.0,0.0,0.0,0.0,0.0,0.0,0.0,0.0,0.0,0.0,0.0,0.0,0.0,0.0,0.0,0.0,0.0,0.0,0.0,0.0,0.0,0.0,0.0,0.0,0.0,0.0,0.0,0.0,0.0,0.0,0.0,0.0,0.0,-2.1611,-2.5013,-2.749,0.0,-2.749,-2.749,-2.749,-2.7556,-2.5688,-2.1184,0.0,0.0,0.0,0.0,0.0,0.0,0.0,0.0,0.0,0.0,0.0,0.0,0.0,0.0,0.0,0.0,0.0,0.0,0.0,0.0,0.0,0.0,0.0,0.0,0.0,0.0,0.0,0.0,0.0,0.0,0.0,0.0,0.0,0.0,0.0,0.0,0.0,0.0,0.0,0.0,0.0,0.0,0.0,0.0,0.0,0.0,0.0,0.0,0.0,0.0,0.0,0.0,0.0,0.0,0.0,0.0,0.0,0.0,0.0,0.0,0.0,0.0,0.0,0.0,0.0,0.0,0.0,0.0,0.0,0.0,0.0,0.0,0.0,0.0,0.0,0.0,0.0,0.0,0.0,0.0,0.0,0.0,0.0,0.0,0.0,0.0,0.0,0.0,0.0,0.0,0.0,0.0,0.0,0.0,0.0,0.0,0.0,0.0,0.0,0.0,0.0,0.0,-2.1043,-2.4764,-2.749,-2.749,-2.749,-2.749,-2.749,-2.7689,-2.5766,0.0,0.0,0.0,0.0,0.0,0.0,0.0,0.0,0.0,0.0,0.0,0.0,0.0,0.0,0.0,0.0,0.0,0.0,0.0,0.0,0.0,0.0,0.0,0.0,0.0,0.0,0.0,0.0,0.0,0.0,0.0,0.0,0.0,0.0,0.0,0.0,0.0,0.0,0.0,0.0,0.0,0.0,0.0,0.0,0.0,0.0,0.0,0.0,0.0,0.0,0.0,0.0,0.0,0.0,0.0,0.0,0.0,0.0,0.0,0.0,0.0,0.0,0.0,0.0,0.0,0.0,0.0,0.0,0.0,0.0,0.0,0.0,0.0,0.0,0.0,0.0,0.0,0.0,0.0,0.0,0.0,0.0,0.0,0.0,0.0,0.0,0.0,0.0,0.0,0.0,0.0,0.0,0.0,0.0,0.0,0.0,0.0,0.0,0.0,0.0,0.0,0.0,0.0,-2.099,-2.4764,-2.749,-2.749,-2.749,-2.749,-2.749,-2.7689,-2.5752,-2.0936,0.0,0.0,0.0,0.0,0.0,0.0,0.0,0.0,0.0,0.0,0.0,0.0,0.0,0.0,0.0,0.0,0.0,0.0,0.0,0.0,0.0,0.0,0.0,0.0,0.0,0.0,0.0,0.0,0.0,0.0,0.0,0.0,0.0,0.0,0.0,0.0,0.0,0.0,0.0,0.0,0.0,0.0,0.0,0.0,0.0,0.0,0.0,0.0,0.0,0.0,0.0,0.0,0.0,0.0,0.0,0.0,0.0,0.0,0.0,0.0,0.0,0.0,0.0,0.0,0.0,0.0,0.0,0.0,0.0,0.0,0.0,0.0,0.0,0.0,0.0,0.0,0.0,0.0,0.0,0.0,0.0,0.0,0.0,0.0,0.0,0.0,0.0,0.0,0.0,0.0,0.0,0.0,0.0,0.0,0.0,0.0,0.0,0.0,0.0,0.0,0.0,0.0,-2.0977,-2.4764,-2.749,-2.749,-2.7556,-2.759,-2.749,-2.7769,-2.6223,-2.2298,0.0,0.0,0.0,0.0,0.0,0.0,0.0,0.0,0.0,0.0,0.0,0.0,0.0,0.0,0.0,0.0,0.0,0.0,0.0,0.0,0.0,0.0,0.0,0.0,0.0,0.0,0.0,0.0,0.0,0.0,0.0,0.0,0.0,0.0,0.0,0.0,0.0,0.0,0.0,0.0,0.0,0.0,0.0,0.0,0.0,0.0,0.0,0.0,0.0,0.0,0.0,0.0,0.0,0.0,0.0,0.0,0.0,0.0,0.0,0.0,0.0,0.0,0.0,0.0,0.0,0.0,0.0,0.0,0.0,0.0,0.0,0.0,0.0,0.0,0.0,0.0,0.0,0.0,0.0,0.0,0.0,0.0,0.0,0.0,0.0,0.0,0.0,0.0,0.0,0.0,0.0,0.0,0.0,0.0,0.0,0.0,0.0,0.0,0.0,0.0,0.0,0.0,-2.1068,-2.4833,-2.757,-2.757,-2.7723,-2.7756,-2.7523,-2.7868,-2.6972,-2.4363,0.0,0.0,0.0,0.0,0.0,0.0,0.0,0.0,0.0,0.0,0.0,0.0,0.0,0.0,0.0,0.0,0.0,0.0,0.0,0.0,0.0,0.0,0.0,0.0,0.0,0.0,0.0,0.0,0.0,0.0,0.0,0.0,0.0,0.0,0.0,0.0,0.0,0.0,0.0,0.0,0.0,0.0,0.0,0.0,0.0,0.0,0.0,0.0,0.0,0.0,0.0,0.0,0.0,0.0,0.0,0.0,0.0,0.0,0.0,0.0,-1.8904,-1.6049,0.0,0.0,0.0,0.0,0.0,0.0,0.0,0.0,0.0,0.0,0.0,0.0,0.0,0.0,0.0,0.0,0.0,0.0,0.0,0.0,0.0,0.0,0.0,0.0,0.0,0.0,0.0,0.0,0.0,0.0,0.0,0.0,0.0,0.0,0.0,0.0,0.0,0.0,0.0,0.0,-2.1855,-2.5425,-2.798,-2.798,-2.8013,-2.7967,-2.7756,-2.7967,-2.6972,-2.4363,-2.3913,0.0,0.0,0.0,0.0,0.0,0.0,0.0,0.0,0.0,0.0,0.0,0.0,0.0,0.0,0.0,0.0,0.0,0.0,0.0,0.0,0.0,0.0,0.0,0.0,0.0,0.0,0.0,0.0,0.0,0.0,0.0,0.0,0.0,0.0,0.0,0.0,0.0,0.0,0.0,0.0,0.0,0.0,0.0,0.0,0.0,0.0,0.0,0.0,0.0,0.0,0.0,0.0,0.0,0.0,0.0,0.0,0.0,0.0,0.0,-2.0378,-1.9032,0.0,0.0,0.0,0.0,0.0,0.0,0.0,0.0,0.0,0.0,0.0,0.0,0.0,0.0,0.0,0.0,0.0,0.0,0.0,0.0,0.0,0.0,0.0,0.0,0.0,0.0,0.0,0.0,0.0,0.0,0.0,0.0,0.0,0.0,0.0,0.0,0.0,0.0,0.0,0.0,-2.2105,-2.5595,-2.8112,-2.8112,-2.8164,-2.8118,-2.7967,-2.8046,-2.7482,-2.6016,-2.4926,0.0,0.0,0.0,0.0,0.0,0.0,0.0,0.0,0.0,0.0,0.0,0.0,0.0,0.0,0.0,0.0,0.0,0.0,0.0,0.0,0.0,0.0,0.0,0.0,0.0,0.0,0.0,0.0,0.0,0.0,0.0,0.0,0.0,0.0,0.0,0.0,0.0,0.0,0.0,0.0,0.0,0.0,0.0,0.0,0.0,0.0,0.0,0.0,0.0,0.0,0.0,0.0,0.0,-2.2446,-2.2572,-2.2558,-2.2344,-2.2091,-2.19,-2.2214,-2.2718,-2.3042,-2.007,0.0,0.0,0.0,0.0,0.0,0.0,0.0,0.0,0.0,0.0,0.0,0.0,0.0,0.0,0.0,0.0,0.0,0.0,0.0,0.0,0.0,0.0,0.0,0.0,-2.3565,-2.3195,-2.3974,0.0,0.0,0.0,0.0,0.0,0.0,0.0,0.0,0.0,0.0,0.0,-2.2279,-2.5751,-2.8177,-2.8177,-2.8281,-2.83,-2.8131,-2.8131,-2.8033,-2.7809,-2.5937,-2.4593,0.0,0.0,0.0,0.0,0.0,0.0,0.0,0.0,0.0,0.0,0.0,0.0,0.0,0.0,0.0,0.0,0.0,0.0,0.0,0.0,0.0,0.0,0.0,0.0,0.0,0.0,0.0,0.0,0.0,0.0,0.0,0.0,-1.8141,-2.0503,0.0,0.0,0.0,0.0,0.0,0.0,0.0,0.0,0.0,0.0,0.0,0.0,0.0,-2.1535,-2.1488,-2.354,-2.4459,-2.4236,-2.6036,-2.656,-2.5952,-2.6214,-2.598,-2.5263,-2.4018,0.0,-2.1948,-2.1614,0.0,0.0,0.0,0.0,0.0,0.0,0.0,0.0,0.0,0.0,0.0,0.0,0.0,0.0,0.0,0.0,0.0,0.0,0.0,0.0,0.0,0.0,-2.7827,-2.8033,-2.646,-2.5475,0.0,-2.3473,-2.0169,-2.2322,-2.0988,0.0,0.0,0.0,0.0,0.0,0.0,0.0,-2.2975,-2.6245,-2.8522,-2.8522,-2.8554,-2.8476,-2.83,-2.8268,-2.8137,-2.7809,-2.7485,-2.6385,-2.4268,-2.6214,0.0,0.0,0.0,0.0,0.0,0.0,0.0,0.0,0.0,0.0,0.0,0.0,0.0,0.0,0.0,0.0,0.0,0.0,0.0,0.0,0.0,0.0,0.0,0.0,0.0,0.0,0.0,0.0,0.0,-1.7942,-1.9114,-2.0519,-2.0056,-1.9402,0.0,0.0,0.0,0.0,0.0,0.0,0.0,0.0,0.0,-2.2304,-2.2894,-2.3429,-2.3903,-2.5466,-2.6216,-2.6244,-2.6963,-2.7175,-2.6939,-2.664,-2.6339,-2.5954,-2.4941,-2.4185,-2.3648,-2.261,-2.2251,-2.2216,0.0,0.0,0.0,0.0,-1.8014,-1.9003,-1.8017,-1.9375,-2.1394,-2.0299,0.0,0.0,0.0,0.0,0.0,0.0,0.0,-2.154,0.0,0.0,-2.7219,-2.8407,-2.7894,-2.7417,-2.8402,-2.5437,-2.2918,0.0,-2.2796,-2.1175,-1.9931,0.0,0.0,0.0,0.0,-2.4706,-2.4678,-2.6955,-2.8587,-2.8587,-2.8587,-2.8554,-2.8476,-2.8365,-2.8222,-2.8105,-2.802,-2.7424,-2.6266,-2.7345,-2.6534,0.0,0.0,0.0,0.0,0.0,0.0,0.0,0.0,0.0,0.0,0.0,0.0,0.0,0.0,0.0,0.0,0.0,0.0,0.0,0.0,0.0,0.0,0.0,0.0,0.0,0.0,0.0,0.0,-1.9551,-2.0468,-2.129,-2.1324,-2.0918,0.0,0.0,0.0,0.0,0.0,0.0,-2.2311,-2.2217,-2.2676,-2.3915,-2.4654,-2.5342,-2.5993,-2.7017,-2.7527,-2.7615,-2.7511,-2.7322,-2.7035,-2.6555,-2.6091,-2.5686,-2.5302,-2.5192,-2.5191,-2.3673,-2.3314,-2.3607,-2.2201,-2.1164,-2.0366,-1.9705,-2.0055,-2.0754,-1.9653,-2.1012,-2.2988,-2.1554,-2.1293,-2.1397,-2.0679,0.0,0.0,0.0,0.0,-2.2235,-2.4752,-2.5748,-2.6507,-2.8211,-2.8587,-2.8587,-2.8587,-2.6945,-2.5561,0.0,-2.4692,-2.3147,-2.1559,0.0,0.0,0.0,0.0,-2.5887,-2.5858,-2.7474,-2.8587,-2.8587,-2.8587,-2.8587,-2.8587,-2.8476,-2.8352,-2.8287,-2.8216,-2.8066,-2.7888,-2.8,-2.7466,-2.6134,0.0,0.0,0.0,0.0,0.0,0.0,0.0,0.0,0.0,0.0,0.0,0.0,0.0,0.0,0.0,0.0,0.0,0.0,0.0,0.0,0.0,0.0,0.0,0.0,0.0,0.0,0.0,0.0,0.0,-2.405,-2.4565,0.0,0.0,0.0,0.0,-2.1361,-2.1407,-2.2169,-2.3703,-2.4149,-2.508,-2.6736,-2.6964,-2.7065,-2.7136,-2.7936,-2.8163,-2.7903,-2.8429,-2.7998,-2.665,-2.6857,-2.618,-2.4886,-2.517,-2.5276,-2.53,-2.5203,-2.5282,-2.5322,-2.3786,-2.2994,-2.2503,-2.0571,-2.1097,-2.2615,-2.1548,-2.2599,-2.4398,-2.4304,-2.3087,-2.1282,-1.9111,-1.8682,0.0,0.0,-2.1301,-2.3941,-2.3985,-2.6197,-2.8446,-2.8573,-2.8587,-2.8587,-2.8587,-2.761,-2.7067,0.0,-2.6524,-2.5059,-2.5507,0.0,-2.5085,-2.3257,-2.4637,-2.5858,-2.5711,-2.7412,-2.8587,-2.8587,-2.8587,-2.8587,-2.8587,-2.8587,-2.8509,-2.832,-2.8287,-2.8235,-2.8079,-2.8079,-2.8039,-2.7992,-2.5718,0.0,0.0,0.0,0.0,0.0,0.0,0.0,0.0,0.0,0.0,0.0,0.0,0.0,0.0,0.0,0.0,0.0,0.0,0.0,0.0,0.0,0.0,0.0,0.0,0.0,0.0,0.0,0.0,-2.4042,-2.4199,0.0,-2.3737,-2.3346,-2.3253,-2.3701,-2.4093,-2.4914,-2.6255,-2.6324,-2.6736,-2.7679,-2.7795,-2.7957,-2.8218,-2.8514,-2.8642,-2.8673,-2.84,-2.7947,-2.7278,-2.6114,-2.523,-2.4563,-2.3896,-2.3755,-2.3961,-2.3961,-2.4526,-2.5334,-2.4572,-2.4197,-2.4033,-2.3176,-2.341,-2.4034,-2.3554,-2.4102,-2.5,-2.4778,-2.4085,-2.3144,-2.2327,-2.2201,-2.2393,-2.282,-2.389,-2.4973,-2.5403,-2.6707,-2.7894,-2.7894,-2.8235,-2.8587,-2.8587,-2.8261,-2.8085,-2.8519,-2.7284,-2.6117,-2.5928,-2.6864,-2.7026,-2.5194,-2.647,-2.7623,-2.7561,-2.8161,-2.8587,-2.8587,-2.8587,-2.8587,-2.8587,-2.8059,-2.7927,-2.8444,-2.7914,-2.7769,-2.8203,-2.836,-2.8308,-2.8112,-2.7543,-2.5785,0.0,0.0,0.0,0.0,0.0,0.0,0.0,0.0,0.0,0.0,0.0,0.0,0.0,0.0,0.0,0.0,0.0,0.0,0.0,0.0,0.0,0.0,0.0,0.0,0.0,0.0,-2.2743,-2.3673,-2.3989,-2.4201,-2.4434,-2.4232,-2.4546,-2.5536,-2.6056,-2.6711,-2.7555,-2.7582,-2.7768,-2.8263,-2.8367,-2.8559,-2.8908,-2.8908,-2.8972,-2.9099,-2.8333,-2.769,-2.7038,-2.5688,-2.4345,-2.3131,-2.3189,-2.2936,-2.2556,-2.3059,-2.3804,-2.4661,-2.4696,-2.4732,-2.4732,-2.4671,-2.4706,-2.4754,-2.4502,-2.4622,-2.4897,-2.467,-2.4418,-2.42,-2.42,-2.42,-2.4298,-2.479,-2.5099,-2.5476,-2.6208,-2.6744,-2.7183,-2.7438,-2.7696,-2.7941,-2.8183,-2.7779,-2.7633,-2.8432,-2.7949,-2.7094,-2.6063,-2.6877,-2.7067,-2.5234,-2.5993,-2.6782,-2.6766,-2.7311,-2.7678,-2.7678,-2.8234,-2.849,-2.8249,-2.7338,-2.7051,-2.7723,-2.6824,-2.6661,-2.7411,-2.7117,-2.6782,-2.6505,-2.6211,-2.4696,-2.2009,0.0,0.0,0.0,0.0,0.0,0.0,0.0,0.0,0.0,0.0,0.0,0.0,0.0,0.0,0.0,0.0,0.0,0.0,0.0,0.0,0.0,0.0,0.0,-2.0176,-2.1955,-2.3228,-2.3295,-2.4327,-2.5263,-2.5862,-2.593,-2.6185,-2.6809,-2.7081,-2.7297,-2.7445,-2.7827,-2.8167,-2.8524,-2.8643,-2.8803,-2.9016,-2.9071,-2.9099,-2.9099,-2.8333,-2.7262,-2.5909,-2.565,-2.3692,-2.0618,-2.3087,-2.3052,-2.1339,-2.2765,-2.3384,-2.3455,-2.4255,-2.453,-2.4556,-2.4826,-2.485,-2.4671,-2.4253,-2.4131,-2.4177,-2.4189,-2.42,-2.42,-2.4212,-2.4212,-2.4223,-2.4235,-2.4765,-2.5466,-2.6188,-2.6408,-2.6602,-2.7302,-2.693,-2.6636,-2.7369,-2.6261,-2.5766,-2.8142,-2.8576,-2.8039,-2.628,-2.5968,-2.5327,-2.3501,-2.3271,0.0,-2.3218,-2.4797,-2.5909,-2.5937,-2.7439,-2.8195,-2.753,-2.6445,-2.5889,-2.6083,-2.5109,-2.4899,-2.575,-2.4431,-2.359,-2.3477,-2.1624,-2.1607,-2.3531,0.0,0.0,0.0,0.0,0.0,0.0,0.0,0.0,0.0,0.0,0.0,0.0,0.0,0.0,0.0,0.0,0.0,0.0,0.0,0.0,0.0,0.0,-2.2975,-2.3383,-2.3378,-2.3792,-2.5007,-2.5436,-2.5797,-2.6164,-2.6426,-2.6977,-2.8021,-2.785,-2.8051,-2.8809,-2.7358,-2.6648,-2.6905,-2.6784,-2.6828,-2.7081,-2.8436,-2.9099,-2.9099,-2.7815,-2.6912,-2.6363,-2.4888,-2.342,-2.2099,-2.2788,-2.257,-2.1778,-2.2559,-2.2891,-2.2926,-2.3131,-2.3222,-2.3245,-2.3305,-2.3294,-2.3167,-2.2382,-2.2787,-2.3671,-2.4074,-2.42,-2.4258,-2.4613,-2.4717,-2.4797,-2.5187,-2.5442,-2.562,-2.5845,-2.6281,-2.6749,-2.6956,-2.7234,-2.7546,-2.7761,-2.743,-2.731,-2.7956,-2.8081,-2.8019,-2.788,-2.7402,-2.6878,-2.6372,-2.5864,0.0,-2.5512,-2.5941,-2.6409,-2.6726,-2.5923,-2.5852,-2.7119,-2.4986,-2.4298,-2.598,-2.5166,-2.498,-2.5765,-2.5416,-2.5114,-2.4944,-2.2742,-2.1858,0.0,0.0,0.0,0.0,0.0,0.0,0.0,0.0,0.0,0.0,0.0,0.0,0.0,0.0,0.0,0.0,0.0,0.0,0.0,0.0,0.0,0.0,-2.218,-2.4138,-2.5379,-2.4924,-2.4833,-2.5911,-2.6234,-2.6583,-2.7037,-2.7275,-2.7772,-2.8753,-2.8547,-2.865,-2.9243,-2.7987,-2.6996,-2.6436,-2.6969,-2.6983,-2.6436,-2.7913,-2.8643,-2.861,-2.7157,-2.6217,-2.5809,-2.46,-2.3179,-2.1789,-2.2857,-2.2662,-2.1675,-2.2616,-2.2995,-2.2995,0.0,0.0,0.0,0.0,-2.3316,-2.3271,-2.2695,-2.3041,-2.3808,-2.4338,-2.4499,-2.459,-2.5096,-2.476,-2.4324,-2.4634,-2.4303,-2.4019,-2.4971,-2.5282,-2.5642,-2.6581,-2.6887,-2.705,-2.7385,-2.6882,-2.6695,-2.7702,-2.7326,0.0,-2.789,-2.7071,-2.5941,-2.4928,-2.4426,-2.4173,-2.414,-2.4789,-2.5353,-2.5665,-2.5297,-2.5407,-2.6276,-2.4368,0.0,0.0,0.0,-2.3628,-2.3732,-2.3766,0.0,0.0,0.0,-2.0738,-2.1699,-2.0267,0.0,0.0,-2.0524,-2.0356,0.0,0.0,0.0,0.0,0.0,0.0,0.0,0.0,0.0,0.0,0.0,0.0,0.0,0.0,0.0,0.0,-2.2674,-2.434,-2.6441,-2.6373,-2.6165,-2.6299,-2.6864,-2.7487,-2.8146,-2.8257,-2.8519,-2.9058,-2.9099,-2.9099,-2.9131,0.0,0.0,0.0,0.0,-2.8044,-2.6578,-2.7512,-2.7986,-2.7953,-2.6467,-2.544,-2.4842,-2.459,-2.3109,-2.0882,-2.319,-2.3144,-2.1558,-2.2914,-2.3488,-2.3488,-2.3373,-2.3327,-2.3361,-2.3672,-2.3879,-2.4016,-2.3959,0.0,0.0,-2.4832,-2.5004,-2.5107,-2.5635,-2.4817,-2.3763,-2.382,-2.2891,-2.2344,-2.4291,-2.4331,-2.4357,-2.6368,-2.6329,-2.6031,-2.67,-2.5622,-2.5206,-2.7385,-2.6535,-2.5783,-2.6867,-2.5769,-2.4038,-2.1832,-2.1489,-2.1459,-2.1459,-2.2858,-2.3882,-2.3914,-2.5165,0.0,-2.5313,-2.4168,-2.3526,-2.3649,-2.2719,-2.1834,-2.1203,-2.1135,-2.072,-1.9806,-1.8885,-1.9474,-2.1728,-2.0857,-2.1244,-2.2733,-2.1625,-2.2141,0.0,0.0,0.0,0.0,0.0,0.0,0.0,0.0,0.0,0.0,0.0,0.0,0.0,0.0,0.0,-2.3812,-2.5117,-2.6272,-2.6927,-2.73,-2.7362,-2.6971,-2.7558,-2.8033,-2.8188,-2.8643,-2.8975,-2.9085,-2.9099,-2.9162,-2.932,-2.7398,-2.6383,-2.6593,-2.6553,-2.6483,-2.6365,-2.7436,-2.792,-2.7736,0.0,0.0,-2.5191,-2.454,-2.3742,-2.288,-2.381,-2.3741,-2.3029,-2.3764,-2.4051,-2.3971,-2.3144,-2.2823,-2.273,-2.1668,-2.2026,-2.2949,-2.2625,-2.3248,-2.4349,-2.5268,-2.5566,-2.5658,-2.6163,-2.6157,0.0,-2.6342,-2.625,-2.6117,-2.6563,-2.6564,-2.6577,-2.7025,-2.7013,-2.6932,-2.7082,-2.6588,-2.6331,-2.7174,-2.6508,-2.5871,-2.611,-2.5973,-2.5534,-2.476,-2.4134,-2.3875,-2.419,-2.4536,-2.4886,-2.5257,-2.419,-2.3828,-2.4881,-2.3282,-2.2694,-2.3759,-2.336,-2.2975,-2.2841,-2.2696,-2.2491,-2.2314,-2.2108,-2.2187,-2.2567,-2.2546,-2.2731,-2.3105,-2.2587,-2.2936,0.0,0.0,0.0,0.0,0.0,0.0,0.0,0.0,0.0,0.0,0.0,-2.1229,0.0,0.0,-2.2548,-2.4184,-2.4795,-2.5744,-2.7769,-2.8041,-2.7971,-2.7817,-2.8407,-2.8844,-2.8906,-2.9171,-2.9352,-2.9352,-2.9289,-2.9289,-2.9383,-2.8,-2.7014,-2.6621,-2.6679,-2.6397,-2.5758,-2.6356,-2.6582,-2.648,-2.53,-2.4754,-2.4754,-2.437,-2.4062,-2.3833,-2.4085,-2.4051,-2.3808,-2.4097,-2.42,-2.4143,-2.3638,-2.3442,-2.3386,-2.2661,-2.3018,-2.3764,-2.3547,-2.4145,-2.5084,-2.5842,-2.6094,-2.6186,-2.6691,-2.6301,-2.575,-2.5991,-2.5532,-2.513,-2.5876,-2.6032,-2.6227,-2.7007,-2.719,-2.719,-2.719,-2.6839,-2.6569,-2.6798,-2.6354,-2.5812,-2.5591,-2.5623,-2.5514,-2.505,-2.4662,-2.4562,-2.4981,-2.4998,-2.5177,-2.5627,-2.4568,-2.4097,-2.4855,-2.3668,-2.3209,-2.3852,-2.3519,-2.3298,-2.3298,-2.3113,-2.3001,-2.3001,-2.3001,-2.3029,-2.3053,-2.3234,-2.3333,-2.3294,-2.3242,-2.3613,0.0,0.0,0.0,0.0,0.0,0.0,0.0,0.0,-2.1237,-2.1419,-2.1641,-2.1757,-2.1665,-2.1524,-2.2253,-2.4758,-2.47,-2.5439,-2.8645,-2.8722,-2.8504,-2.8689,-2.9153,-2.9477,-2.9571,-2.9602,-2.9571,-2.954,-2.9446,-2.9383,-2.9352,-2.9035,-2.8312,-2.706,-2.7579,-2.716,-2.5655,-2.5611,-2.5511,-2.5276,-2.4539,-2.42,-2.42,-2.42,-2.42,-2.42,-2.42,-2.42,-2.42,-2.42,-2.42,-2.42,-2.42,-2.4258,-2.4338,-2.4338,-2.4579,-2.4946,-2.5142,-2.5497,-2.5945,-2.649,-2.6651,-2.6731,-2.7105,-2.6319,-2.536,-2.536,-2.4499,-2.3844,-2.505,-2.536,-2.5643,-2.6892,-2.719,-2.719,-2.719,-2.6757,-2.6415,-2.6487,-2.6052,-2.5559,-2.5242,-2.5115,-2.4956,-2.454,-2.4472,-2.4595,-2.5079,-2.5147,-2.5307,-2.567,-2.5306,-2.4992,-2.4786,-2.4271,-2.397,-2.397,-2.3641,-2.3409,-2.3372,-2.315,-2.3038,-2.3001,-2.3001,-2.3113,-2.3372,-2.3519,-2.3609,-2.3627,-2.3676,-2.412,-1.8152,-1.724,-1.7124,-1.8524,-1.933,-2.0029,0.0,0.0,-2.4245,-2.3821,-2.4595,-2.5626,-2.6592,-2.6106,-2.6128,-2.8005,-2.7947,-2.8055,-2.9191,-2.9317,-2.9317,-2.9473,-2.9529,-2.9571,-2.9602,-2.9602,-2.954,-2.9415,-2.9415,-2.932,-2.9131,-2.9099,-2.8921,-2.8543,-2.8957,-2.8547,-2.7249,-2.6907,-2.6227,-2.5276,-2.4539,-2.42,-2.42,-2.42,-2.42,-2.42,-2.42,-2.42,-2.42,-2.42,-2.42,-2.42,-2.42,-2.4453,-2.4832,-2.4832,-2.4866,-2.505,-2.6007,-2.6375,-2.6501,-2.6978,-2.711,-2.711,-2.7167,-2.7064,-2.6926,-2.6926,-2.68,-2.672,-2.6881,-2.6926,-2.6972,-2.7144,-2.719,-2.719,-2.719,-2.6561,-2.6052,-2.6445,-2.5496,-2.4786,-2.5158,-2.4871,-2.454,-2.4497,-2.4498,-2.467,-2.5126,-2.5556,-2.5785,-2.5788,-2.5688,-2.5256,-2.4349,-2.4223,-2.4164,-2.4164,-2.397,-2.3751,-2.3556,-2.3372,-2.3187,-2.3001,-2.3001,-2.3187,-2.3556,-2.3604,-2.3863,-2.4361,-2.3909,-2.4151,-1.894,-1.9284,-1.9913,0.0,-2.1319,-2.2193,-2.2895,-2.3831,-2.4562,-2.4614,-2.5315,-2.6075,-2.6694,-2.5925,-2.595,0.0,-2.7584,-2.7384,-2.9254,-2.9446,-2.9446,-2.9571,-2.897,-2.8394,-2.8015,-2.897,-2.9091,-2.7847,-2.866,-2.9131,-2.894,-2.9173,-2.9122,-2.8632,-2.8601,-2.8174,-2.7272,-2.626,-2.5505,-2.5068,-2.4472,-2.42,-2.42,-2.42,-2.4349,-2.4613,-2.4613,-2.4786,-2.5073,-2.5073,-2.5073,-2.5073,-2.5073,-2.5199,-2.5337,-2.5027,-2.5302,-2.5876,-2.6352,-2.6657,-2.6944,-2.7121,-2.719,-2.719,-2.719,-2.719,-2.719,-2.719,-2.719,-2.719,-2.719,-2.719,-2.719,-2.719,-2.719,-2.7138,-2.6839,-2.6302,-2.5853,-2.5737,-2.5073,-2.454,-2.4743,-2.4625,-2.4497,-2.4497,-2.4497,-2.4668,-2.5158,-2.5591,-2.5859,-2.5763,-2.5725,-2.5302,-2.4281,-2.42,-2.42,-2.42,-2.4007,-2.3824,-2.3593,-2.3519,-2.3335,-2.3001,-2.3113,-2.3187,-2.3261,-2.3494,-2.3751,-2.397,-2.3982,-2.4189,-1.9684,-2.0501,-2.1261,-2.1796,-2.2609,-2.3463,-2.4197,-2.4436,-2.4633,-2.518,-2.5717,-2.6185,-2.6628,-2.6114,-2.6299,-2.8407,-2.7642,-2.7434,-2.9319,-2.9509,-2.9366,-2.9139,-2.831,-2.7285,-2.5921,-2.7804,-2.8629,-2.7457,-2.8629,-2.9284,-2.9058,-2.9321,-2.9199,-2.8672,-2.8275,-2.7705,-2.7025,-2.6007,-2.5382,-2.513,-2.4636,-2.4395,-2.4395,-2.4395,-2.4659,-2.513,-2.513,-2.536,-2.5716,-2.5716,-2.5716,-2.5716,-2.5716,-2.5796,-2.5876,-2.5486,-2.5819,-2.6524,-2.6662,-2.6921,-2.719,-2.719,-2.719,-2.719,-2.719,-2.719,-2.719,-2.719,-2.719,-2.719,-2.7149,-2.7108,-2.7108,-2.7108,-2.7056,-2.6933,-2.6569,-2.6124,-2.5675,-2.5285,-2.4828,-2.4497,-2.4497,-2.4497,-2.4497,-2.4497,-2.4497,-2.4615,-2.4946,-2.5506,-2.5853,-2.5702,-2.5716,-2.5302,-2.4281,-2.42,-2.42,-2.42,-2.4043,-2.3897,-2.3677,-2.3666,-2.3482,-2.3075,-2.3224,-2.3261,-2.315,-2.3409,-2.3556,-2.3677,-2.397,-2.4164,-2.0089,-1.9623,-1.9243,-2.1452,-2.221,-2.2811,-2.4171,-2.4765,-2.5196,-2.5925,-2.6249,-2.6693,-2.7742,-2.818,-2.8619,-2.9244,-2.9439,-2.9518,-2.9602,-2.9602,-2.9167,-2.8002,-2.7833,-2.6596,0.0,-2.602,-2.8266,-2.9247,-2.9835,-3.0034,-2.9673,-2.9493,-2.9298,-2.9099,-2.8505,-2.7766,-2.6824,-2.6975,-2.6588,-2.5681,-2.5142,-2.4889,-2.4889,-2.4889,-2.5187,-2.5693,-2.5693,-2.5693,-2.5716,-2.5716,-2.5716,-2.5716,-2.5716,-2.6014,-2.6478,-2.6467,-2.6478,-2.6582,-2.7036,-2.7179,-2.719,-2.719,-2.719,-2.719,-2.719,-2.719,-2.719,-2.719,-2.719,-2.7149,-2.6974,-2.6891,-2.6891,-2.6891,-2.6768,-2.6592,-2.6528,-2.5988,-2.5454,-2.5242,-2.4828,-2.4497,-2.4497,-2.4497,-2.4497,-2.4497,-2.4497,-2.4497,-2.4497,-2.5348,-2.5853,-2.5702,-2.5716,-2.5302,-2.4281,-2.42,-2.42,-2.42,-2.4189,-2.4091,-2.3897,-2.3897,-2.3703,-2.3298,-2.3298,-2.3372,-2.3593,-2.3409,-2.3519,-2.3897,-2.3897,-2.4007,-1.9359,-2.0225,-2.1316,-2.2057,-2.2893,-2.3673,-2.4242,-2.4842,-2.5365,-2.5758,-2.59,-2.6124,-2.6695,-2.6222,-2.6269,-2.7947,-2.6946,-2.6821,-2.9265,-2.7481,-2.6666,-2.8624,-2.7143,0.0,0.0,0.0,0.0,-2.6823,-2.9063,-3.0106,-2.9326,-2.9622,-2.9273,-2.815,-2.8306,-2.7972,-2.7062,-2.6831,-2.655,-2.6209,-2.5693,-2.544,-2.544,-2.544,-2.5727,-2.6249,-2.6249,-2.6404,-2.6714,-2.6714,-2.6714,-2.6714,-2.6714,-2.6829,-2.6967,-2.6967,-2.6967,-2.7001,-2.7174,-2.719,-2.719,-2.719,-2.719,-2.719,-2.719,-2.719,-2.7231,-2.7371,-2.7219,-2.7015,-2.7074,-2.7115,-2.7115,-2.7115,-2.7033,-2.691,-2.6569,-2.6124,-2.5633,-2.5285,-2.5073,-2.4946,-2.4946,-2.4861,-2.47,-2.454,-2.4497,-2.4711,-2.5348,-2.5686,-2.5853,-2.5702,-2.5716,-2.5302,-2.4281,-2.42,-2.42,-2.42,-2.42,-2.4116,-2.3897,-2.4043,-2.3897,-2.3519,-2.3482,-2.3482,-2.3409,-2.3335,-2.3446,-2.3703,-2.3824,-2.4007,-1.995,-2.1185,-2.2438,-2.2884,-2.3623,-2.4313,-2.4628,-2.5207,-2.5786,-2.6307,-2.6434,-2.647,-2.6458,-2.5654,-2.5548,-2.7098,-2.6064,-2.6077,-2.9013,-2.7493,-2.6736,-2.8505,-2.7042,-2.6469,0.0,0.0,0.0,-2.6154,-2.8293,-2.9349,-2.8582,-2.862,-2.8437,-2.7945,-2.7977,-2.7765,-2.719,-2.6898,-2.6685,-2.6501,-2.6129,-2.598,-2.598,-2.598,-2.5904,-2.5781,-2.6467,-2.6559,-2.6249,-2.6932,-2.719,-2.719,-2.719,-2.719,-2.719,-2.719,-2.719,-2.719,-2.719,-2.719,-2.719,-2.719,-2.726,-2.7301,-2.7301,-2.7383,-2.7476,-2.7615,-2.733,-2.7003,-2.7074,-2.6951,-2.6869,-2.7033,-2.691,-2.6693,-2.6528,-2.6135,-2.5686,-2.5285,-2.52,-2.52,-2.52,-2.5031,-2.4818,-2.4658,-2.4583,-2.4796,-2.5549,-2.5481,-2.5368,-2.5239,-2.5108,-2.4755,-2.4039,-2.397,-2.4043,-2.42,-2.42,-2.4152,-2.4007,-2.4127,-2.4043,-2.3703,-2.3714,-2.3593,-2.3409,-2.3482,-2.3519,-2.3482,-2.3861,-2.4007,-2.1629,-2.2294,-2.2589,-2.3809,-2.4303,-2.4693,-2.5236,-2.5794,-2.6442,-2.7393,-2.7635,-2.7482,0.0,0.0,-2.6097,-2.6671,-2.6631,-2.7099,-2.8747,-2.916,-2.8836,0.0,0.0,0.0,0.0,0.0,0.0,-2.7292,0.0,-2.7974,-2.7587,-2.6772,-2.6974,-2.8374,-2.7615,-2.719,-2.719,-2.719,-2.699,-2.6547,-2.6547,-2.6547,-2.6547,-2.6547,-2.5804,-2.4622,-2.6432,-2.618,-2.4669,-2.6478,-2.719,-2.719,-2.719,-2.719,-2.719,-2.719,-2.719,-2.719,-2.719,-2.719,-2.719,-2.7231,-2.733,-2.7482,-2.751,-2.7655,-2.7841,-2.7893,-2.7534,-2.7103,-2.6921,-2.6561,-2.6354,-2.6809,-2.6437,-2.6052,-2.6445,-2.6041,-2.5559,-2.5285,-2.5242,-2.5242,-2.52,-2.5073,-2.4946,-2.4903,-2.468,-2.4669,-2.5126,-2.4764,-2.4459,-2.4392,-2.4062,-2.3753,-2.3601,-2.3641,-2.3787,-2.4164,-2.42,-2.42,-2.42,-2.42,-2.4116,-2.3934,-2.3897,-2.3824,-2.3641,-2.3787,-2.3677,-2.3335,-2.3934,-2.4007,-2.0531,-2.2008,-2.3676,-2.4018,-2.4485,-2.4928,-2.5086,-2.6047,-2.6716,-2.6001,-2.5306,-2.4524,0.0,0.0,0.0,-2.4614,-2.3768,0.0,-2.6945,-2.6176,0.0,-2.6504,0.0,-2.7159,-2.8557,-2.9047,0.0,0.0,-2.9126,-2.9617,-2.8322,-2.8048,-2.7818,-2.7522,-2.7301,-2.719,-2.719,-2.719,-2.7121,-2.7036,-2.7036,-2.7036,-2.7036,-2.7036,-2.6829,-2.6524,-2.7001,-2.6932,-2.6496,-2.7013,-2.719,-2.719,-2.719,-2.719,-2.719,-2.719,-2.719,-2.719,-2.719,-2.719,-2.7231,-2.7371,-2.7371,-2.7342,-2.7667,-2.7505,-2.7219,-2.7534,-2.7044,-2.6467,-2.658,-2.6787,-2.6992,-2.7115,-2.6981,-2.6899,-2.6981,-2.6373,-2.5812,-2.5728,-2.5728,-2.5675,-2.5506,-2.5475,-2.5338,-2.5158,-2.4756,-2.4534,-2.4668,-2.4562,-2.4371,-2.3984,-2.4133,-2.4055,-2.3638,-2.3861,-2.408,-2.4189,-2.42,-2.42,-2.42,-2.42,-2.4164,-2.4116,-2.397,-2.3861,-2.3824,-2.3714,-2.3703,-2.3751,-2.4043,-2.4164,-2.1707,-2.2884,-2.4083,-2.4083,-2.4543,-2.4926,-2.4661,-2.5489,-2.5959,-2.4717,-2.4249,0.0,-2.2179,0.0,0.0,0.0,0.0,0.0,-2.6204,-2.573,-2.5396,0.0,-2.6293,0.0,-2.9651,-2.9502,-2.906,0.0,-2.8713,-2.8413,-2.7466,-2.7121,-2.7011,-2.7208,-2.719,-2.719,-2.719,-2.719,-2.719,-2.719,-2.719,-2.7097,-2.688,-2.7097,-2.6657,-2.5739,-2.676,-2.6726,-2.6058,-2.6864,-2.719,-2.719,-2.719,-2.719,-2.719,-2.719,-2.7149,-2.7067,-2.7067,-2.7026,-2.7015,-2.736,-2.7574,-2.7667,-2.7841,-2.7638,-2.7342,-2.7482,-2.6951,-2.6385,-2.6487,-2.6569,-2.6663,-2.6857,-2.6775,-2.6663,-2.6857,-2.6373,-2.5895,-2.5895,-2.5895,-2.5853,-2.5728,-2.5644,-2.5484,-2.5091,-2.472,-2.4329,-2.3945,-2.3801,-2.3599,-2.3274,-2.3422,-2.3484,-2.3357,-2.3714,-2.4007,-2.42,-2.42,-2.42,-2.42,-2.42,-2.42,-2.42,-2.408,-2.4043,-2.4043,-2.4091,-2.408,-2.4043,-2.4406,-2.4442,-2.3535,-2.3942,-2.4109,-2.4217,-2.4661,-2.5005,-2.4557,-2.4833,-2.4873,-2.3712,0.0,-2.3464,-2.1955,-2.1429,-2.1928,-2.3968,0.0,-2.4373,-2.5384,-2.6217,-2.6524,-2.5991,-2.6113,-2.7324,-2.9956,-2.9258,-2.888,-2.9488,-2.7553,-2.627,-2.6171,-2.5561,-2.5803,-2.7144,-2.719,-2.719,-2.719,-2.719,-2.719,-2.719,-2.719,-2.7015,-2.661,-2.7015,-2.6058,-2.4262,-2.6291,-2.6232,-2.49,-2.6547,-2.719,-2.719,-2.719,-2.719,-2.719,-2.719,-2.7056,-2.6891,-2.6891,-2.6768,-2.6727,-2.7237,-2.7684,-2.7978,-2.7829,-2.776,-2.7638,-2.7441,-2.6899,-2.6445,-2.6487,-2.6249,-2.6093,-2.6487,-2.629,-2.6093,-2.6404,-2.6166,-2.5895,-2.5895,-2.5895,-2.5895,-2.5895,-2.5684,-2.5406,-2.4921,-2.4607,-2.4092,-2.3261,-2.2921,-2.2705,-2.2447,-2.2418,-2.2553,-2.2964,-2.3372,-2.3787,-2.4164,-2.42,-2.42,-2.42,-2.42,-2.42,-2.42,-2.42,-2.42,-2.42,-2.4538,-2.4538,-2.4164,-2.4766,-2.473,-2.235,-2.3042,-2.423,-2.473,-2.5249,-2.5772,-2.617,-2.57,0.0,0.0,-2.2326,-2.1388,-2.0984,-2.0989,-2.1425,-2.2591,0.0,0.0,0.0,0.0,-2.5784,0.0,0.0,0.0,0.0,0.0,0.0,0.0,-2.7679,-2.703,-2.699,-2.6869,-2.6915,-2.7179,-2.719,-2.719,-2.719,-2.719,-2.719,-2.719,-2.719,-2.7149,-2.7097,-2.6974,-2.6832,-2.6605,-2.6867,0.0,-2.6737,-2.7082,-2.719,-2.719,-2.719,-2.719,-2.719,-2.719,-2.7056,-2.6891,-2.6891,-2.6891,-2.685,-2.6974,-2.6974,-2.6921,-2.7237,-2.6921,-2.652,-2.6663,-2.6332,-2.6093,-2.6404,-2.6445,-2.6528,-2.6981,-2.6734,-2.6404,-2.6487,-2.6166,-2.5895,-2.5895,-2.5895,-2.5895,-2.5895,-2.5568,-2.5232,-2.5134,-2.4407,-2.3725,-2.3408,-2.3037,-2.2657,-2.2192,-2.2305,-2.2553,-2.2964,-2.3372,-2.3787,-2.4164,-2.42,-2.42,-2.42,-2.42,-2.42,-2.42,-2.42,-2.42,-2.42,-2.4273,-2.4189,-2.397,-2.4562,-2.4526,-2.2062,-2.2807,-2.4243,-2.4861,-2.5393,-2.5623,-2.5027,0.0,0.0,0.0,-2.1091,-2.0682,-2.0294,0.0,0.0,0.0,0.0,0.0,0.0,0.0,0.0,0.0,0.0,0.0,0.0,0.0,0.0,-2.7193,-2.6519,-2.633,-2.7144,-2.719,-2.719,-2.719,-2.719,-2.719,-2.719,-2.719,-2.719,-2.719,-2.719,-2.7056,-2.6839,-2.6974,-2.6933,-2.6704,-2.6933,-2.6622,-2.591,-2.6817,-2.6709,-2.6067,-2.6869,-2.719,-2.719,-2.719,-2.7138,-2.7074,-2.7074,-2.6921,-2.6704,-2.6704,-2.6787,-2.691,-2.7033,-2.6704,-2.6343,-2.6343,-2.6135,-2.5937,-2.6135,-2.6177,-2.6249,-2.6456,-2.6332,-2.6177,-2.6177,-2.6021,-2.5895,-2.5895,-2.5895,-2.5819,-2.5568,-2.5368,-2.504,-2.4497,-2.4028,-2.3596,-2.3232,-2.2934,-2.262,-2.2283,-2.2628,-2.2964,-2.315,-2.3641,-2.397,-2.42,-2.42,-2.42,-2.42,-2.42,-2.42,-2.42,-2.42,-2.42,-2.42,-2.4309,-2.4309,-2.4236,-2.449,-2.4526,-2.2389,-2.3095,-2.4282,-2.4975,-2.5484,-2.5427,-2.4057,-2.3822,0.0,0.0,-2.036,-2.0438,-2.0205,0.0,0.0,0.0,0.0,0.0,0.0,0.0,0.0,0.0,0.0,0.0,0.0,0.0,0.0,-2.6317,-2.5786,-2.5906,-2.7121,-2.719,-2.719,-2.719,-2.719,-2.719,-2.7149,-2.719,-2.719,-2.7149,-2.719,-2.7015,-2.6663,-2.6933,-2.6798,-2.6279,-2.6768,-2.6041,-2.4657,-2.644,-2.6233,-2.5061,-2.6582,-2.719,-2.7149,-2.7219,-2.7167,-2.6981,-2.7103,-2.6816,-2.6373,-2.6373,-2.661,-2.6899,-2.6715,-2.655,-2.6332,-2.6188,-2.6032,-2.5937,-2.6021,-2.5979,-2.5895,-2.5895,-2.5895,-2.5895,-2.5895,-2.5895,-2.5895,-2.5895,-2.5819,-2.5622,-2.5281,-2.504,-2.4607,-2.3804,-2.3607,-2.3438,-2.3045,-2.2852,-2.2703,-2.2628,-2.2927,-2.3224,-2.3298,-2.3776,-2.4116,-2.4189,-2.42,-2.42,-2.42,-2.42,-2.42,-2.42,-2.42,-2.42,-2.42,-2.4345,-2.4418,-2.4381,-2.4454,-2.4574,-2.3485,-2.3995,-2.4344,-2.544,-2.5754,-2.5754,-2.5584,0.0,0.0,-2.1616,-2.057,-2.0178,-2.1172,-2.1361,-2.1348,0.0,0.0,0.0,0.0,0.0,0.0,0.0,0.0,0.0,0.0,0.0,0.0,-2.695,-2.7013,-2.7041,-2.7179,-2.719,-2.719,-2.719,-2.719,-2.7108,-2.6933,-2.7108,-2.7108,-2.6933,-2.7108,-2.719,-2.7138,-2.6809,-2.6592,-2.6487,-2.6343,-2.5521,0.0,-2.6199,-2.6115,-2.5061,-2.6582,-2.7097,-2.6974,-2.7319,-2.6962,-2.6354,-2.6768,-2.652,-2.5979,-2.5979,-2.5979,-2.6021,-2.5979,-2.5979,-2.5937,-2.5937,-2.5895,-2.5979,-2.6362,-2.6177,-2.5895,-2.5895,-2.5895,-2.5895,-2.5895,-2.5895,-2.5895,-2.5895,-2.5546,-2.527,-2.5215,-2.4443,-2.3793,-2.3705,-2.3351,-2.3056,-2.3012,-2.2964,-2.3038,-2.3187,-2.2927,-2.2889,-2.3261,-2.3519,-2.3824,-2.4164,-2.42,-2.42,-2.42,-2.42,-2.42,-2.42,-2.42,-2.42,-2.42,-2.4236,-2.4116,-2.397,-2.4345,-2.4418,-2.1313,-2.2585,-2.4357,-2.5506,-2.5793,-2.561,-2.4918,0.0,-2.3111,-2.0807,-2.0359,-2.0341,-2.036,-2.0406,-2.0569,0.0,0.0,0.0,0.0,0.0,0.0,0.0,0.0,0.0,0.0,0.0,-2.4194,-2.5716,-2.6101,-2.6548,-2.7156,-2.719,-2.719,-2.719,-2.719,-2.7097,-2.6891,-2.7108,-2.7026,-2.6727,-2.7067,-2.7056,-2.685,-2.6809,-2.6561,-2.6135,-2.6166,-2.5006,0.0,-2.5527,-2.5357,-2.3869,-2.5984,-2.6809,-2.6727,-2.688,-2.6809,-2.6644,-2.6862,-2.6633,-2.6249,-2.6249,-2.6093,-2.5895,-2.5895,-2.5895,-2.5895,-2.5895,-2.5895,-2.5937,-2.6093,-2.6021,-2.5895,-2.5895,-2.5895,-2.5895,-2.5895,-2.5895,-2.5819,-2.5513,-2.5347,-2.5029,-2.4399,-2.3984,-2.3585,-2.3329,-2.3121,-2.3001,-2.3001,-2.3001,-2.3038,-2.3113,-2.3187,-2.3372,-2.3641,-2.3861,-2.4043,-2.42,-2.42,-2.42,-2.42,-2.42,-2.42,-2.42,-2.42,-2.42,-2.42,-2.42,-2.4164,-2.408,-2.4116,-2.4164,-2.0379,-2.2206,-2.4609,-2.5545,-2.5439,-2.4909,0.0,0.0,-2.2472,-2.0137,-2.022,-2.0435,-1.9579,-1.9514,-1.9664,0.0,0.0,-2.1162,0.0,0.0,0.0,0.0,0.0,0.0,0.0,-2.4532,-2.4581,-2.5505,-2.5945,-2.6433,-2.7156,-2.719,-2.719,-2.719,-2.719,-2.7056,-2.6809,-2.7026,-2.6891,-2.6479,-2.685,-2.6744,-2.6176,-2.6509,-2.6229,-2.548,-2.592,-2.4792,0.0,-2.5202,-2.5025,-2.3489,-2.571,-2.6561,-2.6479,-2.6644,-2.6644,-2.658,-2.63,-2.6016,-2.5694,-2.5294,-2.4972,-2.4744,-2.4744,-2.528,-2.5895,-2.5895,-2.5895,-2.5895,-2.5895,-2.5895,-2.5895,-2.5895,-2.5895,-2.5863,-2.571,-2.5677,-2.5546,-2.5065,-2.4847,-2.453,-2.3804,-2.3575,-2.3394,-2.3056,-2.3001,-2.3001,-2.3001,-2.3001,-2.3038,-2.3075,-2.3335,-2.3593,-2.3787,-2.4043,-2.42,-2.42,-2.42,-2.42,-2.42,-2.42,-2.42,-2.42,-2.42,-2.42,-2.42,-2.42,-2.42,-2.42,-2.4043,-2.4091,-2.1797,-2.3642,-2.5123,-2.5649,-2.4601,-2.3556,0.0,0.0,-2.0636,-1.9937,-2.0283,-2.0347,-1.9225,-1.9013,-1.8827,-1.8213,-1.8457,0.0,0.0,0.0,0.0,0.0,0.0,0.0,0.0,-2.6605,-2.6951,-2.7167,-2.7167,0.0,-2.719,-2.719,-2.719,-2.719,-2.719,-2.7026,-2.6603,-2.6809,-2.6655,-2.6199,-2.6479,-2.6087,-2.5128,-2.5869,-2.5565,-2.4476,-2.5469,-2.5036,0.0,-2.5469,-2.5447,-2.444,-2.5968,-2.6437,-2.6282,-2.6727,-2.6479,-2.5788,-2.4906,-2.4302,-2.3722,-2.2469,-2.2042,-2.2042,-2.2042,-2.3826,-2.5895,-2.5895,-2.5895,-2.5895,-2.5895,-2.5895,-2.5895,-2.5895,-2.5895,-2.5764,-2.5325,-2.5215,-2.5084,-2.4585,-2.4093,-2.3705,-2.3694,-2.3329,-2.3012,-2.3001,-2.3001,-2.3001,-2.3001,-2.3001,-2.3075,-2.3261,-2.3298,-2.3372,-2.3604,-2.397,-2.42,-2.42,-2.42,-2.42,-2.42,-2.42,-2.42,-2.42,-2.42,-2.42,-2.42,-2.42,-2.42,-2.42,-2.42,-2.4309,-1.8252,-1.9642,-2.1174,-2.1766,-2.1528,-2.1266,-2.175,0.0,-2.0023,-1.9206,-1.9305,-1.9265,-1.8414,-1.8321,-1.8321,-1.812,-1.843,0.0,0.0,0.0,0.0,0.0,0.0,0.0,0.0,0.0,-2.6405,-2.7133,-2.6417,-2.6246,-2.694,-2.685,-2.6933,-2.719,-2.7067,-2.685,-2.6603,-2.6644,-2.6479,-2.5979,-2.6396,-2.5924,-2.4706,-2.5757,-2.5453,-2.4259,-2.5274,-2.5027,-2.4047,-2.5272,-2.5251,-2.4563,-2.5675,-2.6063,-2.6021,-2.6146,-2.55,-2.4502,-2.422,-2.3464,-2.253,-2.2113,-2.1991,-2.1991,-2.1991,-2.2591,-2.3298,-2.35,-2.4054,-2.4399,-2.375,-2.4735,-2.5683,-2.4733,-2.5217,-2.5764,-2.5314,-2.5215,-2.4934,-2.4126,-2.3804,-2.3585,-2.3296,-2.3099,-2.3001,-2.3001,-2.3001,-2.3001,-2.3001,-2.3001,-2.3038,-2.3075,-2.3224,-2.3335,-2.3372,-2.3751,-2.3934,-2.3787,-2.4043,-2.42,-2.42,-2.42,-2.42,-2.42,-2.42,-2.42,-2.42,-2.42,-2.42,-2.42,-2.4043,-2.4116,0.0,-1.8138,-1.9646,-2.0027,-1.9633,0.0,0.0,0.0,-1.8694,-1.8501,-1.8905,-1.8946,-1.786,-1.7897,-1.7981,-1.7556,-1.8309,0.0,0.0,0.0,0.0,0.0,0.0,0.0,0.0,-2.5369,-2.6018,-2.6917,-2.6273,-2.6113,-2.6734,-2.6685,-2.6727,-2.6985,-2.685,-2.6685,-2.6437,-2.6437,-2.6271,-2.5895,-2.6188,-2.5691,-2.4519,-2.5593,-2.5423,-2.4321,-2.5274,-2.535,0.0,-2.4816,-2.4552,-2.4156,-2.424,-2.4263,-2.4304,-2.4367,-2.3888,-2.3093,-2.2591,-2.1901,-2.1176,-2.0655,-2.0486,-2.0486,-2.0486,-2.13,-2.2225,-2.2438,-2.3016,-2.3412,-2.2683,-2.3925,-2.4988,-2.3525,-2.4586,-2.5583,-2.4441,-2.457,-2.4628,-2.3646,-2.3449,-2.3362,-2.3056,-2.3001,-2.3001,-2.3001,-2.3001,-2.3001,-2.3001,-2.3001,-2.3001,-2.3001,-2.3113,-2.315,-2.3075,-2.3593,-2.3897,-2.3824,-2.4043,-2.42,-2.42,-2.42,-2.42,-2.42,-2.42,-2.42,-2.42,-2.42,-2.42,-2.42,-2.408,-2.408,0.0,0.0,0.0,0.0,0.0,0.0,0.0,0.0,0.0,-1.7886,-1.8846,-1.9073,-1.7578,-1.7773,-1.7779,-1.6736,0.0,0.0,0.0,0.0,0.0,0.0,0.0,0.0,-2.4482,-2.5207,-2.5821,-2.6569,-2.6603,-2.6561,-2.6561,-2.6561,-2.6561,-2.6561,-2.6561,-2.6437,-2.6199,-2.6199,-2.6041,-2.5797,-2.5874,-2.5371,-2.4421,-2.5437,-2.5382,0.0,-2.5491,-2.5853,-2.5695,-2.4242,-2.3617,-2.3369,-2.2138,-2.1632,-2.1644,-2.1889,-2.193,-2.1678,-2.0417,-1.9933,-1.9647,-1.8377,-1.8,-1.8,-1.8025,-2.0017,-2.2217,-2.2246,-2.2619,-2.2862,-2.2372,-2.3313,-2.3965,-2.2395,-2.3878,-2.5096,-2.31,-2.3577,-2.4081,-2.323,-2.3023,-2.3001,-2.3001,-2.3001,-2.3001,-2.3001,-2.3001,-2.3001,-2.3001,-2.3001,-2.3001,-2.3001,-2.3001,-2.2927,-2.2777,-2.3446,-2.3934,-2.4127,-2.4164,-2.42,-2.42,-2.42,-2.42,-2.42,-2.42,-2.42,-2.42,-2.42,-2.42,-2.42,-2.42,-2.42,-1.507,0.0,-1.5841,-1.6201,-1.5731,0.0,0.0,0.0,0.0,0.0,0.0,0.0,0.0,0.0,0.0,0.0,0.0,0.0,0.0,0.0,0.0,0.0,0.0,-2.3537,-2.3641,-2.4926,-2.5983,-2.6558,-2.6396,-2.6271,-2.6271,-2.6146,-2.6063,-2.6063,-2.6063,-2.6115,-2.6199,-2.6074,-2.5576,-2.4836,-2.5557,-2.5011,-2.3405,-2.512,-2.5382,-2.4541,-2.5491,-2.5506,-2.4797,-2.4427,-2.3598,-2.2516,-2.2357,-2.2019,-2.1644,-2.1889,-2.1356,-2.0407,-2.0111,-1.9313,-1.8426,-1.8106,-1.8,-1.8051,-1.8374,-1.8963,-1.9561,-1.988,-2.0762,-2.1318,-2.0238,-2.1471,-2.28,-2.215,-2.2479,-2.3217,-2.433,-2.3729,-2.3073,-2.3449,-2.3263,-2.3001,-2.3001,-2.3001,-2.3001,-2.3001,-2.3001,-2.3001,-2.3001,-2.3001,-2.3001,-2.3001,-2.3001,-2.3038,-2.315,-2.3482,-2.3641,-2.3519,-2.3934,-2.42,-2.42,-2.42,-2.42,-2.42,-2.42,-2.42,-2.42,-2.42,-2.42,-2.42,-2.42,-2.42,-1.443,-1.4454,-1.4571,-1.5244,-1.5072,-1.5059,0.0,0.0,0.0,0.0,0.0,0.0,0.0,0.0,0.0,0.0,0.0,0.0,0.0,0.0,0.0,0.0,0.0,-2.222,0.0,-2.4305,-2.5507,-2.6216,-2.6146,-2.6063,-2.6063,-2.5948,-2.5895,-2.5895,-2.5895,-2.5948,-2.6063,-2.5937,-2.5426,-2.4497,-2.5448,-2.512,-2.3733,-2.5218,-2.5622,-2.5131,-2.4673,-2.447,-2.4383,-2.2697,-2.1659,-2.1109,-2.0627,-2.0139,-1.9711,-1.9925,-1.9634,-1.9088,-1.9088,-1.86,-1.8,-1.8,-1.8111,-1.8331,-1.8528,-1.8836,-1.9162,-1.9376,-2.0044,-2.0518,-1.9488,-2.054,-2.1561,-2.0447,-2.1084,-2.2247,-2.3174,-2.3087,-2.2995,-2.3573,-2.3476,-2.3263,-2.3045,-2.2606,-2.2408,-2.2927,-2.2182,-2.1756,-2.222,-2.2258,-2.2107,-2.1642,-2.1983,-2.2107,-2.1756,-2.2086,-2.251,-2.3001,-2.3065,-2.3091,-2.3091,-2.3091,-2.3287,-2.3629,-2.4007,-2.42,-2.42,-2.42,-2.42,-2.42,-2.42,-2.42,-1.4287,-1.4365,-1.4624,-1.5647,-1.544,-1.5279,0.0,0.0,0.0,0.0,0.0,0.0,0.0,0.0,0.0,0.0,0.0,0.0,0.0,0.0,0.0,0.0,-1.9602,0.0,-2.2416,-2.3744,-2.488,-2.583,-2.5895,-2.5895,-2.5895,-2.5895,-2.5895,-2.5895,-2.5895,-2.5895,-2.5895,-2.5895,-2.5426,-2.4497,-2.5448,-2.5322,-2.431,-2.5252,-2.5591,-2.5347,-2.3591,-2.333,-2.3808,-2.0768,-1.9551,-1.9561,-1.8541,-1.7838,-1.7432,-1.7619,-1.7829,-1.8,-1.8,-1.8,-1.8008,-1.8059,-1.8331,-1.8614,-1.8725,-1.9222,-1.97,-1.97,-2.0009,-2.0121,-1.941,-1.9998,-2.04,-1.8684,-1.9892,-2.139,-2.1349,-2.202,-2.2763,-2.3197,-2.3223,-2.3052,-2.2606,-2.1756,-2.1479,-2.2381,-2.1029,-2.0207,-2.1048,-2.1163,-2.0855,-1.9982,-2.0663,-2.0817,-1.9982,-2.0265,-2.0999,-2.2155,-2.1956,-2.1794,-2.1794,-2.1918,-2.2268,-2.2804,-2.3751,-2.4152,-2.4007,-2.4152,-2.42,-2.42,-2.42,-2.42,-1.3895,-1.4226,-1.4724,-1.6051,-1.5443,-1.4987,0.0,0.0,0.0,0.0,0.0,0.0,0.0,0.0,0.0,0.0,0.0,0.0,0.0,0.0,0.0,-2.003,0.0,-2.2564,-2.2896,-2.3903,-2.488,-2.583,-2.5895,-2.5895,-2.5895,-2.5895,-2.5895,-2.5895,-2.5895,-2.5895,-2.5895,-2.5895,-2.5426,-2.4497,-2.5448,-2.497,-2.3356,-2.4305,-2.4274,-2.3521,-2.3183,-2.2693,-2.2066,-2.1507,-2.0262,-1.8715,-1.8673,-1.8154,-1.7432,-1.7619,-1.7829,-1.8,-1.8,-1.8,-1.8051,-1.84,-1.8545,-1.8708,-1.9324,-1.9606,-1.97,-1.97,-2.0009,-2.0121,-1.941,-1.9342,-1.9554,-1.967,-1.9147,-1.9205,-2.1409,-2.084,-2.0197,-2.1143,-2.1017,-2.0664,-2.0411,-2.0246,-2.0207,-2.0362,-2.009,-1.9982,-2.0129,-2.0129,-2.0051,-1.9943,-2.0051,-2.0051,-1.9894,-1.9502,-1.9502,-2.0021,-2.1145,-2.1794,-2.1794,-2.2456,-2.2531,-2.1993,-2.3434,-2.3861,-2.3187,-2.3861,-2.42,-2.42,-2.42,-2.42,-1.3751,-1.3983,-1.4541,-1.6437,-1.5836,-1.5345,0.0,0.0,0.0,0.0,0.0,0.0,0.0,0.0,0.0,0.0,0.0,-2.147,-2.0992,-2.1308,-2.1365,0.0,0.0,-2.2371,-2.2696,-2.3793,-2.488,-2.583,-2.5895,-2.5895,-2.5895,-2.5895,-2.5895,-2.5895,-2.5895,-2.5895,-2.5895,-2.5895,-2.5426,-2.4497,-2.5448,-2.4929,-2.3154,-2.4084,-2.3973,-2.3057,-2.193,-2.1512,-2.1595,-2.047,-1.9402,-1.8516,-1.8611,-1.8069,-1.7261,-1.7578,-1.7829,-1.8025,-1.8263,-1.8331,-1.84,-1.8776,-1.8905,-1.8973,-1.9333,-1.9436,-1.9436,-1.9436,-1.971,-1.9821,-1.905,-1.8895,-1.8885,-1.8897,-1.8435,-1.8542,-2.0517,-2.0267,-1.9941,-2.0873,-2.0797,-2.0476,-2.0128,-1.9492,-1.9216,-1.9816,-1.8908,-1.8399,-1.8979,-1.9058,-1.8829,-1.8238,-1.8709,-1.878,-1.8238,-1.8135,-1.8425,-1.9073,-1.9952,-2.045,-2.045,-2.1231,-2.169,-2.1794,-2.2953,-2.3593,-2.3641,-2.4007,-2.42,-2.42,-2.42,-2.42,-1.3531,-1.3806,-1.441,-1.6442,0.0,0.0,0.0,0.0,0.0,0.0,0.0,0.0,0.0,0.0,0.0,0.0,-2.1221,-2.2499,-2.1996,-2.192,-2.1813,-2.1499,-2.1824,-2.2316,-2.2897,-2.4007,-2.5,-2.5841,-2.5895,-2.5895,-2.5895,-2.5895,-2.5895,-2.5895,-2.5895,-2.5895,-2.5895,-2.5895,-2.5535,-2.4825,-2.5557,-2.4911,-2.3124,-2.3839,-2.3531,-2.2347,-2.0747,-2.0576,-2.123,-1.9635,-1.8888,-1.8727,-1.8727,-1.8151,-1.7425,-1.7712,-1.7956,-1.8179,-1.8596,-1.8725,-1.8776,-1.9119,-1.9213,-1.9213,-1.9213,-1.9213,-1.9196,-1.9101,-1.9247,-1.929,-1.8742,-1.8588,-1.8494,-1.8085,-1.8,-1.827,-1.9313,-1.9539,-1.9692,-2.0278,-2.0207,-1.9953,-1.9548,-1.8621,-1.8189,-1.9027,-1.7764,-1.7009,-1.7827,-1.7948,-1.7594,-1.6771,-1.744,-1.7594,-1.6771,-1.7147,-1.7725,-1.8491,-1.9033,-1.9301,-1.9301,-2.0265,-2.1039,-2.1489,-2.2681,-2.3482,-2.3934,-2.4116,-2.42,-2.42,-2.42,-2.42,-1.3174,-1.3795,-1.4615,-1.5647,-1.5495,0.0,-1.8709,-1.7479,0.0,-1.8842,0.0,0.0,0.0,0.0,0.0,0.0,-2.1559,-2.1974,-2.2783,0.0,-2.2892,-2.2848,-2.3274,-2.3777,-2.4318,-2.4854,-2.5379,-2.5863,-2.5895,-2.5895,-2.5895,-2.5895,-2.5895,-2.5895,-2.5895,-2.5895,-2.5895,-2.5895,-2.5874,-2.5797,-2.5874,-2.4904,-2.3095,-2.3153,-2.2217,-2.051,-2.0333,-2.0305,-2.0374,-2.0243,-1.9841,-1.9331,-1.9331,-1.8885,-1.8229,-1.8238,-1.8388,-1.8605,-1.9041,-1.917,-1.9179,-1.9204,-1.9213,-1.9213,-1.9213,-1.9213,-1.9136,-1.8733,-1.8648,-1.8656,-1.8596,-1.8588,-1.8494,-1.8085,-1.8,-1.804,-1.8106,-1.8155,-1.8115,-1.7976,-1.7782,-1.7579,-1.7383,-1.7049,-1.6853,-1.6927,-1.6812,-1.673,-1.6812,-1.6812,-1.6771,-1.6697,-1.6771,-1.6771,-1.6697,-1.7147,-1.7595,-1.804,-1.8825,-1.9301,-1.9301,-2.0837,-2.1375,-2.0615,-2.2894,-2.3776,-2.3075,-2.3824,-2.42,-2.42,-2.42,-2.42,-1.3124,-1.3417,-1.416,-1.6212,0.0,0.0,0.0,-1.7562,-1.6923,-1.9344,-1.8133,0.0,0.0,0.0,0.0,-2.1004,-2.1887,-2.2586,-2.2957,-2.3001,-2.3001,-2.3001,-2.3389,-2.3891,-2.4443,-2.4902,-2.5371,-2.5863,-2.5895,-2.5895,-2.5895,-2.5895,-2.5895,-2.5895,-2.5895,-2.5895,-2.5895,-2.5895,-2.5591,-2.502,-2.502,-2.4059,-2.2217,-2.2217,-2.1516,-2.0292,-2.0292,-2.0292,-2.0292,-2.0292,-1.9934,-1.9323,-1.8774,-1.8204,-1.7763,-1.7877,-1.8144,-1.8489,-1.9042,-1.9333,-1.9564,-1.9795,-1.9555,-1.9213,-1.9213,-1.8845,-1.8434,-1.8288,-1.8245,-1.8245,-1.8245,-1.8245,-1.817,-1.8034,-1.8,-1.8,-1.8,-1.8,-1.8,-1.791,-1.7635,-1.7392,-1.731,-1.6976,-1.6689,-1.6689,-1.6689,-1.6689,-1.6689,-1.6689,-1.6689,-1.6689,-1.6689,-1.6689,-1.6689,-1.7147,-1.7554,-1.7951,-1.8563,-1.9033,-1.9301,-1.9913,-2.0343,-2.0498,-2.1945,-2.2793,-2.3001,-2.3824,-2.42,-2.42,-2.42,-2.42,-1.3079,-1.3283,-1.3917,0.0,0.0,0.0,-1.8061,-1.7562,-1.7054,-1.9028,-1.8352,0.0,0.0,0.0,0.0,0.0,-2.192,-2.2663,-2.2957,-2.3001,-2.3001,-2.3001,-2.3569,-2.4104,-2.4454,-2.5043,-2.5546,-2.5874,-2.5895,-2.5895,-2.5895,-2.5895,-2.5895,-2.5895,-2.5895,-2.5895,-2.5895,-2.5895,-2.5285,-2.4059,-2.4059,-2.3226,-2.1695,-2.1695,-2.1168,-2.0292,-2.0292,-2.0223,-2.0129,-2.0331,-2.0228,-1.9829,-1.8981,-1.8423,-1.8061,-1.8135,-1.8346,-1.8676,-1.9179,-1.9598,-1.9896,-2.0069,-1.9769,-1.9307,-1.9067,-1.8622,-1.8145,-1.8034,-1.8,-1.8,-1.8,-1.8,-1.8,-1.8,-1.8,-1.8,-1.8,-1.8,-1.8,-1.8,-1.7716,-1.7473,-1.7392,-1.7066,-1.6812,-1.6689,-1.6689,-1.6689,-1.6689,-1.6689,-1.6689,-1.6689,-1.6689,-1.6689,-1.6689,-1.6976,-1.7351,-1.7797,-1.8129,-1.8603,-1.9262,-1.9529,-1.9923,-2.0508,-2.1614,-2.2456,-2.3001,-2.3824,-2.42,-2.42,-2.42,-2.42,-1.3029,-1.3507,-1.4016,0.0,0.0,0.0,0.0,-1.754,-1.6781,-1.7813,0.0,-2.0719,-2.0183,0.0,0.0,-2.1505,-2.1592,-2.1931,-2.287,-2.3001,-2.3001,-2.3001,-2.3875,-2.4486,-2.4486,-2.5349,-2.5895,-2.5895,-2.5895,-2.5895,-2.5895,-2.5895,-2.5895,-2.5895,-2.5895,-2.5895,-2.5906,-2.5906,-2.4935,-2.3086,-2.3086,-2.2614,-2.1695,-2.1695,-2.1168,-2.0283,-2.0283,-2.0069,-1.9769,-2.0407,-2.0817,-2.0953,-2.0342,-1.9869,-1.9504,-1.9299,-1.9222,-1.9273,-1.9615,-1.9984,-2.0232,-1.9828,-1.97,-1.9554,-1.8828,-1.8596,-1.8519,-1.8111,-1.8008,-1.8008,-1.8008,-1.8008,-1.8008,-1.8,-1.8,-1.8,-1.8,-1.8,-1.8,-1.8,-1.7829,-1.7627,-1.7432,-1.7221,-1.7017,-1.673,-1.6689,-1.6689,-1.6689,-1.6689,-1.6689,-1.6689,-1.6689,-1.6689,-1.6689,-1.6689,-1.6894,-1.7351,-1.7392,-1.7951,-1.9222,-2.0079,-2.0508,-2.0498,-2.2155,-2.3001,-2.3001,-2.3824,-2.42,-2.42,-2.42,-2.42,-1.4258,-1.4016,0.0,0.0,0.0,0.0,0.0,0.0,0.0,0.0,0.0,-1.8956,-1.908,0.0,0.0,-2.1559,-2.2149,-2.2673,-2.2957,-2.3001,-2.3001,-2.3001,-2.3558,-2.4093,-2.4454,-2.5033,-2.5524,-2.5874,-2.5895,-2.5895,-2.5895,-2.5895,-2.5895,-2.5895,-2.5895,-2.5591,-2.4935,-2.4935,-2.3821,-2.1708,-2.1708,-2.1341,-2.0727,-2.0411,-2.012,-1.9845,-1.9624,-1.9444,-1.9419,-2.0017,-2.0439,-2.0642,-2.0439,-2.0069,-1.9589,-1.9674,-1.9755,-1.987,-1.9965,-2.0251,-2.0546,-2.0208,-1.9726,-1.9162,-1.8937,-1.8428,-1.7948,-1.78,-1.8015,-1.8262,-1.8262,-1.8566,-1.8699,-1.8128,-1.8,-1.8068,-1.8365,-1.8425,-1.8425,-1.8425,-1.8269,-1.7978,-1.7474,-1.7221,-1.7017,-1.673,-1.6689,-1.6689,-1.6689,-1.6689,-1.6689,-1.6689,-1.6689,-1.6689,-1.6689,-1.6689,-1.6894,-1.7351,-1.7392,-1.7838,-1.8851,-1.9121,-1.9618,-2.0459,-2.1576,-2.2419,-2.3001,-2.3824,-2.42,-2.42,-2.42,-2.42,-1.462,0.0,0.0,0.0,0.0,0.0,0.0,0.0,0.0,0.0,0.0,-1.9339,-1.9778,-2.0959,0.0,-2.2116,-2.263,-2.3001,-2.3001,-2.3001,-2.3001,-2.3001,-2.3389,-2.3853,-2.4159,-2.4618,-2.5098,-2.5579,-2.5611,-2.5699,-2.5884,-2.5895,-2.5895,-2.5895,-2.5895,-2.5368,-2.4261,-2.4251,-2.3185,-2.1108,-2.1108,-2.0755,-2.0061,-1.9684,-1.9513,-1.9504,-1.9273,-1.9385,-1.9722,-2.0132,-2.0536,-2.0987,-2.0987,-2.0604,-2.0084,-2.0204,-2.0121,-1.993,-1.9938,-2.0064,-2.0255,-2.0073,-1.9649,-1.9216,-1.9067,-1.856,-1.8013,-1.7914,-1.7996,-1.8118,-1.8118,-1.8343,-1.8589,-1.8513,-1.8485,-1.8554,-1.8776,-1.8819,-1.8819,-1.8819,-1.8743,-1.8423,-1.7763,-1.7606,-1.7384,-1.6795,-1.6689,-1.6689,-1.6689,-1.6689,-1.6689,-1.6689,-1.6689,-1.6689,-1.6689,-1.6689,-1.682,-1.7106,-1.7106,-1.7432,-1.817,-1.8531,-1.9121,-2.0001,-2.1183,-2.2031,-2.2542,-2.3666,-2.42,-2.42,-2.42,-2.42,-1.4599,0.0,0.0,0.0,0.0,0.0,0.0,0.0,0.0,0.0,0.0,-2.0818,-2.1441,-2.192,-2.24,-2.2859,-2.2968,-2.3001,-2.3001,-2.3001,-2.3001,-2.3001,-2.3394,-2.364,-2.3684,-2.4148,-2.4607,-2.5117,-2.515,-2.5306,-2.5742,-2.5775,-2.5775,-2.5775,-2.5775,-2.512,-2.3732,-2.3722,-2.2762,-2.0923,-2.0923,-2.0498,-1.964,-1.9333,-1.9196,-1.9162,-1.9162,-1.9704,-2.0535,-2.0535,-2.0978,-2.1696,-2.1642,-2.1281,-2.0824,-2.0789,-2.0342,-1.9752,-1.9708,-1.9687,-1.9633,-1.9587,-1.9587,-1.9476,-1.9085,-1.8799,-1.8474,-1.8145,-1.7926,-1.7751,-1.7751,-1.7751,-1.8013,-1.8971,-1.9135,-1.9136,-1.9222,-1.9273,-1.9273,-1.9273,-1.9273,-1.8973,-1.8154,-1.8196,-1.7938,-1.6909,-1.6771,-1.6771,-1.6771,-1.6738,-1.673,-1.6771,-1.6738,-1.673,-1.673,-1.6738,-1.6738,-1.6689,-1.673,-1.6943,-1.7392,-1.817,-1.8803,-1.9292,-2.0837,-2.168,-2.1832,-2.3361,-2.4127,-2.42,-2.42,-2.42,0.0,-1.557,0.0,0.0,0.0,0.0,0.0,0.0,0.0,0.0,-1.9352,-1.9195,-2.0752,-2.1417,-2.1898,-2.239,-2.2772,-2.3001,-2.3001,-2.3001,-2.3001,-2.3001,-2.3088,-2.3307,-2.3651,-2.3782,-2.4104,-2.4596,-2.4639,-2.4683,-2.4792,-2.4792,-2.4792,-2.4792,-2.4792,-2.3981,-2.2284,-2.2243,-2.137,-1.9591,-1.9591,-1.9505,-1.929,-1.9213,-1.9144,-1.9035,-1.9035,-1.9673,-2.0735,-2.0735,-2.1101,-2.1651,-2.1275,-2.1078,-2.0918,-2.0523,-2.0298,-2.0118,-1.9938,-1.9861,-1.9799,-1.9633,-1.9304,-1.8958,-1.8878,-1.8533,-1.8149,-1.785,-1.8056,-1.8278,-1.8049,-1.8285,-1.8605,-1.8833,-1.8753,-1.8764,-1.9424,-1.9571,-1.9571,-1.9571,-1.9571,-1.9323,-1.8389,-1.828,-1.8062,-1.7368,-1.727,-1.727,-1.727,-1.7098,-1.7057,-1.7229,-1.7098,-1.7009,-1.7009,-1.7139,-1.7106,-1.673,-1.6894,-1.7139,-1.7392,-1.7603,-1.8184,-1.9207,-1.9924,-2.0932,-2.2188,-2.2905,-2.3593,-2.42,-2.42,-2.42,0.0,0.0,0.0,0.0,0.0,0.0,0.0,0.0,0.0,0.0,-1.955,-1.9439,-2.0664,-2.1288,-2.1745,-2.2237,-2.2695,-2.3001,-2.3001,-2.3001,-2.3001,-2.3001,-2.3001,-2.3099,-2.3362,-2.3372,-2.3591,-2.4093,-2.4126,-2.4235,-2.4476,-2.4486,-2.4317,-2.3897,-2.3897,-2.2918,-2.0974,-2.0933,-2.0283,-1.8896,-1.8896,-1.8896,-1.8896,-1.8896,-1.8919,-1.9005,-1.918,-1.9837,-2.0788,-2.0995,-2.1193,-2.132,-2.1087,-2.0862,-2.0645,-2.0382,-2.0155,-1.992,-1.9783,-1.9608,-1.9379,-1.925,-1.902,-1.8781,-1.8781,-1.8558,-1.8241,-1.8102,-1.8187,-1.8265,-1.8133,-1.8272,-1.8504,-1.8635,-1.8632,-1.873,-1.9151,-1.9462,-1.9642,-1.9642,-1.9822,-1.9732,-1.8937,-1.8465,-1.8012,-1.7604,-1.7473,-1.7392,-1.7392,-1.731,-1.727,-1.7392,-1.731,-1.7221,-1.7221,-1.7351,-1.731,-1.7066,-1.7188,-1.731,-1.7392,-1.7392,-1.7781,-1.8598,-1.9256,-1.9992,-2.0826,-2.1486,-2.2339,-2.3302,-2.3302,-2.3618,0.0,0.0,0.0,0.0,0.0,0.0,0.0,0.0,0.0,-2.0063,-2.0118,-2.0238,-2.0664,-2.1233,-2.1723,-2.2127,-2.2652,-2.3001,-2.3001,-2.3001,-2.3001,-2.3001,-2.3001,-2.3001,-2.3001,-2.3001,-2.3165,-2.3531,-2.3564,-2.3787,-2.4213,-2.4235,-2.386,-2.2984,-2.2944,-2.199,-1.9891,-1.9891,-1.9448,-1.8588,-1.8656,-1.8648,-1.8588,-1.8629,-1.8847,-1.9202,-1.9561,-2.0207,-2.0949,-2.1248,-2.1195,-2.0997,-2.0817,-2.051,-2.0155,-2.0065,-1.9791,-1.9463,-1.9463,-1.9188,-1.8781,-1.8781,-1.8781,-1.8781,-1.8781,-1.8697,-1.8527,-1.8527,-1.8334,-1.8141,-1.8087,-1.8087,-1.8179,-1.8404,-1.8496,-1.8643,-1.8781,-1.9142,-1.9463,-1.9463,-1.9778,-1.9934,-1.9428,-1.8666,-1.8004,-1.7799,-1.7627,-1.7514,-1.7514,-1.7473,-1.7473,-1.7514,-1.7473,-1.7432,-1.7432,-1.7473,-1.7473,-1.7392,-1.7432,-1.7432,-1.7392,-1.7392,-1.7554,-1.7878,-1.8638,-1.9049,-1.9158,-1.9964,-2.1008,-2.2253,-2.2291,-2.2947,0.0,0.0,0.0,0.0,0.0,0.0,0.0,0.0,0.0,0.0,-2.0118,-2.0129,-2.0194,-2.0981,-2.1614,-2.168,-2.2433,-2.3001,-2.3001,-2.3001,-2.3001,-2.3001,-2.3001,-2.3001,-2.3001,-2.3001,-2.3023,-2.3088,-2.3099,-2.3121,-2.3198,-2.3198,-2.2848,-2.2018,-2.198,-2.1141,-1.9415,-1.9375,-1.9147,-1.8588,-1.893,-1.8956,-1.8629,-1.8763,-1.9195,-1.9825,-2.0397,-2.1011,-2.1569,-2.1204,-2.1042,-2.0907,-2.0093,-1.9729,-1.9646,-1.9188,-1.8966,-1.892,-1.892,-1.8874,-1.8781,-1.8781,-1.8781,-1.8781,-1.8781,-1.8781,-1.8743,-1.8574,-1.8481,-1.8381,-1.8179,-1.8087,-1.8087,-1.8133,-1.8001,-1.8001,-1.8643,-1.8874,-1.892,-1.892,-1.9035,-1.9198,-1.9229,-1.8837,-1.8377,-1.801,-1.7959,-1.7919,-1.7919,-1.7789,-1.774,-1.7919,-1.774,-1.7659,-1.7659,-1.7829,-1.7757,-1.7432,-1.7546,-1.7587,-1.74,-1.7392,-1.7441,-1.7473,-1.791,-1.8407,-1.8939,-1.9462,-2.0508,-2.2027,-2.2215,-2.2883,0.0,0.0,0.0,0.0,0.0,0.0,0.0,0.0,0.0,-2.0357,-2.0721,-2.0599,-2.0162,-2.1005,-2.1732,-2.1627,-2.2487,-2.315,-2.3001,-2.3001,-2.3001,-2.3001,-2.3001,-2.3001,-2.3001,-2.3001,-2.3001,-2.3001,-2.3001,-2.2804,-2.2344,-2.2344,-2.1728,-2.0459,-2.0421,-1.9795,-1.8594,-1.8585,-1.8472,-1.828,-1.8451,-1.8451,-1.8288,-1.8874,-1.9274,-1.9567,-1.9753,-2.0257,-2.0952,-2.0501,-2.0266,-2.0184,-1.9774,-1.9417,-1.9096,-1.8874,-1.8781,-1.8781,-1.8781,-1.8781,-1.8781,-1.8781,-1.8781,-1.8781,-1.8781,-1.8781,-1.8781,-1.8697,-1.8658,-1.8651,-1.8504,-1.8504,-1.8458,-1.8334,-1.8141,-1.7955,-1.8141,-1.8319,-1.8589,-1.9142,-1.9294,-1.9321,-1.923,-1.9033,-1.8716,-1.8085,-1.8,-1.8,-1.8,-1.791,-1.791,-1.7991,-1.791,-1.787,-1.787,-1.7951,-1.7919,-1.7757,-1.7829,-1.7829,-1.7757,-1.7757,-1.7757,-1.7757,-1.7676,-1.7749,-1.7876,-1.8086,-1.9177,-2.0999,-2.1076,-2.2113,0.0,0.0,0.0,0.0,0.0,0.0,0.0,0.0,-1.8364,0.0,-2.1041,-2.1173,-2.0709,-2.137,-2.1908,-2.1661,-2.2419,-2.3001,-2.2852,-2.2852,-2.2852,-2.2852,-2.2815,-2.2815,-2.2927,-2.2889,-2.2889,-2.3001,-2.3001,-2.2729,-2.2145,-2.1918,-2.1106,-1.9648,-1.942,-1.8865,-1.8,-1.8,-1.8,-1.8,-1.8,-1.7951,-1.7959,-1.8658,-1.8953,-1.8921,-1.9132,-1.9577,-2.0053,-1.9625,-1.9449,-1.9414,-1.9323,-1.9061,-1.8781,-1.8781,-1.8781,-1.8781,-1.8781,-1.8781,-1.8781,-1.8781,-1.8781,-1.8781,-1.8781,-1.8781,-1.8781,-1.8781,-1.8781,-1.8781,-1.8781,-1.8781,-1.8743,-1.8612,-1.8326,-1.7994,-1.7667,-1.7761,-1.8172,-1.9188,-1.9417,-1.9368,-1.9212,-1.9213,-1.8913,-1.8111,-1.8,-1.8,-1.8,-1.8,-1.8,-1.8,-1.8,-1.8,-1.8,-1.8,-1.8,-1.8,-1.8,-1.8,-1.8,-1.8,-1.8,-1.8,-1.7716,-1.7473,-1.7253,-1.7253,-1.8158,-1.9885,-2.0158,-2.1431,0.0,0.0,0.0,0.0,0.0,0.0,0.0,0.0,0.0,-1.9066,-2.0565,-2.1688,-2.2046,-2.2192,-2.2165,-2.1767,-2.211,-2.244,-2.244,-2.244,-2.244,-2.244,-2.2252,-2.2289,-2.2665,-2.2553,-2.259,-2.2964,-2.3001,-2.2964,-2.2927,-2.222,-2.1385,-2.0459,-1.9687,-1.8865,-1.8,-1.8,-1.8,-1.8,-1.8,-1.791,-1.774,-1.7976,-1.7936,-1.7848,-1.923,-1.9605,-1.9213,-1.8749,-1.8756,-1.9006,-1.8551,-1.8533,-1.8781,-1.8781,-1.8781,-1.8781,-1.8781,-1.8781,-1.8781,-1.8781,-1.8781,-1.8781,-1.8781,-1.8781,-1.8781,-1.8781,-1.8781,-1.8781,-1.8781,-1.8781,-1.8781,-1.8781,-1.8411,-1.7939,-1.7419,-1.7326,-1.7652,-1.8643,-1.8827,-1.8924,-1.9169,-1.9213,-1.8913,-1.8111,-1.8,-1.8,-1.8,-1.8,-1.8,-1.8,-1.8,-1.8,-1.8,-1.8,-1.8,-1.8,-1.8,-1.8,-1.8,-1.8,-1.8,-1.8,-1.8,-1.787,-1.7659,-1.7659,-1.8135,-1.9076,-2.0041,-2.1076,0.0,0.0,0.0,0.0,0.0,0.0,0.0,-1.652,-1.6893,-1.7672,-2.0079,-2.1658,-2.0391,-2.0578,-2.0951,-2.0915,-2.057,-2.0233,-2.0095,-2.0095,-2.0205,-2.0456,-2.042,-2.0491,-2.0884,-2.0837,-2.1183,-2.2096,-2.1217,-2.0913,-2.1552,-2.0329,-1.9383,-1.8917,-1.8625,-1.8313,-1.8,-1.787,-1.7821,-1.7829,-1.7668,-1.7595,-1.7505,-1.7708,-1.7619,-1.7351,-1.8027,-1.833,-1.8338,-1.7922,-1.7919,-1.8225,-1.8049,-1.8041,-1.8176,-1.8406,-1.8486,-1.8518,-1.8748,-1.8781,-1.8781,-1.8781,-1.8781,-1.8781,-1.8781,-1.8781,-1.8781,-1.8781,-1.8781,-1.8781,-1.8781,-1.8781,-1.8781,-1.8658,-1.8473,-1.8133,-1.7399,-1.7557,-1.7986,-1.8689,-1.9096,-1.9278,-1.9212,-1.9213,-1.8913,-1.8111,-1.8,-1.8,-1.8,-1.8,-1.8,-1.8,-1.8,-1.8,-1.8,-1.8,-1.8,-1.8,-1.8,-1.7951,-1.7821,-1.791,-1.7951,-1.7821,-1.791,-1.791,-1.77,-1.77,-1.8135,-1.8997,-1.9383,-2.0469,0.0,0.0,0.0,0.0,0.0,0.0,0.0,0.0,-1.6117,-1.6229,-1.918,-2.1332,-1.9995,-1.9947,-2.0173,-2.0318,-1.9489,-1.8735,-1.8635,-1.8721,-1.8882,-1.9174,-1.9249,-1.9398,-1.9758,-1.9747,-2.009,-2.1048,-2.0103,-1.9799,-2.0469,-1.9373,-1.8541,-1.8144,-1.8112,-1.8072,-1.8,-1.787,-1.7781,-1.7781,-1.7514,-1.7392,-1.7392,-1.7383,-1.7212,-1.6976,-1.7106,-1.7286,-1.7464,-1.7221,-1.7302,-1.7647,-1.7647,-1.7719,-1.7838,-1.8033,-1.812,-1.8168,-1.8526,-1.8653,-1.8669,-1.8742,-1.8781,-1.8781,-1.8781,-1.8781,-1.8781,-1.8781,-1.8781,-1.8781,-1.8781,-1.8781,-1.8735,-1.8574,-1.8481,-1.8326,-1.7674,-1.7749,-1.8056,-1.8356,-1.8682,-1.8905,-1.8927,-1.8845,-1.8549,-1.789,-1.7797,-1.7797,-1.7797,-1.7676,-1.7635,-1.7797,-1.7797,-1.7797,-1.7797,-1.7919,-1.8,-1.8,-1.8,-1.791,-1.77,-1.7829,-1.7789,-1.7587,-1.7708,-1.7708,-1.7587,-1.774,-1.8103,-1.8656,-1.8966,-2.0129,0.0,0.0,0.0,0.0,0.0,0.0,-1.0672,0.0,-1.508,-1.4792,-1.7805,-2.0642,-2.0979,-2.0441,-1.993,-1.993,-1.8966,-1.8212,-1.8212,-1.8525,-1.8793,-1.8811,-1.8909,-1.9146,-1.952,-1.9383,-1.9423,-1.9816,-1.9836,-1.9797,-1.9855,-1.949,-1.8984,-1.8393,-1.8353,-1.8241,-1.8,-1.8,-1.8,-1.8,-1.7554,-1.7392,-1.7351,-1.6894,-1.6689,-1.6689,-1.6689,-1.6689,-1.6689,-1.6689,-1.6945,-1.7262,-1.7262,-1.7504,-1.779,-1.7798,-1.7798,-1.7846,-1.816,-1.8279,-1.8343,-1.8639,-1.8758,-1.8812,-1.8812,-1.8773,-1.8781,-1.8781,-1.8781,-1.8781,-1.8781,-1.8781,-1.8735,-1.8574,-1.8527,-1.8427,-1.8172,-1.7885,-1.7702,-1.7644,-1.7613,-1.7767,-1.8281,-1.81,-1.7788,-1.7449,-1.7392,-1.7392,-1.7392,-1.6984,-1.6894,-1.7351,-1.7392,-1.7392,-1.7432,-1.7797,-1.8,-1.8,-1.8,-1.791,-1.77,-1.77,-1.7578,-1.7392,-1.7392,-1.7392,-1.7392,-1.7797,-1.8,-1.8,-1.8904,-2.0187,-1.0462,0.0,0.0,0.0,0.0,0.0,0.0,0.0,-1.3841,-1.2894,-1.5897,-1.8456,-1.7605,-1.7853,-1.8199,-1.8199,-1.8207,-1.8212,-1.8212,-1.8313,-1.8461,-1.8774,-1.8827,-1.8728,-1.8452,-1.8399,-1.8541,0.0,-1.7873,-1.7821,-1.911,-1.8376,-1.7838,-1.7676,-1.7676,-1.7635,-1.7554,-1.7554,-1.7554,-1.7554,-1.7106,-1.6902,-1.6894,-1.6607,-1.6476,-1.6476,-1.6648,-1.6689,-1.6689,-1.6689,-1.6753,-1.6881,-1.6881,-1.6903,-1.7056,-1.7318,-1.7456,-1.7504,-1.7803,-1.7958,-1.793,-1.8033,-1.824,-1.8446,-1.8446,-1.8629,-1.8781,-1.8781,-1.8781,-1.8781,-1.8781,-1.8781,-1.8781,-1.8743,-1.8697,-1.858,-1.8108,-1.7918,-1.7834,-1.7861,-1.783,-1.7767,-1.7616,-1.7514,-1.7337,-1.695,-1.6902,-1.6902,-1.6902,-1.6779,-1.6894,-1.7351,-1.7392,-1.7514,-1.7797,-1.7959,-1.8,-1.8,-1.8,-1.7829,-1.7514,-1.7619,-1.7538,-1.718,-1.7351,-1.7392,-1.7392,-1.7514,-1.7554,-1.7595,-1.9195,-2.0207,0.0,0.0,0.0,0.0,0.0,0.0,-0.9994,-1.1675,-1.2978,-1.1918,-1.4786,-1.7116,-1.5898,-1.6546,-1.728,-1.728,-1.7606,-1.7678,-1.7237,-1.727,-1.7461,-1.7696,-1.7822,-1.7806,-1.7504,-1.7448,-1.7561,-1.7787,-1.6939,-1.6969,-1.8221,-1.7708,-1.7432,-1.7505,-1.7546,-1.7465,-1.7392,-1.7392,-1.7392,-1.7392,-1.6853,-1.6607,-1.6697,-1.6278,-1.6229,-1.6394,-1.6525,-1.6607,-1.6689,-1.6689,-1.6689,-1.6689,-1.6689,-1.6689,-1.6721,-1.6976,-1.7048,-1.7104,-1.7488,-1.7607,-1.7631,-1.7767,-1.7914,-1.8081,-1.8081,-1.8224,-1.839,-1.839,-1.8494,-1.8645,-1.8742,-1.8781,-1.8742,-1.8645,-1.8605,-1.8464,-1.8034,-1.7713,-1.7466,-1.7524,-1.7322,-1.7149,-1.704,-1.6883,-1.6719,-1.6482,-1.6451,-1.6451,-1.6451,-1.6451,-1.6615,-1.7066,-1.727,-1.7473,-1.7716,-1.7919,-1.8,-1.8,-1.8,-1.7838,-1.7432,-1.7505,-1.7383,-1.6935,-1.7066,-1.7106,-1.7106,-1.731,-1.7392,-1.7432,-1.8877,-1.9767,0.0,0.0,0.0,0.0,0.0,0.0,-0.9554,-1.0994,-1.2335,-1.1631,-1.4111,-1.61,-1.5196,-1.5963,-1.674,-1.674,-1.6814,-1.6668,-1.5942,-1.6233,-1.6475,-1.6361,-1.6726,-1.6935,-1.6853,-1.6853,-1.6812,-1.6697,-1.6689,-1.6894,-1.731,-1.731,-1.7383,-1.7578,-1.7578,-1.7497,-1.731,-1.7351,-1.7351,-1.7351,-1.673,-1.6525,-1.6697,-1.6031,-1.5982,-1.6394,-1.6394,-1.6517,-1.6689,-1.6689,-1.6689,-1.6689,-1.6689,-1.6689,-1.6689,-1.6689,-1.6689,-1.6737,-1.7104,-1.713,-1.7093,-1.7556,-1.764,-1.7585,-1.7715,-1.779,-1.7814,-1.7814,-1.8001,-1.8311,-1.8629,-1.8708,-1.8629,-1.8319,-1.824,-1.8152,-1.7878,-1.7372,-1.6924,-1.6849,-1.6449,-1.6224,-1.641,-1.6209,-1.6004,-1.6004,-1.6004,-1.6004,-1.6004,-1.6004,-1.617,-1.6574,-1.7066,-1.731,-1.731,-1.7757,-1.8,-1.7959,-1.8,-1.7838,-1.7432,-1.7392,-1.7188,-1.6697,-1.6689,-1.6689,-1.6689,-1.7106,-1.731,-1.7351,-1.8167,-1.9146,0.0,0.0,0.0,0.0,0.0,0.0,-1.104,-1.1302,-1.1684,-1.2057,-1.3043,-1.3876,-1.4045,-1.4633,-1.5054,-1.5054,-1.4752,-1.5027,-1.6518,-1.7852,-1.8285,-1.7197,-1.8089,-1.851,-1.7796,-1.7764,-1.7448,-1.673,-1.6689,-1.673,-1.6812,-1.6861,-1.6853,-1.6894,-1.6894,-1.6894,-1.6861,-1.7057,-1.718,-1.7139,-1.6812,-1.6648,-1.6697,-1.6245,-1.6162,-1.6394,-1.6394,-1.6517,-1.6689,-1.6689,-1.6689,-1.6689,-1.6689,-1.6689,-1.6689,-1.6689,-1.6689,-1.6705,-1.6776,-1.6205,-1.5614,-1.6615,-1.653,-1.6187,-1.711,-1.7607,-1.7814,-1.7814,-1.7862,-1.789,-1.7962,-1.7977,-1.7962,-1.789,-1.7918,-1.7902,-1.783,-1.7509,-1.7159,-1.6916,-1.6266,-1.5755,-1.5644,-1.56,-1.5555,-1.5555,-1.5555,-1.5555,-1.5555,-1.5555,-1.5714,-1.617,-1.6574,-1.6861,-1.6861,-1.7546,-1.7878,-1.7554,-1.7838,-1.7838,-1.7432,-1.7392,-1.7188,-1.6697,-1.6689,-1.6689,-1.6689,-1.6771,-1.6861,-1.6861,-1.7876,-1.8939,0.0,0.0,0.0,-1.1426,0.0,0.0,0.0,-1.1492,-1.1951,-1.2151,-1.2933,-1.3455,-1.3171,-1.3316,-1.3508,-1.3508,-1.3116,-1.3201,-1.4392,-1.6017,-1.7026,-1.7026,-1.7583,-1.7836,-1.7408,-1.7367,-1.7172,-1.673,-1.6689,-1.6689,-1.6689,-1.6689,-1.6689,-1.6689,-1.6689,-1.6689,-1.6689,-1.6812,-1.6894,-1.6894,-1.6648,-1.6566,-1.6525,-1.6245,-1.617,-1.6245,-1.636,-1.6476,-1.6566,-1.6648,-1.6689,-1.6689,-1.6689,-1.6689,-1.6648,-1.6057,-1.5842,-1.5842,-1.5842,-1.5462,-1.5206,-1.6312,-1.6436,-1.6274,-1.6834,-1.7119,-1.7294,-1.7477,-1.7568,-1.7607,-1.7767,-1.7814,-1.7775,-1.7607,-1.7568,-1.752,-1.7294,-1.6783,-1.6282,-1.6064,-1.5553,-1.5284,-1.5499,-1.5465,-1.5389,-1.5389,-1.5389,-1.5389,-1.5389,-1.559,-1.5839,-1.6087,-1.6451,-1.6689,-1.6689,-1.7098,-1.7261,-1.7066,-1.7473,-1.7514,-1.7066,-1.727,-1.7188,-1.6697,-1.6689,-1.6689,-1.6689,-1.6689,-1.6689,-1.6689,-1.7245,-1.8069,0.0,0.0,0.0,0.0,0.0,-1.1389,0.0,0.0,0.0,-1.2243,0.0,0.0,0.0,0.0,0.0,-1.2444,0.0,0.0,0.0,-1.3501,0.0,-1.564,-1.5887,-1.5991,-1.6023,-1.6214,-1.6444,-1.6673,-1.6689,-1.6689,-1.6689,-1.6689,-1.6689,-1.6689,-1.6689,-1.6689,-1.6689,-1.6689,-1.6689,-1.6689,-1.6517,-1.6476,-1.6435,-1.6245,-1.617,-1.6211,-1.636,-1.6435,-1.6476,-1.6648,-1.6689,-1.6689,-1.6689,-1.6566,-1.6263,-1.5338,-1.4873,-1.4699,-1.4914,-1.4873,-1.4914,-1.627,-1.6607,-1.6402,-1.6229,-1.6188,-1.6249,-1.6576,-1.6653,-1.6715,-1.702,-1.7219,-1.7235,-1.6757,-1.6788,-1.6794,-1.6291,-1.5643,-1.5137,-1.5137,-1.4894,-1.4859,-1.536,-1.5416,-1.5389,-1.5389,-1.5389,-1.5389,-1.5389,-1.5722,-1.5971,-1.5971,-1.6335,-1.6533,-1.6451,-1.6607,-1.6656,-1.6574,-1.7106,-1.7229,-1.6771,-1.7147,-1.7147,-1.6771,-1.6738,-1.6689,-1.6689,-1.6689,-1.6689,-1.6689,-1.6689,-1.7286,0.0,0.0,0.0,0.0,-1.2318,0.0,0.0,0.0,-1.2352,-1.2506,0.0,0.0,0.0,0.0,0.0,0.0,0.0,0.0,-1.3267,-1.2899,-1.2468,-1.2448,-1.2956,-1.3397,-1.3589,-1.4471,-1.5463,-1.6602,-1.6689,-1.6689,-1.6689,-1.6689,-1.6689,-1.6689,-1.6689,-1.6689,-1.6689,-1.6689,-1.6689,-1.6689,-1.6697,-1.6648,-1.6648,-1.6443,-1.6443,-1.6615,-1.6476,-1.6484,-1.6648,-1.6689,-1.6689,-1.6689,-1.6689,-1.6098,-1.5171,-1.5039,-1.4364,-1.3649,-1.4657,-1.4322,-1.386,-1.6015,-1.6188,-1.5394,-1.4552,-1.4294,-1.4307,-1.4383,-1.439,-1.4397,-1.4431,-1.5035,-1.5447,-1.4565,-1.5027,-1.5396,-1.451,-1.421,-1.4384,-1.5228,-1.5026,-1.465,-1.4566,-1.5041,-1.5389,-1.5389,-1.5389,-1.5389,-1.5389,-1.5472,-1.5472,-1.5472,-1.588,-1.6004,-1.559,-1.6245,-1.6533,-1.6211,-1.6943,-1.731,-1.7057,-1.7098,-1.7098,-1.7057,-1.6812,-1.6689,-1.6689,-1.6689,-1.6689,-1.6689,-1.6689,-1.7286,0.0,0.0,0.0,0.0,0.0,0.0,-1.305,0.0,-1.2367,0.0,0.0,0.0,0.0,0.0,0.0,0.0,-1.1519,0.0,0.0,0.0,-1.1028,-1.2735,0.0,0.0,-1.429,-1.4026,-1.4305,-1.5503,-1.5752,-1.5745,-1.5607,-1.6293,-1.6689,-1.6689,-1.6689,-1.6689,-1.6689,-1.6689,-1.6689,-1.6689,-1.6689,-1.6689,-1.6689,-1.6607,-1.6566,-1.6525,-1.6566,-1.6566,-1.6525,-1.6648,-1.6394,-1.594,-1.594,-1.5643,-1.5054,-1.374,-1.3021,-1.2772,-1.3275,-1.3105,-1.2984,-1.4629,-1.4887,-1.451,-1.4126,-1.3999,-1.3999,-1.3999,-1.3999,-1.3999,-1.3999,-1.43,-1.451,-1.4084,-1.4294,-1.4468,-1.4084,-1.3584,-1.333,-1.3535,-1.3802,-1.3851,-1.3639,-1.4615,-1.5389,-1.5389,-1.5389,-1.5389,-1.5389,-1.5389,-1.5389,-1.5389,-1.559,-1.5597,-1.5431,-1.5756,-1.588,-1.5714,-1.6154,-1.6599,-1.7098,-1.6738,-1.6689,-1.709,-1.6722,-1.6566,-1.6689,-1.6689,-1.6689,-1.6689,-1.6689,-1.6927,-1.3664,0.0,0.0,0.0,0.0,0.0,0.0,0.0,0.0,0.0,0.0,0.0,0.0,0.0,0.0,0.0,0.0,-1.0902,0.0,-0.9923,0.0,0.0,0.0,0.0,0.0,-1.3413,-1.3369,-1.4191,-1.4888,-1.5133,-1.4836,-1.6007,-1.6689,-1.6689,-1.6689,-1.6689,-1.6689,-1.6689,-1.6689,-1.6689,-1.6689,-1.6689,-1.6689,-1.6689,-1.6607,-1.6476,-1.6648,-1.6484,-1.6147,-1.627,-1.5726,-1.4796,-1.4496,-1.4322,-1.407,-1.2467,-1.1794,-1.1709,-1.188,-1.2132,-1.2462,-1.3057,-1.3353,-1.3402,-1.3148,-1.3154,-1.3245,-1.3245,-1.3245,-1.3245,-1.3245,-1.3457,-1.3584,-1.333,-1.3457,-1.3584,-1.333,-1.2741,-1.232,-1.24,-1.2747,-1.3045,-1.3082,-1.4363,-1.5298,-1.5082,-1.5257,-1.5305,-1.5082,-1.5257,-1.5389,-1.5389,-1.5389,-1.5389,-1.5389,-1.5389,-1.5472,-1.559,-1.5748,-1.6154,-1.6976,-1.6574,-1.6615,-1.709,-1.6763,-1.664,-1.6812,-1.673,-1.6689,-1.6689,-1.6689,-1.6689,0.0,-1.4573,0.0,-1.3751,0.0,0.0,0.0,0.0,-1.259,0.0,0.0,0.0,0.0,0.0,0.0,0.0,0.0,0.0,0.0,0.0,0.0,0.0,0.0,0.0,0.0,-1.2066,-1.2802,-1.2866,-1.4438,-1.5206,-1.4836,-1.6007,-1.6689,-1.6689,-1.6689,-1.6689,-1.6689,-1.6689,-1.6689,-1.6689,-1.6689,-1.6689,-1.6689,-1.6689,-1.6689,-1.6689,-1.6689,-1.6237,-1.5436,-1.5436,-1.4629,-1.3269,-1.2151,-1.1595,-1.1466,-1.1552,-1.0966,-1.0164,-1.0837,-1.1718,-1.2468,-1.1632,-1.1686,-1.1901,-1.0977,-1.1035,-1.1392,-1.1392,-1.1392,-1.1392,-1.1392,-1.2069,-1.2491,-1.1602,-1.2069,-1.2491,-1.1564,-1.1348,-1.1602,-1.2491,-1.2357,-1.2351,-1.3239,-1.4524,-1.5131,-1.4272,-1.4873,-1.5082,-1.4265,-1.4873,-1.5389,-1.5389,-1.5389,-1.5389,-1.5389,-1.5389,-1.5597,-1.6046,-1.6087,-1.6294,-1.6689,-1.6935,-1.7098,-1.7098,-1.7098,-1.7098,-1.7098,-1.6812,-1.6689,-1.6689,-1.6689,-1.6689,-1.5197,-1.5324,-1.5268,-1.5067,-1.4625,-1.4185,-1.3989,0.0,0.0,0.0,0.0,0.0,0.0,0.0,0.0,0.0,0.0,0.0,0.0,0.0,0.0,0.0,0.0,0.0,0.0,0.0,-1.0797,-1.1744,-1.2338,-1.2579,-1.2315,-1.4292,-1.5453,-1.5453,-1.6246,-1.6689,-1.6689,-1.6689,-1.6689,-1.6689,-1.6689,-1.6689,-1.6689,-1.6689,-1.6402,-1.5858,-1.6443,-1.585,-1.4503,-1.5137,-1.4245,-1.2413,-1.2029,-1.1262,-1.0414,-1.0328,-1.0159,-1.0038,-1.0246,-1.0587,-1.0837,-1.0544,-1.0544,-1.0631,-1.0294,-1.0511,-1.0862,-1.0862,-1.1041,-1.1305,-1.1305,-1.1521,-1.1688,-1.1392,-1.1559,-1.1688,-1.1348,-1.1305,-1.1348,-1.1559,-1.1806,-1.2057,-1.2223,-1.3027,-1.3704,-1.4055,-1.4356,-1.4657,-1.4915,-1.5215,-1.5389,-1.5389,-1.5389,-1.5389,-1.5389,-1.5389,-1.5472,-1.5631,-1.5639,-1.5839,-1.6294,-1.6079,-1.6319,-1.7098,-1.6804,-1.6853,-1.731,-1.7057,-1.6976,-1.6976,-1.6771,-1.6689,-1.5928,-1.6055,-1.5991,-1.5776,-1.534,-1.4906,-1.466,-1.395,-1.3298,0.0,0.0,0.0,0.0,0.0,0.0,0.0,0.0,0.0,0.0,-0.9008,0.0,0.0,0.0,0.0,0.0,-1.0199,-1.0044,-1.0324,-1.098,-1.1242,-1.0947,-1.3372,-1.4812,-1.4812,-1.6039,-1.6689,-1.6689,-1.6689,-1.6689,-1.6689,-1.6689,-1.6689,-1.6689,-1.6394,-1.594,-1.5394,-1.547,-1.4664,-1.3311,-1.3776,-1.2796,-1.1052,-1.1052,-1.0414,-0.9519,-0.9476,-0.9476,-0.9519,-0.9519,-0.9519,-0.9519,-0.9519,-0.9607,-0.9733,-0.9733,-1.0038,-1.0396,-1.0431,-1.0619,-1.0888,-1.1102,-1.1104,-1.1084,-1.1262,-1.1305,-1.1305,-1.1305,-1.1305,-1.1262,-1.1138,-1.1386,-1.1596,-1.1375,-1.1617,-1.2126,-1.2991,-1.3366,-1.3795,-1.4356,-1.4741,-1.5048,-1.5389,-1.5389,-1.5389,-1.5389,-1.5389,-1.5389,-1.5389,-1.5389,-1.5555,-1.5839,-1.5714,-1.6046,-1.6935,-1.6763,-1.6927,-1.7505,-1.7302,-1.718,-1.7098,-1.7017,-1.6902]}]]